     2              OBSERVATION DATA    GPS                 RINEX VERSION / TYPE
srx-v1.5-(11/13/93) SEISMO 11-MAR-1994                      PGM / RUN BY / DATE
                                                            COMMENT
sig: 9 8 7 6 5 4 1 0                                        COMMENT
sig: 9 8 7 6 5 4 1 0                                        COMMENT
sig: 9 8 7 6 5 4 1 0                                        COMMENT
Original Marker Name: LNCH                                  COMMENT
Campaign Name: jpl 1993-1997                                COMMENT
4-Character Station Name: LNCH                              COMMENT
6-Character Antenna Code: DMRCHT                            COMMENT
Vertical Measurement Point: BPA                             COMMENT
Vertical Offset to Rinex Ref. Point: 0.0000                 COMMENT
Radial Measurement Point: RRP                               COMMENT
Radial Offset to Rinex Ref. Point: 0.0000                   COMMENT
Antenna Height from Field Measurement: 0.0814 m             COMMENT
Additional Antenna Identification Info.:                    COMMENT
Turborogue and Ashtech Choke Ring                           COMMENT
Original XYZ: -2517548.0082 -4633719.3365 3573081.1819      COMMENT
New XYZ position is based on association with SCEC monument COMMENT
E1E9I3I3+0011. Position of that monument is believed to be  COMMENT
valid to within 1 m horizontally; vertical accuracy         COMMENT
should be no worse than 3-times this value.                 COMMENT
                                                            COMMENT
Revised Rinex header created by UCSD GPS archive for        COMMENT
GSAC on 15-Apr-1999 (1999:105) 02:49:50 GMT                 COMMENT
For assistance contact dagnew@ucsd.edu or hjohnson@ucsd.edu COMMENT
                                                            COMMENT
LYNCH                                                       MARKER NAME
LNCH                                                        MARKER NUMBER
GAL JET PROPULSION LABORATORY                               OBSERVER / AGENCY
T262 TURBOROGUE SNR-8000 2.8                                REC # / TYPE / VERS
329 DORNE-MARGOL. TYPE T                                    ANT # / TYPE
 -2517702.0000 -4635197.0000  3574286.0000                  APPROX POSITION XYZ
        0.0814        0.0000        0.0000                  ANTENNA: DELTA H/E/N
     1     1     0                                          WAVELENGTH FACT L1/2
     5    L1    L2    P1    P2    C1                        # / TYPES OF OBSERV
    30                                                      INTERVAL
  1994     2    22     0     0    0.000000                  TIME OF FIRST OBS
  1994     2    22    23    59   30.000000                  TIME OF LAST OBS
    26                                                      # OF SATELLITES
          01   590   590     0   590   590                  PRN / # OF OBS
          02   744   744     0   744   744                  PRN / # OF OBS
          03   653   653   653   653     0                  PRN / # OF OBS
          04   412   412     0   412   412                  PRN / # OF OBS
          05   623   623     0   623   623                  PRN / # OF OBS
          07   619   619     0   619   619                  PRN / # OF OBS
          09   610   610     0   610   610                  PRN / # OF OBS
          12   605   605   605   605     0                  PRN / # OF OBS
          13   567   567   567   567     0                  PRN / # OF OBS
          14   531   531     0   531   531                  PRN / # OF OBS
          15   651   651     0   651   651                  PRN / # OF OBS
          16   632   632     0   632   632                  PRN / # OF OBS
          17   730   730     0   730   730                  PRN / # OF OBS
          18   608   608     0   608   608                  PRN / # OF OBS
          19   736   736     0   736   736                  PRN / # OF OBS
          20   523   523     0   523   523                  PRN / # OF OBS
          21   736   736     0   736   736                  PRN / # OF OBS
          22   653   653     0   653   653                  PRN / # OF OBS
          23   702   702     0   702   702                  PRN / # OF OBS
          24   618   618     0   618   618                  PRN / # OF OBS
          25   501   501     0   501   501                  PRN / # OF OBS
          26   653   653     0   653   653                  PRN / # OF OBS
          27   684   684     0   684   684                  PRN / # OF OBS
          28   655   655     0   655   655                  PRN / # OF OBS
          29   709   709     0   709   709                  PRN / # OF OBS
                                                            END OF HEADER
 94 02 22 00 00 00.0000000  0  5 02 07 19 26 27
  -6129990.47149  -4776615.78248         0.00041  20891985.45948  20891983.65149
  -5833438.16348  -4545533.07346         0.00041  21110889.67046  21110887.39448
   -473952.53948   -369321.85446         0.00041  22315644.68646  22315642.00948
  -7583841.88348  -5909485.28546         0.00041  23002265.81546  23002264.42548
 -13826921.87349 -10774227.90148         0.00041  20491780.24848  20491778.71849
 94 02 22 00 00 30.0000000  0  5 02 07 19 26 27
  -6135253.24749  -4780716.68548         0.00041  20890984.06248  20890982.49549
  -5896242.66048  -4594471.61946         0.00041  21098937.89246  21098936.07948
   -404273.39048   -315026.51046         0.00041  22328904.90346  22328901.45148
  -7640541.03648  -5953666.45046         0.00041  22991477.64646  22991474.75948
 -13792370.17449 -10747304.53948         0.00041  20498355.16448  20498353.08249
 94 02 22 00 01 00.0000000  0  6 02 07 15 19 26 27
  -6140294.91749  -4784645.30548         0.00041  20890024.49248  20890023.13649
  -5958618.68248  -4643076.28546         0.00041  21087067.52946  21087066.27248
        -0.58257        -0.27554         0.00051  23970318.01754  23970320.56657
   -334327.32048   -260523.16746         0.00041  22342215.38146  22342211.91948
  -7696789.77248  -5997496.65546         0.00041  22980772.86946  22980770.60048
 -13757399.70249 -10720054.86448         0.00041  20505010.34548  20505007.70149
 94 02 22 00 01 30.0000000  0  5 02 07 19 26 27
  -6145107.77249  -4788395.62248         0.00041  20889108.65948  20889107.30449
  -6020529.65148  -4691318.57646         0.00041  21075287.33846  21075285.13048
   -264093.40948   -205795.54446         0.00041  22355581.55546  22355577.26848
  -7752572.78548  -6040963.93846         0.00041  22970157.68246  22970154.86048
 -13722005.69949 -10692475.17048         0.00041  20511745.79848  20511743.50449
 94 02 22 00 02 00.0000000  0  5 02 07 19 26 27
  -6149703.27449  -4791976.56048         0.00041  20888234.01848  20888232.99249
  -6081948.30648  -4739177.24746         0.00041  21063599.93446  21063597.58448
   -193560.35248   -150834.82046         0.00041  22369003.08946  22368998.99448
  -7807891.70348  -6084069.60046         0.00041  22959630.57446  22959628.26348
 -13686192.89749 -10664569.13648         0.00041  20518560.54648  20518558.42949
 94 02 22 00 02 30.0000000  0  5 02 07 19 26 27
  -6154116.83249  -4795415.66448         0.00041  20887394.07448  20887392.90649
  -6142889.81648  -4786664.11046         0.00041  21052002.47646  21052000.71248
   -122744.79948    -95653.96546         0.00041  22382478.91446  22382474.85048
  -7862770.48648  -6126832.28946         0.00041  22949187.60346  22949185.16248
 -13649981.50649 -10636352.50248         0.00041  20525451.43348  20525449.27249
 94 02 22 00 03 00.0000000  0  5 02 07 19 26 27
  -6158354.86849  -4798718.01748         0.00041  20886587.91548  20886586.29549
  -6203356.32948  -4833780.84646         0.00041  21040495.51746  21040494.05248
    -51640.95448    -40248.46846         0.00041  22396009.31446  22396005.82048
  -7917207.74348  -6169250.93446         0.00041  22938828.39646  22938825.84448
 -13613358.93949 -10607815.47548         0.00041  20532420.54148  20532418.28249
 94 02 22 00 03 30.0000000  0  5 02 07 19 26 27
  -6162418.08749  -4801884.16048         0.00041  20885814.70948  20885813.17049
  -6263337.40448  -4880519.31946         0.00041  21029082.31046  21029080.33148
     19766.13448     15393.31746         0.00041  22409598.53846  22409594.51948
  -7971183.46148  -6211309.93546         0.00041  22928557.32946  22928554.89348
 -13576301.78449 -10578939.81148         0.00041  20539472.42148  20539470.10949
 94 02 22 00 04 00.0000000  0  6 02 07 15 19 26 27
  -6166299.92049  -4804908.97048         0.00041  20885075.68748  20885074.06049
  -6322826.06448  -4926874.08446         0.00041  21017761.84946  21017759.92248
        -0.11058         0.50054         0.00051  23931358.65854  23931353.44458
     91482.85548     71276.39046         0.00041  22423245.58446  22423241.18548
  -8024685.77848  -6253000.05346         0.00041  22918376.14946  22918373.75248
 -13538780.50249 -10549702.47648         0.00041  20546612.28848  20546610.53049
 94 02 22 00 04 30.0000000  0  6 02 07 15 19 26 27
  -6170016.28349  -4807804.83048         0.00041  20884368.59548  20884366.83949
  -6381860.57548  -4972874.96346         0.00041  21006527.71146  21006525.58448
    -32528.55847    -25346.25244         0.00041  23925154.60944  23925158.39847
    163476.83848    127375.50546         0.00041  22436946.43346  22436941.72348
  -8077737.81048  -6294339.30346         0.00041  22908280.02646  22908278.10348
 -13500820.55149 -10520123.30948         0.00041  20553835.72348  20553834.20749
 94 02 22 00 05 00.0000000  0  6 02 07 15 19 26 27
  -6173541.58849  -4810551.83048         0.00041  20883697.89148  20883696.29549
  -6440443.98248  -5018524.32547         0.00041  20995379.92047  20995377.23048
    -64601.16047    -50337.60944         0.00041  23919049.85044  23919054.39847
    235749.06448    183691.43946         0.00041  22450699.02546  22450695.03848
  -8130322.71048  -6335314.53546         0.00041  22898273.93446  22898271.69448
 -13462425.90849 -10490205.42548         0.00041  20561142.05548  20561140.05449
 94 02 22 00 05 30.0000000  0  6 02 07 15 19 26 27
  -6176880.86849  -4813153.87448         0.00041  20883062.24748  20883060.80449
  -6498595.62048  -5063837.25047         0.00041  20984314.11447  20984311.30948
    -96239.98748    -74991.57744         0.00041  23913046.09344  23913039.05948
    308272.63348    240203.21946         0.00041  22464500.30346  22464495.61948
  -8182462.71848  -6375943.10546         0.00041  22888352.09146  22888349.95748
 -13423621.08949 -10459967.93748         0.00041  20568526.68348  20568524.30349
 94 02 22 00 06 00.0000000  0  6 02 07 15 19 26 27
  -6180010.87349  -4815592.85348         0.00041  20882466.96848  20882465.24749
  -6556318.76348  -5108816.27447         0.00041  20973330.17747  20973327.11948
   -127434.64848    -99298.94844         0.00041  23907100.60044  23907101.68248
    381050.58448    296913.22446         0.00041  22478349.76946  22478344.38648
  -8234140.62948  -6416211.60346         0.00041  22878518.41346  22878516.58848
 -13384411.71149 -10429415.20648         0.00041  20575988.03248  20575986.37849
 94 02 22 00 06 30.0000000  0  6 02 07 15 19 26 27
  -6182920.27049  -4817859.92348         0.00041  20881913.30048  20881911.43749
  -6613617.69548  -5153464.75847         0.00041  20962426.51247  20962423.47848
   -158178.02448   -123254.78844         0.00041  23901247.54344  23901249.89048
    454091.89248    353828.43546         0.00041  22492248.57346  22492243.43748
  -8285345.60248  -6456111.59546         0.00041  22868773.85346  22868772.57848
 -13344807.07149 -10398554.48948         0.00041  20583524.32848  20583522.97649
 94 02 22 00 07 00.0000000  0  6 02 07 15 19 26 27
  -6185606.38649  -4819953.00248         0.00041  20881402.22648  20881400.06349
  -6670469.83548  -5197765.09447         0.00041  20951607.48347  20951604.57448
   -188455.32347   -146847.39444         0.00041  23895491.89444  23895486.40047
    527417.70248    410965.33346         0.00041  22506201.51546  22506196.69048
  -8336064.58548  -6495632.87446         0.00041  22859122.86446  22859120.46848
 -13304786.95649 -10367370.02148         0.00041  20591139.68648  20591138.36549
 94 02 22 00 07 30.0000000  0  6 02 07 15 19 26 27
  -6188077.11549  -4821878.25148         0.00041  20880931.86048  20880929.68749
  -6726851.11849  -5241698.51847         0.00041  20940878.35047  20940875.38049
   -218255.97947   -170068.53744         0.00041  23889816.88444  23889815.04247
    601045.35248    468337.44046         0.00041  22520212.28246  22520207.58648
  -8386293.55448  -6534772.34846         0.00041  22849564.26946  22849562.04048
 -13264328.93149 -10335844.32448         0.00041  20598838.75948  20598837.54649
 94 02 22 00 08 00.0000000  0  6 02 07 15 19 26 27
  -6190367.19349  -4823662.72848         0.00041  20880496.22248  20880494.01149
  -6782788.44549  -5285285.99847         0.00041  20930233.89347  20930231.22449
   -247596.18848   -192931.07744         0.00041  23884235.59944  23884232.61248
    674953.96748    525928.45646         0.00041  22534277.50746  22534272.68448
  -8436045.58348  -6573540.17646         0.00041  22840096.80746  22840094.95548
 -13223448.42549 -10303989.42748         0.00041  20606618.32348  20606616.56349
 94 02 22 00 08 30.0000000  0  6 02 07 15 19 26 27
  -6192485.63249  -4825313.44648         0.00041  20880093.16248  20880091.20849
  -6838269.69449  -5328518.10147         0.00041  20919676.28547  20919673.58349
   -276476.40348   -215435.09044         0.00041  23878740.28044  23878738.98648
    749143.57448    583738.44046         0.00041  22548395.34246  22548390.62548
  -8485330.19048  -6611943.76946         0.00041  22830717.83046  22830716.58548
 -13182130.96849 -10271794.04748         0.00041  20614480.77348  20614478.90049
 94 02 22 00 09 00.0000000  0  6 02 07 15 19 26 27
  -6194424.00049  -4826823.85948         0.00041  20879724.67748  20879722.67049
  -6893273.57849  -5371378.23547         0.00041  20909209.35447  20909206.37949
   -304875.13148   -237564.08144         0.00041  23873336.71644  23873333.20448
    823625.51548    641776.21246         0.00041  22562569.24246  22562564.35448
  -8534127.19048  -6649967.40446         0.00041  22821432.36146  22821430.99448
 -13140351.79449 -10239238.89248         0.00041  20622431.20448  20622429.24449
 94 02 22 00 09 30.0000000  0  6 02 07 15 19 26 27
  -6196191.50149  -4828201.13948         0.00041  20879388.56248  20879386.17949
  -6947814.50449  -5413877.63447         0.00041  20898829.84247  20898827.52149
   -332796.78048   -259321.17944         0.00041  23868025.90144  23868019.29148
    898376.53748    700023.64246         0.00041  22576793.87946  22576789.66348
  -8582431.07448  -6687606.77446         0.00041  22812240.33646  22812238.47848
 -13098131.63749 -10206340.11648         0.00041  20630465.75048  20630463.61749
 94 02 22 00 10 00.0000000  0  6 02 07 15 19 26 27
  -6197786.44849  -4829443.94948         0.00041  20879084.95748  20879082.62549
  -7001882.78749  -5456008.72847         0.00041  20888541.31147  20888538.90249
   -360240.07448   -280705.54644         0.00041  23862802.72744  23862799.34848
    973387.10448    758473.32846         0.00041  22591068.01846  22591064.30748
  -8630225.33948  -6724849.06346         0.00041  22803145.76346  22803143.01248
 -13055478.03649 -10173103.58848         0.00041  20638582.75948  20638580.16749
 94 02 22 00 10 30.0000000  0  6 02 07 15 19 26 27
  -6199202.52049  -4830547.37648         0.00041  20878815.42548  20878812.82549
  -7055456.70849  -5497754.60647         0.00041  20878346.50347  20878344.16249
   -387201.98448   -301714.77945         0.00041  23857672.20045  23857668.50048
   1048654.28648    817122.96746         0.00041  22605389.84146  22605386.96148
  -8677512.32548  -6761696.08746         0.00041  22794147.37346  22794143.50848
 -13012392.62149 -10139530.58048         0.00041  20646781.83848  20646779.13449
 94 02 22 00 11 00.0000000  0  6 02 07 15 19 26 27
  -6200458.65349  -4831526.17348         0.00041  20878576.53148  20878573.41849
  -7108557.28949  -5539131.65447         0.00041  20868241.90547  20868239.00249
   -413699.47848   -322362.16244         0.00041  23852630.02544  23852624.16248
   1124159.08448    875957.76146         0.00041  22619758.57346  22619755.80448
  -8724302.63748  -6798156.09446         0.00041  22785243.79646  22785240.24448
 -12968902.06649 -10105641.88348         0.00041  20655057.65948  20655055.37149
 94 02 22 00 11 30.0000000  0  6 02 07 15 19 26 27
  -6201550.11349  -4832376.64448         0.00041  20878368.69148  20878365.58349
  -7161175.88549  -5580133.11847         0.00041  20858228.59247  20858226.05349
   -439734.86948   -342649.40045         0.00041  23847672.23645  23847668.61748
   1199903.38748    934979.16746         0.00041  22634171.99946  22634169.76248
  -8770599.93748  -6834231.93646         0.00041  22776433.29546  22776430.66048
 -12925011.41249 -10071441.41248         0.00041  20663409.87548  20663407.42849
 94 02 22 00 12 00.0000000  0  6 02 07 15 19 26 27
  -6202487.11349  -4833106.75648         0.00041  20878189.94548  20878187.85049
  -7213326.38949  -5620769.82947         0.00041  20848304.87047  20848302.20749
   -465318.42948   -362584.56345         0.00041  23842802.28245  23842801.56348
   1275881.14948    994182.50046         0.00041  22648629.79446  22648627.82948
  -8816442.70648  -6869953.59346         0.00041  22767709.78346  22767706.57348
 -12880732.79549 -10036938.63148         0.00041  20671835.65348  20671832.99349
 94 02 22 00 12 30.0000000  0  6 02 07 15 19 26 27
  -6203257.73349  -4833707.24848         0.00041  20878043.34648  20878041.90649
  -7265015.92149  -5661047.34047         0.00041  20838468.17947  20838465.95749
   -490437.43148   -382157.67145         0.00041  23838029.74145  23838023.03048
   1352115.96048   1053586.11946         0.00041  22663136.69246  22663134.61748
  -8861841.57648  -6905329.35246         0.00041  22759070.28146  22759067.71748
 -12836057.04749 -10002126.39848         0.00041  20680336.97148  20680334.65049
 94 02 22 00 13 00.0000000  0  6 02 07 15 19 26 27
  -6203844.03349  -4834164.12348         0.00041  20877931.89848  20877930.36749
  -7316244.16949  -5700965.42148         0.00041  20828719.97848  20828717.65849
   -515071.60148   -401353.02845         0.00041  23833338.48045  23833332.71248
   1428640.91748   1113215.83346         0.00041  22677699.88946  22677696.68848
  -8906772.19648  -6940340.22546         0.00041  22750520.24446  22750518.20748
 -12790972.24949  -9966995.42548         0.00041  20688916.10948  20688914.12549
 94 02 22 00 13 30.0000000  0  6 02 07 15 19 26 27
  -6204239.22649  -4834472.08648         0.00041  20877856.89948  20877854.85449
  -7367012.98349  -5740525.49648         0.00041  20819058.97548  20819056.84849
   -539218.47748   -420168.70244         0.00041  23828747.81744  23828736.33748
   1505455.54648   1173071.27146         0.00041  22692317.16246  22692314.04948
  -8951242.98348  -6974992.78646         0.00041  22742057.37946  22742055.59548
 -12745481.37749  -9931548.03748         0.00041  20697572.77748  20697570.35349
 94 02 22 00 14 00.0000000  0  6 02 07 15 19 26 27
  -6204458.51549  -4834642.99048         0.00041  20877814.98948  20877813.01349
  -7417347.23349  -5779746.95048         0.00041  20809480.74448  20809478.65749
   -562884.20448   -438609.39844         0.00041  23824237.15844  23824233.63948
   1582547.77448   1233142.99846         0.00041  22706988.27746  22706983.74848
  -8995258.79248  -7009290.79946         0.00041  22733681.91646  22733679.66648
 -12699580.21349  -9895780.93948         0.00041  20706307.76448  20706305.14149
 94 02 22 00 14 30.0000000  0  6 02 07 15 19 26 27
  -6204490.09249  -4834667.64048         0.00041  20877809.13748  20877807.04049
  -7467232.26149  -5818618.36448         0.00041  20799987.76948  20799985.67049
   -586057.50848   -456666.36544         0.00041  23819825.91044  23819822.99348
   1659923.83848   1293435.88946         0.00041  22721712.15646  22721707.71248
  -9038785.48948  -7043207.70146         0.00041  22725399.59746  22725396.78048
 -12653245.34449  -9859675.89248         0.00041  20715124.97748  20715122.81249
 94 02 22 00 15 00.0000000  0  6 02 07 15 19 26 27
  -6204328.22949  -4834541.57248         0.00041  20877840.42848  20877838.00149
  -7516667.30149  -5857139.13748         0.00041  20790580.64448  20790578.46149
   -608739.59548   -474340.57344         0.00041  23815505.54444  23815505.30148
   1737571.48748   1353940.39946         0.00041  22736488.21746  22736484.21848
  -9081806.93448  -7076730.91346         0.00041  22717213.35446  22717209.34748
 -12606483.07249  -9823237.81248         0.00041  20724023.33748  20724021.59649
 94 02 22 00 15 30.0000000  0  6 02 07 15 19 26 27
  -6203960.53849  -4834255.12248         0.00041  20877910.82748  20877907.70349
  -7565626.53349  -5895289.15448         0.00041  20781264.22048  20781261.80949
   -630916.07848   -491620.89444         0.00041  23811291.56044  23811286.70748
   1815483.96448   1414651.25746         0.00041  22751314.87046  22751310.48348
  -9124316.43348  -7109855.20246         0.00041  22709123.00146  22709120.19848
 -12559270.71349  -9786449.02148         0.00041  20733007.65248  20733005.49049
 94 02 22 00 16 00.0000000  0  6 02 07 15 19 26 27
  -6203408.51849  -4833825.03248         0.00041  20878015.96348  20878012.60449
  -7614109.36949  -5933067.94648         0.00041  20772037.92248  20772035.65249
   -652598.25948   -508515.98644         0.00041  23807164.62944  23807160.92348
   1893649.40248   1475559.23346         0.00041  22766188.35646  22766185.08948
  -9166323.83848  -7142588.24746         0.00041  22701128.56446  22701126.75548
 -12511621.17949  -9749319.57648         0.00041  20742074.64948  20742072.62049
 94 02 22 00 16 30.0000000  0  6 02 07 15 19 26 27
  -6202669.88849  -4833249.52348         0.00041  20878156.48248  20878152.85049
  -7662105.37449  -5970467.38948         0.00041  20762904.76348  20762902.67849
   -673786.49148   -525026.24944         0.00041  23803131.47844  23803127.50448
   1972072.77548   1536668.19746         0.00041  22781112.38746  22781109.03548
  -9207828.69448  -7174929.69246         0.00041  22693231.12446  22693229.26348
 -12463553.27749  -9711864.13748         0.00041  20751221.81948  20751220.06649
 94 02 22 00 17 00.0000000  0  6 02 07 15 19 26 27
  -6201756.06849  -4832537.48848         0.00041  20878329.73648  20878326.45949
  -7709609.72049  -6007483.73148         0.00041  20753864.80048  20753862.58049
   -694482.04748   -541152.54144         0.00041  23799197.66844  23799189.19248
   2050752.82848   1597977.18346         0.00041  22796085.60046  22796081.74048
  -9248838.38848  -7206885.30446         0.00041  22685427.44346  22685425.03348
 -12415076.17849  -9674089.84148         0.00041  20760446.85048  20760445.30549
 94 02 22 00 17 30.0000000  0  6 02 07 15 19 26 27
  -6200669.52249  -4831690.85948         0.00041  20878536.60748  20878533.97649
  -7756592.40449  -6044093.57548         0.00041  20744924.29848  20744922.00849
   -714667.92448   -556881.74844         0.00041  23795353.66744  23795347.93348
   2129701.64548   1659495.56346         0.00041  22811109.29946  22811105.65648
  -9289337.86348  -7238443.35446         0.00041  22677720.71746  22677717.54448
 -12366166.60649  -9635978.56048         0.00041  20769754.16348  20769752.65049
 94 02 22 00 18 00.0000000  0  6 02 07 15 19 26 27
  -6199410.20449  -4830709.60748         0.00041  20878776.25348  20878773.70949
  -7803058.65549  -6080301.00648         0.00041  20736082.23348  20736079.81549
   -734341.03148   -572211.46144         0.00041  23791612.44544  23791604.48148
   2208933.33348   1721234.36446         0.00041  22826186.58046  22826182.90948
  -9329310.74448  -7269591.07946         0.00041  22670114.62046  22670110.12848
 -12316830.63149  -9597535.03248         0.00041  20779142.52848  20779140.83649
 94 02 22 00 18 30.0000000  0  6 02 07 15 19 26 27
  -6197978.52249  -4829594.03648         0.00041  20879048.67448  20879046.20049
  -7849020.77249  -6116115.62348         0.00041  20727335.99148  20727333.58549
   -753506.32548   -587145.49745         0.00041  23787963.48545  23787958.63448
   2288430.89648   1783180.35246         0.00041  22841313.93946  22841310.57848
  -9368753.17448  -7300325.47046         0.00041  22662608.97746  22662604.42648
 -12267075.20949  -9558764.66448         0.00041  20788610.76148  20788609.24549
 94 02 22 00 19 00.0000000  0  6 02 07 15 19 26 27
  -6196397.39149  -4828361.99748         0.00041  20879349.47248  20879346.94449
  -7894500.48949  -6151554.34748         0.00041  20718681.55948  20718679.12049
   -772185.09248   -601700.35545         0.00041  23784409.05245  23784405.34348
   2368156.60448   1845304.11146         0.00041  22856484.54446  22856482.35048
  -9407696.68048  -7330671.09946         0.00041  22655197.58746  22655193.04948
 -12216910.18849  -9519675.13348         0.00041  20798157.39048  20798155.60249
 94 02 22 00 19 30.0000000  0  6 02 07 15 19 26 27
  -6194667.78449  -4827014.26548         0.00041  20879678.71948  20879676.25649
  -7939519.26849  -6186633.88648         0.00041  20710114.41148  20710112.08149
   -790384.35048   -615881.59345         0.00041  23780946.99545  23780942.22848
   2448099.83648   1907597.34646         0.00041  22871698.38946  22871695.62048
  -9446151.13048  -7360635.63146         0.00041  22647880.83046  22647875.91548
 -12166351.52749  -9480278.87148         0.00041  20807778.34248  20807776.18049
 94 02 22 00 20 00.0000000  0  6 02 07 15 19 26 27
  -6192771.00549  -4825536.28148         0.00041  20880039.71248  20880037.17049
  -7984089.53749  -6221363.93648         0.00041  20701633.18048  20701630.82649
   -808098.67448   -629684.96145         0.00041  23777577.20745  23777572.40748
   2528269.38248   1970066.93446         0.00041  22886952.56246  22886951.54348
  -9484119.17348  -7390221.15946         0.00041  22640654.74946  22640652.08248
 -12115394.99049  -9440572.57648         0.00041  20817475.22148  20817473.11249
 94 02 22 00 20 30.0000000  0  6 02 07 15 19 26 27
  -6190684.94249  -4823910.82048         0.00041  20880436.72748  20880433.59849
  -8028180.43149  -6255720.43748         0.00041  20693242.97748  20693240.66149
   -825300.72348   -643089.19546         0.00041  23774304.42646  23774298.34948
   2608678.37848   2032723.09146         0.00041  22902254.52346  22902252.99048
  -9521588.51348  -7419418.05846         0.00041  22633525.70346  22633522.69048
 -12064002.10349  -9400526.26448         0.00041  20827255.33548  20827253.06649
 94 02 22 00 21 00.0000000  0  6 02 07 15 19 26 27
  -6188422.16649  -4822147.61648         0.00041  20880867.42248  20880863.57749
  -8071808.14949  -6289716.03148         0.00041  20684940.88648  20684938.51249
   -841994.54348   -656097.39145         0.00041  23771124.61045  23771121.74748
   2689323.52348   2095563.25546         0.00041  22917600.44046  22917599.74648
  -9558569.16048  -7448234.15646         0.00041  22626487.80046  22626485.56448
 -12012174.61149  -9360141.29748         0.00041  20837117.62948  20837115.44749
 94 02 22 00 21 30.0000000  0  6 02 07 15 19 26 27
  -6185972.76149  -4820239.02648         0.00041  20881333.56648  20881329.73049
  -8114959.70049  -6323340.60748         0.00041  20676729.43648  20676726.96249
   -858170.87148   -668702.27545         0.00041  23768046.82745  23768044.72548
   2770219.72648   2158599.09746         0.00041  22932995.21546  22932993.45048
  -9595046.63648  -7476658.17546         0.00041  22619547.00046  22619544.13748
 -11959912.06649  -9319417.32748         0.00041  20847062.59448  20847061.02249
 94 02 22 00 22 00.0000000  0  6 02 07 15 19 26 27
  -6183339.77449  -4818187.38048         0.00041  20881834.61248  20881831.49749
  -8157614.11349  -6356577.80448         0.00041  20668612.30648  20668609.58249
   -873825.52748   -680900.66145         0.00041  23765067.19545  23765065.88248
   2851361.61348   2221826.35846         0.00041  22948435.31246  22948433.35448
  -9631020.27148  -7504689.58646         0.00041  22612701.59846  22612698.67948
 -11907205.27849  -9278347.18848         0.00041  20857092.48748  20857091.00149
 94 02 22 00 22 30.0000000  0  6 02 07 15 19 26 27
  -6180515.77549  -4815986.90448         0.00041  20882371.88748  20882369.61049
  -8199736.05949  -6389400.08948         0.00041  20660596.87848  20660594.16149
   -888934.53648   -692673.86445         0.00041  23762195.31745  23762187.15948
   2932767.70648   2285259.47645         0.00041  22963927.34445  22963923.89748
  -9666462.50048  -7532306.93146         0.00041  22605956.75546  22605954.16148
 -11854050.25149  -9236927.77847         0.00041  20867206.98547  20867205.43949
 94 02 22 00 23 00.0000000  0  6 02 07 15 19 26 27
  -6177494.24949  -4813632.51548         0.00041  20882946.64048  20882944.57749
  -8241321.30449  -6421804.16648         0.00041  20652683.46348  20652680.69249
   -903498.14548   -704022.07445         0.00041  23759419.81645  23759413.76048
   3014454.59948   2348911.41345         0.00041  22979473.66745  22979467.99948
  -9701367.54948  -7559505.69146         0.00041  22599314.28346  22599311.60148
 -11800469.18249  -9195176.38447         0.00041  20877403.06847  20877401.87049
 94 02 22 00 23 30.0000000  0  6 02 07 15 19 26 27
  -6174266.61049  -4811117.50948         0.00041  20883560.86448  20883558.56549
  -8282347.90449  -6453772.93848         0.00041  20644876.18148  20644873.32849
   -917513.34848   -714942.96045         0.00041  23756754.36045  23756749.50148
   3096445.08348   2412799.92145         0.00041  22995076.77745  22995070.88848
  -9735732.27248  -7586283.42246         0.00041  22592774.23846  22592770.90248
 -11746459.25149  -9153090.80147         0.00041  20887681.81747  20887680.00849
 94 02 22 00 24 00.0000000  0  6 02 07 15 19 26 27
  -6170867.86449  -4808469.16148         0.00041  20884207.95048  20884205.62149
  -8322861.61949  -6485342.05548         0.00041  20637166.59848  20637163.95349
   -931009.61148   -725459.44945         0.00041  23754182.41145  23754182.25548
   3178712.09948   2476903.90445         0.00041  23010730.84345  23010724.92148
  -9769579.22348  -7612657.69646         0.00041  22586333.71046  22586330.19848
 -11692054.54949  -9110697.59547         0.00041  20898035.08047  20898032.72649
 94 02 22 00 24 30.0000000  0  6 02 07 15 19 26 27
  -6167297.38349  -4805687.00148         0.00041  20884887.27248  20884884.99649
  -8362892.52249  -6516534.95648         0.00041  20629548.86848  20629546.60749
   -943993.19448   -735576.48944         0.00041  23751717.91344  23751710.91848
   3261262.53348   2541228.77145         0.00041  23026440.26745  23026433.95948
  -9802907.27048  -7638627.61846         0.00041  22579991.46046  22579988.71048
 -11637259.24649  -9068000.01047         0.00041  20908462.40647  20908460.00149
 94 02 22 00 25 00.0000000  0  6 02 07 15 19 26 27
  -6163545.45449  -4802763.45148         0.00041  20885601.11948  20885599.17149
  -8402457.29449  -6547364.64248         0.00041  20622020.03848  20622017.87749
   -956466.33748   -745295.73044         0.00041  23749341.93444  23749337.33948
   3344087.01148   2605767.16245         0.00041  23042201.28645  23042196.46048
  -9835719.88648  -7664195.93346         0.00041  22573747.70746  22573744.69448
 -11582049.43849  -9024979.42947         0.00041  20918968.59647  20918966.20549
 94 02 22 00 25 30.0000000  0  6 02 07 15 19 26 27
  -6159632.64849  -4799714.55448         0.00041  20886345.45448  20886343.85549
  -8441595.59949  -6577862.01648         0.00041  20614572.40348  20614569.96249
   -968443.96648   -754628.90845         0.00041  23747062.53045  23747059.62548
   3427141.79048   2670485.00445         0.00041  23058007.14045  23058003.39048
  -9868023.43148  -7689367.55046         0.00041  22567600.69446  22567597.45548
 -11526428.78149  -8981638.69847         0.00041  20929553.04847  20929550.51449
 94 02 22 00 26 00.0000000  0  6 02 07 15 19 26 27
  -6155556.41649  -4796538.31648         0.00041  20887120.96048  20887119.20149
  -8480315.14049  -6608033.07848         0.00041  20607204.36848  20607201.76149
   -979915.44848   -763567.68945         0.00041  23744878.92145  23744876.88548
   3510408.66248   2735368.11246         0.00041  23073853.31346  23073848.27948
  -9899806.00748  -7714133.22346         0.00041  22561552.88346  22561549.79548
 -11470392.83949  -8937974.37147         0.00041  20940216.11247  20940213.48249
 94 02 22 00 26 30.0000000  0  6 02 07 15 19 26 27
  -6151302.56449  -4793223.64348         0.00041  20887930.84448  20887928.32949
  -8518587.19349  -6637855.44748         0.00041  20599921.57248  20599918.91649
   -990868.94148   -772102.81344         0.00041  23742795.65644  23742788.56248
   3593887.97048   2800416.74245         0.00041  23089735.79445  23089731.74048
  -9931063.90948  -7738490.06146         0.00041  22555605.00246  22555602.35748
 -11413928.37849  -8893976.13547         0.00041  20950960.86447  20950958.48949
 94 02 22 00 27 00.0000000  0  6 02 07 15 19 26 27
  -6146888.17249  -4789783.83948         0.00041  20888771.26248  20888768.12449
  -8556388.65249  -6667311.11648         0.00041  20592727.91148  20592725.33549
  -1001306.80648   -780236.24244         0.00041  23740809.22344  23740802.04948
   3677564.99648   2865619.48745         0.00041  23105659.97345  23105653.94548
  -9961806.64848  -7762445.49946         0.00041  22549754.82046  22549752.38348
 -11357042.11949  -8849649.22247         0.00041  20961785.73447  20961783.74849
 94 02 22 00 27 30.0000000  0  6 02 07 15 19 26 27
  -6142312.29749  -4786218.20648         0.00041  20889642.18148  20889638.92549
  -8593685.61549  -6696373.67948         0.00041  20585630.86748  20585628.09449
  -1011211.10048   -787953.81245         0.00041  23738923.79745  23738921.08648
   3761466.80648   2930997.33945         0.00041  23121626.09645  23121620.47048
  -9992019.01648  -7785987.67746         0.00041  22544006.27446  22544002.43948
 -11299735.14549  -8804994.47747         0.00041  20972691.36347  20972688.86849
 94 02 22 00 28 00.0000000  0  6 02 07 15 19 26 27
  -6137589.60249  -4782538.17848         0.00041  20890540.33548  20890538.07449
  -8630448.84449  -6725020.34448         0.00041  20578635.06648  20578632.42849
  -1020582.73248   -795256.31745         0.00041  23737142.39845  23737140.45748
   3845603.75848   2996558.47444         0.00041  23137635.71644  23137632.66548
 -10021719.41748  -7809130.91446         0.00041  22538354.46046  22538350.66048
 -11242009.44349  -8760013.44947         0.00041  20983676.24547  20983673.16849
 94 02 22 00 28 30.0000000  0  6 02 07 15 19 26 27
  -6132719.41049  -4778743.23548         0.00041  20891467.15148  20891465.53949
  -8666674.52849  -6753248.15248         0.00041  20571741.38048  20571738.95249
  -1029427.96348   -802148.65244         0.00041  23735457.94744  23735454.90248
   3929978.34548   3062304.77944         0.00041  23153692.77944  23153688.72448
 -10050920.03848  -7831884.70446         0.00041  22532797.34146  22532794.85348
 -11183869.12349  -8714709.34247         0.00041  20994740.19647  20994736.81649
 94 02 22 00 29 00.0000000  0  6 02 07 15 19 26 27
  -6127700.41249  -4774832.36848         0.00041  20892422.07848  20892420.34949
  -8702362.96849  -6781057.32648         0.00041  20564949.85548  20564947.57549
  -1037739.91148   -808625.53344         0.00041  23733876.19744  23733870.53848
   4014601.12648   3128244.47544         0.00041  23169797.03444  23169791.62648
 -10079612.15648  -7854242.23946         0.00041  22527337.09646  22527335.55448
 -11125317.29749  -8669084.58147         0.00041  21005882.45947  21005879.63449
 94 02 22 00 29 30.0000000  0  6 02 07 15 19 26 27
  -6122500.01449  -4770780.15348         0.00041  20893411.74548  20893409.44049
  -8737513.72249  -6808447.51948         0.00041  20558260.98948  20558258.47549
  -1045501.91148   -814673.73445         0.00041  23732401.50845  23732397.74548
   4099493.89148   3194394.50844         0.00041  23185943.75844  23185945.06948
 -10107769.24748  -7876182.87546         0.00041  22521978.19046  22521977.49048
 -11066346.17449  -8623133.10647         0.00041  21017103.80747  21017102.10749
 94 02 22 00 30 00.0000000  0  6 02 07 15 19 26 27
  -6117118.58949  -4766586.88748         0.00041  20894436.03648  20894432.99449
  -8772151.25749  -6835437.80048         0.00041  20551669.52648  20551666.78649
  -1052730.12848   -820306.05045         0.00041  23731027.13845  23731020.03048
   4184642.16448   3260743.73044         0.00041  23202153.61344  23202147.84848
 -10135398.14648  -7897711.91446         0.00041  22516720.38246  22516720.36548
 -11006977.46449  -8576871.82647         0.00041  21028400.92747  21028399.56749
 94 02 22 00 30 30.0000000  0  6 02 07 15 19 26 27
  -6111549.86649  -4762247.66648         0.00041  20895496.55548  20895492.42849
  -8806289.92449  -6862039.34948         0.00041  20545173.46848  20545170.74049
  -1059425.80748   -825523.46945         0.00041  23729749.89845  23729742.69748
   4270052.23448   3327296.81144         0.00041  23218402.29944  23218404.03248
 -10162490.42648  -7918822.80346         0.00041  22511564.66346  22511565.02248
 -10947223.56949  -8530310.40947         0.00041  21039771.53247  21039769.94149
 94 02 22 00 31 00.0000000  0  6 02 07 15 19 26 27
  -6105817.58249  -4757781.02048         0.00041  20896587.39548  20896583.40249
  -8839944.92749  -6888264.01348         0.00041  20538769.33348  20538766.54649
  -1065595.24848   -830330.73644         0.00041  23728577.60644  23728572.36548
   4355720.64348   3394051.28444         0.00041  23234709.57244  23234705.52148
 -10189046.56849  -7939515.91146         0.00041  22506510.98546  22506511.57449
 -10887089.52949  -8483452.77347         0.00041  21051214.85147  21051212.82949
 94 02 22 00 31 30.0000000  0  6 02 07 15 19 26 27
  -6099922.66749  -4753187.65548         0.00041  20897709.16848  20897705.74549
  -8873120.17649  -6914114.84148         0.00041  20532456.35548  20532453.73849
  -1071237.63048   -834727.35645         0.00041  23727501.47445  23727496.77348
   4441648.33548   3461007.73744         0.00041  23251061.03044  23251057.67148
 -10215065.59148  -7959790.50346         0.00041  22501560.78846  22501560.32148
 -10826562.72549  -8436289.08847         0.00041  21062732.79147  21062730.80449
 94 02 22 00 32 00.0000000  0  6 02 07 15 19 26 27
  -6093887.14549  -4748484.68348         0.00041  20898857.35648  20898854.47649
  -8905825.91549  -6939599.81948         0.00041  20526232.70048  20526230.10249
  -1076365.00848   -838722.72045         0.00041  23726523.15145  23726516.03948
   4527804.58548   3528142.33644         0.00041  23267453.22544  23267452.30348
 -10240575.31348  -7979668.24346         0.00041  22496706.97146  22496705.71648
 -10765651.52649  -8388825.87347         0.00041  21074324.14347  21074321.73149
 94 02 22 00 32 30.0000000  0  6 02 07 15 19 26 27
  -6087709.38749  -4743670.86948         0.00041  20900032.83148  20900030.45949
  -8938056.83149  -6964714.79948         0.00041  20520099.29648  20520096.68549
  -1080972.96848   -842313.30844         0.00041  23725653.56244  23725642.88848
   4614161.50948   3595433.22644         0.00041  23283887.23244  23283886.84048
 -10265581.48748  -7999153.62846         0.00041  22491948.71846  22491946.50548
 -10704340.07949  -8341050.77647         0.00041  21085991.16947  21085989.09349
 94 02 22 00 33 00.0000000  0  6 02 07 15 19 26 27
  -6081373.58449  -4738733.94848         0.00041  20901238.66848  20901236.01249
  -8969804.77649  -6989453.43448         0.00041  20514057.71848  20514055.24049
  -1085051.04648   -845490.86044         0.00041  23724871.97344  23724869.15348
   4700708.85048   3662872.61144         0.00041  23300360.35744  23300355.54648
 -10290082.72448  -8018245.56446         0.00041  22487285.11746  22487283.19948
 -10642607.13449  -8292947.24647         0.00041  21097738.87047  21097736.57049
 94 02 22 00 33 30.0000000  0  6 02 07 15 19 26 27
  -6074848.12649  -4733649.21948         0.00041  20902480.38648  20902477.57949
  -9001050.36349  -7013800.62348         0.00041  20508111.58348  20508109.28149
  -1088583.70548   -848243.47945         0.00041  23724197.40245  23724193.29448
   4787452.95048   3730465.20744         0.00041  23316871.97044  23316863.61448
 -10314065.34548  -8036933.36846         0.00041  22482721.37546  22482718.90148
 -10580439.24149  -8244504.79247         0.00041  21109568.43547  21109566.47849
 94 02 22 00 34 00.0000000  0  6 02 07 15 19 26 27
  -6068123.93649  -4728409.63248         0.00041  20903760.10048  20903756.66649
  -9031788.07149  -7037752.06548         0.00041  20502262.34648  20502259.89549
  -1091568.05247   -850568.84744         0.00041  23723635.18344  23723623.41947
   4874396.39848   3798213.17744         0.00041  23333411.01444  23333406.88248
 -10337521.59648  -8055210.98746         0.00041  22478257.47146  22478255.92748
 -10517847.48948  -8195732.06447         0.00041  21121479.18747  21121476.92948
 94 02 22 00 34 30.0000000  0  6 02 07 15 19 26 27
  -6061194.95449  -4723010.43648         0.00041  20905079.03348  20905075.43049
  -9062007.64649  -7061299.75748         0.00041  20496511.76848  20496509.12449
  -1093987.27748   -852453.92944         0.00041  23723172.37144  23723167.14648
   4961582.43048   3866150.15144         0.00041  23350008.37844  23349998.93848
 -10360423.73448  -8073056.81546         0.00041  22473900.23246  22473897.91048
 -10454815.13948  -8146616.01347         0.00041  21133474.34947  21133472.03248
 94 02 22 00 35 00.0000000  0  6 02 07 15 19 26 27
  -6054066.55649  -4717455.85848         0.00041  20906435.15048  20906432.44049
  -9091712.21549  -7084446.14748         0.00041  20490859.25548  20490856.57149
  -1095841.01248   -853898.25244         0.00041  23722817.02244  23722814.00148
   5049050.84848   3934307.18744         0.00041  23366651.37744  23366643.88448
 -10382760.71248  -8090462.28446         0.00041  22469650.00446  22469647.08148
 -10391349.50248  -8097162.34247         0.00041  21145552.06647  21145549.19048
 94 02 22 00 35 30.0000000  0  6 02 07 15 19 26 27
  -6046760.05949  -4711762.52548         0.00041  20907824.88548  20907822.96349
  -9120903.53349  -7107192.59848         0.00041  20485304.52048  20485301.72349
  -1097142.93047   -854912.64044         0.00041  23722568.90844  23722560.92447
   5136801.71848   4002684.28244         0.00041  23383349.79544  23383343.75748
 -10404528.38548  -8107424.15946         0.00041  22465508.56846  22465504.18948
 -10327487.75548  -8047400.01847         0.00041  21157704.35947  21157701.79348
 94 02 22 00 36 00.0000000  0  6 02 07 15 19 26 27
  -6039291.17549  -4705942.67848         0.00041  20909245.78648  20909244.61049
  -9149592.25949  -7129547.42448         0.00041  20479845.13548  20479842.35249
  -1097901.04348   -855503.37444         0.00041  23722427.71744  23722423.02048
   5224820.98348   4071270.58544         0.00041  23400093.19144  23400092.13548
 -10425739.85148  -8123952.63746         0.00041  22461472.04246  22461468.24248
 -10263240.91348  -7997337.60347         0.00041  21169930.47047  21169927.85448
 94 02 22 00 36 30.0000000  0  6 02 07 15 19 26 27
  -6031684.03249  -4700015.10648         0.00041  20910693.55348  20910692.41949
  -9177794.09849  -7151522.85748         0.00041  20474478.46148  20474475.75449
  -1098129.84848   -855681.60244         0.00041  23722381.65144  23722382.62848
   5313082.31848   4140045.42644         0.00041  23416892.59944  23416888.54548
 -10446413.65848  -8140062.16046         0.00041  22457538.19746  22457534.82048
 -10198614.33748  -7946979.30147         0.00041  21182228.69947  21182225.17948
 94 02 22 00 37 00.0000000  0  6 02 07 15 19 26 27
  -6023950.82349  -4693989.29948         0.00041  20912165.88948  20912163.77749
  -9205530.33149  -7173135.47748         0.00041  20469200.06648  20469197.69849
  -1097852.64448   -855465.45544         0.00041  23722433.11244  23722433.87148
   5401536.68547   4208970.67544         0.00041  23433726.47344  23433719.33047
 -10466582.99148  -8155778.58646         0.00041  22453700.06746  22453696.70448
 -10133645.05748  -7896353.97046         0.00041  21194591.24946  21194587.62848
 94 02 22 00 37 30.0000000  0  6 02 07 15 19 26 27
  -6016085.71549  -4687860.71248         0.00041  20913662.76048  20913660.66449
  -9232800.87649  -7194385.22648         0.00041  20464010.75748  20464008.11049
  -1097060.11948   -854847.71044         0.00041  23722588.04844  23722583.93148
   5490161.30148   4278028.58444         0.00041  23450587.56244  23450585.19948
 -10486255.20648  -8171107.63046         0.00041  22449956.89546  22449953.45748
 -10068322.99148  -7845453.73246         0.00041  21207021.99046  21207018.39848
 94 02 22 00 38 00.0000000  0  6 02 07 15 19 26 27
  -6008065.58149  -4681611.32048         0.00041  20915189.29548  20915187.00049
  -9259598.33949  -7215266.33848         0.00041  20458911.39648  20458908.92049
  -1095724.05548   -853806.71344         0.00041  23722840.57644  23722837.56748
   5578969.86147   4347229.99944         0.00041  23467494.33944  23467484.74047
 -10505430.78948  -8186049.69646         0.00041  22446307.48646  22446304.60648
 -10002598.77648  -7794240.12746         0.00041  21219528.05046  21219524.87748
 94 02 22 00 38 30.0000000  0  6 02 07 15 19 26 27
  -5999897.30449  -4675246.49848         0.00041  20916743.72748  20916741.40849
  -9285926.82049  -7235782.01848         0.00041  20453901.19548  20453899.04149
  -1093855.12748   -852350.31044         0.00041  23723195.00844  23723192.73148
   5667947.16547   4416562.88844         0.00041  23484412.32244  23484416.88847
 -10524123.05848  -8200615.14446         0.00041  22442751.11246  22442747.89648
  -9936481.55348  -7742720.28446         0.00041  21232110.73346  21232107.47048
 94 02 22 00 39 00.0000000  0  6 02 07 15 19 26 27
  -5991537.77849  -4668732.65348         0.00041  20918334.34148  20918331.85849
  -9311737.24249  -7255894.01048         0.00041  20448989.31348  20448987.40849
  -1091412.68348   -850447.04944         0.00041  23723655.65544  23723654.83948
   5757133.61647   4486058.69844         0.00041  23501388.17244  23501388.32247
 -10542293.45648  -8214773.92646         0.00041  22439293.23746  22439290.04648
  -9869928.06548  -7690860.49446         0.00041  21244775.44746  21244772.89148
 94 02 22 00 39 30.0000000  0  6 02 07 15 19 26 27
  -5982985.02149  -4662068.23848         0.00041  20919962.07748  20919958.57849
  -9337023.40749  -7275597.50548         0.00041  20444177.42948  20444175.80949
  -1088394.46548   -848095.05644         0.00041  23724225.92444  23724229.25648
   5846533.61648   4555720.94544         0.00041  23518403.20344  23518402.43548
 -10559925.44648  -8228513.17946         0.00041  22435937.96846  22435935.07348
  -9802910.90348  -7638639.41446         0.00041  21257528.75646  21257526.31348
 94 02 22 00 40 00.0000000  0  6 02 07 15 19 26 27
  -5974234.71149  -4655249.86148         0.00041  20921627.03848  20921623.16049
  -9361769.74849  -7294880.36248         0.00041  20439468.62148  20439466.76449
  -1084802.34948   -845295.92244         0.00041  23724917.66944  23724914.49648
   5936155.04948   4625555.58344         0.00041  23535458.55844  23535456.32648
 -10577006.12948  -8241822.84846         0.00041  22432687.60446  22432684.48848
  -9735426.08748  -7586053.93746         0.00041  21270370.48146  21270368.30448
 94 02 22 00 40 30.0000000  0  6 02 07 15 19 26 27
  -5965280.36949  -4648272.47248         0.00041  20923330.96348  20923327.25049
  -9385963.14749  -7313732.35248         0.00041  20434864.54048  20434862.66349
  -1080631.63148   -842045.90544         0.00041  23725709.06244  23725708.34148
   6026019.49648   4695579.63944         0.00041  23552553.27144  23552557.82648
 -10593504.19848  -8254678.53746         0.00041  22429547.32546  22429545.30448
  -9667483.77148  -7533111.96246         0.00041  21283300.06646  21283297.53648
 94 02 22 00 41 00.0000000  0  7 02 07 13 15 19 26 27
  -5956133.71049  -4641145.21348         0.00041  20925071.48648  20925068.10249
  -9409619.06549  -7332165.52448         0.00041  20430362.88348  20430360.57949
        -0.11617        -0.45416  23388675.17217  23388681.14416         0.00011
  -1075884.69247   -838346.85144         0.00041  23726613.77844  23726608.82047
   6116138.01348   4765801.62844         0.00041  23569698.23444  23569706.08948
 -10609414.75148  -8267076.42346         0.00041  22426519.31946  22426517.61148
  -9599103.10548  -7479828.41746         0.00041  21296312.90946  21296310.01348
 94 02 22 00 41 30.0000000  0  7 02 07 13 15 19 26 27
  -5946838.20249  -4633901.97748         0.00041  20926840.53648  20926837.35649
  -9432791.68049  -7350222.09948         0.00041  20425953.25448  20425950.89049
   -112909.93507    -87981.84206  23367189.03407  23367194.53306         0.00001
  -1070607.61648   -834234.71744         0.00041  23727615.19944  23727614.20548
   6206472.59048   4836192.04844         0.00041  23586897.74144  23586895.48848
 -10624774.77848  -8279045.32146         0.00041  22423597.60046  22423594.96748
  -9530350.34948  -7426254.92946         0.00041  21309395.60846  21309392.80648
 94 02 22 00 42 00.0000000  0  6 02 07 15 19 26 27
  -5937381.41849  -4626533.07048         0.00041  20928639.98648  20928636.68749
  -9455468.09049  -7367892.02748         0.00041  20421638.23748  20421635.92649
  -1064785.95248   -829698.24044         0.00041  23728719.86044  23728724.79348
   6297042.39248   4906765.70844         0.00041  23604136.59644  23604129.60248
 -10639580.34748  -8290582.18046         0.00041  22420780.28246  22420777.42548
  -9461239.03548  -7372402.04446         0.00041  21322547.65946  21322543.76948
 94 02 22 00 42 30.0000000  0  6 02 07 15 19 26 27
  -5927778.23149  -4619050.07648         0.00041  20930467.26548  20930464.29749
  -9477674.54549  -7385195.74948         0.00041  20417412.65548  20417410.32449
  -1058431.18248   -824746.30844         0.00041  23729941.02744  23729933.35048
   6387832.35848   4977510.78744         0.00041  23621408.86544  23621406.45948
 -10653846.48248  -8301698.71846         0.00041  22418065.53246  22418062.68748
  -9391796.34048  -7318290.94646         0.00041  21335762.13046  21335758.65748
 94 02 22 00 43 00.0000000  0  6 02 07 15 19 26 27
  -5917997.39049  -4611428.65248         0.00041  20932328.46748  20932326.14849
  -9499381.82549  -7402110.50948         0.00041  20413281.98248  20413279.61549
  -1051514.02248   -819356.22544         0.00041  23731250.74944  23731249.01048
   6478851.30048   5048434.52644         0.00041  23638729.36744  23638727.04048
 -10667556.00148  -8312381.52846         0.00041  22415456.79846  22415453.86948
  -9321982.03948  -7263890.28746         0.00041  21349046.93246  21349044.03348
 94 02 22 00 43 30.0000000  0  6 02 07 15 19 26 27
  -5908028.70849  -4603660.86848         0.00041  20934225.80848  20934223.47549
  -9520579.66749  -7418628.31248         0.00041  20409248.20548  20409245.86749
  -1044033.81948   -813527.36844         0.00041  23732680.09544  23732673.40948
   6570095.63648   5119533.95244         0.00041  23656089.71344  23656090.51948
 -10680707.60748  -8322629.61246         0.00041  22412954.01546  22412950.73848
  -9251775.13448  -7209183.70746         0.00041  21362407.55746  21362404.29148
 94 02 22 00 44 00.0000000  0  6 02 07 15 19 26 27
  -5897906.36649  -4595773.35848         0.00041  20936151.73048  20936149.55349
  -9541292.38949  -7434768.10748         0.00041  20405306.85348  20405304.16349
  -1036010.57848   -807275.37544         0.00041  23734201.90744  23734199.90348
   6661538.06948   5190787.44044         0.00041  23673492.95544  23673492.54348
 -10693337.64648  -8332471.27646         0.00041  22410550.37946  22410547.50448
  -9181182.79348  -7154176.79146         0.00041  21375841.06946  21375837.91648
 94 02 22 00 44 30.0000000  0  6 02 07 15 19 26 27
  -5887648.04749  -4587779.90248         0.00041  20938104.16648  20938101.73949
  -9561524.39049  -7450533.31448         0.00041  20401456.75548  20401454.24049
  -1027454.95748   -800608.57245         0.00041  23735829.57045  23735828.44748
   6753165.93848   5262185.68944         0.00041  23690930.46144  23690928.83848
 -10705456.37948  -8341914.51346         0.00041  22408244.07646  22408241.16348
  -9110199.38648  -7098865.13846         0.00041  21389348.02046  21389345.89948
 94 02 22 00 45 00.0000000  0  6 02 07 15 19 26 27
  -5877257.09949  -4579683.09748         0.00041  20940081.77948  20940079.58749
  -9581254.34949  -7465907.31148         0.00041  20397702.20548  20397699.78749
  -1018363.75048   -793524.36645         0.00041  23737559.70845  23737559.41848
   6844987.31748   5333734.39644         0.00041  23708408.27344  23708401.27948
 -10717063.55448  -8350959.10046         0.00041  22406034.10746  22406031.43848
  -9038813.23548  -7043239.65446         0.00041  21402932.74246  21402930.50248
 94 02 22 00 45 30.0000000  0  6 02 07 15 19 26 27
  -5866731.72849  -4571481.55048         0.00041  20942084.42348  20942082.42549
  -9600472.71249  -7480882.66248         0.00041  20394045.13448  20394042.77249
  -1008731.03348   -786018.23345         0.00041  23739395.54645  23739392.10548
   6937015.81447   5405444.88444         0.00041  23725917.16544  23725912.80847
 -10728155.97748  -8359602.57146         0.00041  22403923.01046  22403920.68348
  -8967025.13948  -6987300.98146         0.00041  21416593.92946  21416591.38948
 94 02 22 00 46 00.0000000  0  5 02 07 19 26 27
  -5856068.98449  -4563172.96148         0.00041  20944113.56348  20944111.24549
  -9619180.99049  -7495460.54148         0.00041  20390484.76748  20390482.79049
   7029249.93748   5477315.43044         0.00041  23743471.53544  23743466.56048
 -10738735.40848  -8367846.32046         0.00041  22401911.62246  22401908.14848
  -8894839.39548  -6931052.46346         0.00041  21430330.22046  21430327.65048
 94 02 22 00 46 30.0000000  0  5 02 07 19 26 27
  -5845286.16349  -4554770.79848         0.00041  20946165.35448  20946162.94849
  -9637411.52349  -7509666.15048         0.00041  20387015.54948  20387013.73549
   7121659.22248   5549322.41044         0.00041  23761064.12344  23761052.85648
 -10748823.36548  -8375707.11646         0.00041  22399991.45946  22399988.82148
  -8822292.26148  -6874522.34346         0.00041  21444136.15546  21444133.11548
 94 02 22 00 47 00.0000000  0  5 02 07 19 26 27
  -5834347.86349  -4546247.46648         0.00041  20948247.40248  20948244.20949
  -9655147.27349  -7523486.21448         0.00041  20383640.72448  20383638.94449
   7214267.09948   5621484.38244         0.00041  23778677.33444  23778676.40548
 -10758392.70148  -8383163.80746         0.00041  22398171.86846  22398168.59448
  -8749360.99448  -6817692.89846         0.00041  21458014.34846  21458011.27548
 94 02 22 00 47 30.0000000  0  5 02 07 19 26 27
  -5823216.48549  -4537573.67748         0.00041  20950365.79948  20950362.82349
  -9672370.32249  -7536906.77548         0.00041  20380363.45348  20380361.42349
   7307092.51748   5693815.64144         0.00041  23796356.08344  23796340.75848
 -10767409.56548  -8390190.00346         0.00041  22396455.33946  22396452.70748
  -8676019.26148  -6760543.60446         0.00041  21471970.60246  21471968.05248
 94 02 22 00 48 00.0000000  0  5 02 07 19 26 27
  -5811902.11949  -4528757.29148         0.00041  20952518.62248  20952515.78849
  -9689093.79749  -7549938.05648         0.00041  20377181.25348  20377178.92849
   7400125.20347   5766308.15444         0.00041  23814046.87444  23814044.33947
 -10775874.17448  -8396785.86346         0.00041  22394844.71946  22394842.32048
  -8602288.81448  -6703091.40946         0.00041  21486000.87046  21485999.00448
 94 02 22 00 48 30.0000000  0  5 02 07 19 26 27
  -5800406.65849  -4519799.79348         0.00041  20954705.92548  20954702.83749
  -9705301.31149  -7562567.28748         0.00041  20374096.85048  20374094.76549
   7493370.05847   5838966.31544         0.00041  23831794.02144  23831788.33847
 -10783778.59348  -8402945.21546         0.00041  22393340.49746  22393338.07348
  -8528167.83148  -6645334.91146         0.00041  21500105.01546  21500103.22548
 94 02 22 00 49 00.0000000  0  5 02 07 19 26 27
  -5788754.99749  -4510720.58048         0.00041  20956923.07348  20956920.26749
  -9720994.96949  -7574796.11148         0.00041  20371110.25648  20371108.41949
   7586805.56547   5911773.20344         0.00041  23849560.75844  23849569.43247
 -10791134.61748  -8408677.24546         0.00041  22391940.52346  22391938.36748
  -8453673.23248  -6587287.29146         0.00041  21514280.67146  21514278.58448
 94 02 22 00 49 30.0000000  0  4 02 07 26 27
  -5776923.74449  -4501501.43848         0.00041  20959174.40448  20959172.16649
  -9736158.04349  -7586611.49648         0.00041  20368224.95748  20368222.96349
 -10797916.73348  -8413962.07646         0.00041  22390649.98846  22390647.28648
  -8378797.43048  -6528942.62246         0.00041  21528529.95246  21528526.63848
 94 02 22 00 50 00.0000000  0  5 02 07 13 26 27
  -5764940.10649  -4492163.56848         0.00041  20961454.91048  20961452.70749
  -9750829.84849  -7598044.08248         0.00041  20365432.93448  20365430.88149
        -0.47217         0.07716  23008540.98617  23008549.63316         0.00011
 -10804150.56448  -8418819.68146         0.00041  22389465.03246  22389461.51648
  -8303570.37548  -6470324.24246         0.00041  21542844.81446  21542841.54748
 94 02 22 00 50 30.0000000  0  6 02 07 13 15 26 27
  -5752784.93749  -4482692.04048         0.00041  20963768.27748  20963765.48349
  -9764995.01049  -7609081.88748         0.00041  20362737.62448  20362735.12349
   -108567.29807    -84597.37506  22987881.25907  22987889.91006         0.00001
        -0.57458        -0.48054         0.00051  23763545.80954  23763540.84358
 -10809822.80648  -8423239.67646         0.00041  22388385.06446  22388382.33248
  -8227966.10148  -6411411.93546         0.00041  21557232.17046  21557229.21648
 94 02 22 00 51 00.0000000  0  5 02 07 15 26 27
  -5740436.76249  -4473070.11648         0.00041  20966117.68848  20966115.36349
  -9778657.88149  -7619728.29648         0.00041  20360137.63148  20360134.84849
     15800.42348     12312.07844         0.00041  23766544.58944  23766548.88548
 -10814918.17048  -8427210.16146         0.00041  22387415.50946  22387412.40748
  -8151974.59048  -6352197.88546         0.00041  21571692.70846  21571690.37848
 94 02 22 00 51 30.0000000  0  5 02 07 15 26 27
  -5727912.23849  -4463310.78648         0.00041  20968500.25948  20968498.90849
  -9791863.64649  -7630018.50748         0.00041  20357624.59048  20357622.09149
     32131.40348     25037.71544         0.00041  23769657.42144  23769655.01648
 -10819467.10648  -8430754.85346         0.00041  22386549.68846  22386546.78548
  -8075622.06548  -6292702.51846         0.00041  21586222.36046  21586219.88948
 94 02 22 00 52 00.0000000  0  5 02 07 15 26 27
  -5715220.83049  -4453421.41548         0.00041  20970915.21948  20970913.78749
  -9804600.13349  -7639943.03748         0.00041  20355201.11348  20355198.71849
     49000.58748     38182.79944         0.00041  23772860.22644  23772866.27448
 -10823487.73448  -8433887.87946         0.00041  22385785.37846  22385781.39648
  -7998890.33648  -6232911.65746         0.00041  21600825.00546  21600821.83248
 94 02 22 00 52 30.0000000  0  5 02 07 15 26 27
  -5702374.17449  -4443411.06548         0.00041  20973360.18148  20973357.93849
  -9816860.52749  -7649496.58948         0.00041  20352867.79748  20352865.71049
     66404.95848     51744.82144         0.00041  23776185.67344  23776178.10648
 -10827010.46548  -8436632.93646         0.00041  22385115.08546  22385110.77348
  -7921785.83248  -6172830.32546         0.00041  21615498.24046  21615494.72348
 94 02 22 00 53 00.0000000  0  5 02 07 15 26 27
  -5689366.32449  -4433275.10348         0.00041  20975835.67748  20975832.75749
  -9828648.32549  -7658681.89548         0.00041  20350624.59848  20350622.60349
     84349.78748     65727.98444         0.00041  23779596.73944  23779590.18448
 -10830039.92848  -8438993.63046         0.00041  22384537.75846  22384534.36848
  -7844300.70749  -6112452.39946         0.00041  21630243.42346  21630239.66249
 94 02 22 00 53 30.0000000  0  5 02 07 15 26 27
  -5676193.47349  -4423010.57348         0.00041  20978342.79148  20978339.50749
  -9839933.68449  -7667475.68748         0.00041  20348476.84948  20348474.92249
    102860.70848     80152.29444         0.00041  23783118.59044  23783112.52248
 -10832562.96648  -8440959.70846         0.00041  22384056.84146  22384054.07948
  -7766416.39049  -6051763.40747         0.00041  21645064.20847  21645060.65149
 94 02 22 00 54 00.0000000  0  5 02 07 15 26 27
  -5662870.19449  -4412628.82148         0.00041  20980878.57948  20980875.45149
  -9850711.32949  -7675873.84948         0.00041  20346425.85148  20346423.78749
    121930.52648     95012.21544         0.00041  23786747.69144  23786742.27948
 -10834583.63848  -8442534.32146         0.00041  22383671.61746  22383669.53548
  -7688151.59649  -5990777.94247         0.00041  21659957.30747  21659953.95949
 94 02 22 00 54 30.0000000  0  5 02 07 15 26 27
  -5649384.04049  -4402120.14948         0.00041  20983444.71348  20983441.75449
  -9860980.68849  -7683875.93948         0.00041  20344471.82148  20344469.69749
    141564.63248    110311.76044         0.00041  23790485.56144  23790478.63148
 -10836078.83948  -8443699.46146         0.00041  22383388.74846  22383385.41848
  -7609522.06349  -5929508.26747         0.00041  21674920.56547  21674916.61749
 94 02 22 00 55 00.0000000  0  5 02 07 15 26 27
  -5635719.65649  -4391472.59848         0.00041  20986044.97748  20986042.21349
  -9870732.15349  -7691474.47248         0.00041  20342616.52348  20342614.12449
    161778.58048    126063.06244         0.00041  23794333.70944  23794324.12548
 -10837007.79348  -8444423.36946         0.00041  22383212.07146  22383208.21248
  -7530513.49249  -5867943.22647         0.00041  21689955.50047  21689951.28449
 94 02 22 00 55 30.0000000  0  5 02 07 15 26 27
  -5621891.18549  -4380697.19448         0.00041  20988676.82748  20988674.04349
  -9879962.96649  -7698667.30048         0.00041  20340860.04748  20340857.32349
    182568.05548    142262.88444         0.00041  23798285.02644  23798280.00148
 -10837371.03348  -8444706.47446         0.00041  22383143.26646  22383138.39948
  -7451148.72549  -5806100.63247         0.00041  21705057.70447  21705053.84249
 94 02 22 00 56 00.0000000  0  5 02 07 15 26 27
  -5607877.88549  -4369777.75848         0.00041  20991343.20948  20991340.37449
  -9888669.37749  -7705451.50348         0.00041  20339203.17848  20339200.15349
    203941.60748    158917.79944         0.00041  23802358.04744  23802348.81148
 -10837171.45048  -8444550.99046         0.00041  22383181.76246  22383176.74148
  -7371406.34249  -5743963.79346         0.00041  21720232.35446  21720228.32549
 94 02 22 00 56 30.0000000  0  5 02 07 15 26 27
  -5593705.11849  -4358734.05848         0.00041  20994039.61848  20994037.66949
  -9896884.24449  -7711852.66748         0.00041  20337639.92448  20337636.48649
    225873.65248    176007.83444         0.00041  23806527.34244  23806523.35948
 -10836436.00448  -8443977.99346         0.00041  22383322.17046  22383317.57148
  -7291287.93148  -5681533.94346         0.00041  21735477.96846  21735474.17048
 94 02 22 00 57 00.0000000  0  5 02 07 15 26 27
  -5579380.46849  -4347571.99948         0.00041  20996765.34048  20996763.84249
  -9904611.07349  -7717873.53748         0.00041  20336169.54248  20336166.32849
    248357.66648    193527.95444         0.00041  23810799.94944  23810799.74448
 -10835169.39748  -8442991.08846         0.00041  22383563.12646  22383559.40948
  -7210790.54148  -5618808.78446         0.00041  21750796.08846  21750792.58848
 94 02 22 00 57 30.0000000  0  5 02 07 15 26 27
  -5564921.99749  -4336305.66448         0.00041  20999516.84648  20999515.22949
  -9911865.37249  -7723526.21248         0.00041  20334789.13148  20334786.57249
    271374.60048    211463.34944         0.00041  23815178.38144  23815179.43748
 -10833406.51948  -8441617.47046         0.00041  22383898.09346  22383895.06348
  -7129937.35848  -5555806.38846         0.00041  21766181.60146  21766178.27948
 94 02 22 00 58 00.0000000  0  6 02 07 13 15 26 27
  -5550280.12349  -4324896.41048         0.00041  21002302.87548  21002301.43049
  -9918624.52649  -7728793.07348         0.00041  20333502.91648  20333500.35149
        -0.17116        -0.24616  22684390.31816  22684392.19916         0.00011
    294953.80047    229837.05344         0.00041  23819662.62444  23819666.04547
 -10831109.12548  -8439827.34046         0.00041  22384335.09646  22384332.29048
  -7048690.96148  -5492497.59246         0.00041  21781641.77346  21781638.81848
 94 02 22 00 58 30.0000000  0  5 02 07 13 26 27
  -5535467.47449  -4313354.07948         0.00041  21005121.99448  21005120.03549
  -9924910.09749  -7733690.91748         0.00041  20332306.56548  20332304.16349
   -103908.51907    -80967.55306  22664617.06907  22664617.51006         0.00001
 -10828272.78948  -8437617.24046         0.00041  22384874.49246  22384872.27848
  -6967094.23848  -5428915.80946         0.00041  21797168.64846  21797166.32348
 94 02 22 00 59 00.0000000  0  5 02 07 13 26 27
  -5520504.03449  -4301694.24748         0.00041  21007969.85248  21007967.17849
  -9930741.50249  -7738234.86348         0.00041  20331196.78248  20331194.30249
   -207538.23207   -161717.64105  22644896.40807  22644895.35605         0.00001
 -10824928.07648  -8435011.02346         0.00041  22385510.55446  22385509.06148
  -6885191.97148  -5365095.93446         0.00041  21812754.58946  21812751.72948
 94 02 22 00 59 30.0000000  0  5 02 07 13 26 27
  -5505345.54149  -4289882.41048         0.00041  21010854.55648  21010851.41849
  -9936075.49649  -7742391.21648         0.00041  20330181.81148  20330179.23049
   -310839.28107   -242211.70606  22625238.45307  22625241.08706         0.00001
 -10821032.94148  -8431975.89346         0.00041  22386252.18746  22386250.25548
  -6802933.06848  -5300998.17246         0.00041  21828408.36746  21828405.06848
 94 02 22 01 00 00.0000000  0  6 02 07 13 15 26 27
  -5489998.28549  -4277923.46648         0.00041  21013775.20248  21013771.86149
  -9940907.40949  -7746156.34648         0.00041  20329262.09748  20329260.03949
   -413805.41907   -322444.94506  22605644.14407  22605647.26306         0.00001
        -0.35557         0.51654         0.00051  23838643.52154  23838643.59257
 -10816576.36748  -8428503.28046         0.00041  22387101.02546  22387098.06348
  -6720313.61048  -5236619.46346         0.00041  21844130.46646  21844127.00948
 94 02 22 01 00 30.0000000  0  6 02 07 13 15 26 27
  -5474505.35749  -4265851.01648         0.00041  21016723.78548  21016720.36949
  -9945243.09049  -7749534.81048         0.00041  20328436.80348  20328435.41249
   -516453.72707   -402430.48906  22586110.11307  22586114.93006         0.00001
     26313.70548     20505.10144         0.00041  23843659.00944  23843654.60648
 -10811591.74148  -8424619.19446         0.00041  22388049.69746  22388046.86748
  -6637351.62548  -5171973.84446         0.00041  21859918.71546  21859914.28148
 94 02 22 01 01 00.0000000  0  6 02 07 13 15 26 27
  -5458878.60549  -4253674.29648         0.00041  21019696.79948  21019694.24249
  -9949086.81649  -7752529.93548         0.00041  20327705.28548  20327704.04149
   -618784.22306   -482168.37006  22566636.51306  22566642.72706         0.00001
     53170.37848     41432.51945         0.00041  23848768.16745  23848766.82048
 -10806093.08148  -8420334.55846         0.00041  22389095.75146  22389093.11148
  -6554041.16248  -5107056.69446         0.00041  21875772.48246  21875768.16148
 94 02 22 01 01 30.0000000  0  6 02 07 13 15 26 27
  -5443093.78849  -4241374.41548         0.00041  21022700.57748  21022697.75749
  -9952431.99649  -7755136.57848         0.00041  20327068.57148  20327066.85049
   -720774.78006   -561641.36006  22547227.69006  22547234.25506         0.00001
     80588.87148     62797.71345         0.00041  23853984.22345  23853982.03648
 -10800056.22448  -8415630.53746         0.00041  22390244.14546  22390242.10748
  -6470365.76148  -5041855.16346         0.00041  21891695.60246  21891691.00648
 94 02 22 01 02 00.0000000  0  6 02 07 13 15 26 27
  -5427160.47149  -4228958.81648         0.00041  21025732.58048  21025729.18849
  -9955314.58049  -7757382.75248         0.00041  20326520.19348  20326517.82549
   -822443.97606   -640863.96106  22527880.84706  22527887.06706         0.00001
    108547.61748     84583.85144         0.00041  23859305.13844  23859299.14248
 -10793497.82048  -8410520.11446         0.00041  22391492.80846  22391489.93048
  -6386350.63448  -4976388.91746         0.00041  21907683.04846  21907679.21848
 94 02 22 01 02 30.0000000  0  6 02 07 13 15 26 27
  -5411024.95849  -4216385.67348         0.00041  21028802.89848  21028799.99949
  -9957717.44049  -7759255.11648         0.00041  20326063.08648  20326060.87049
   -923758.61507   -719810.26906  22508601.11507  22508607.24706         0.00001
    137076.34848    106814.21545         0.00041  23864730.41945  23864727.95048
 -10786389.28748  -8404981.01746         0.00041  22392846.07746  22392842.74348
  -6301961.04448  -4910630.87846         0.00041  21923741.72846  21923738.33448
 94 02 22 01 03 00.0000000  0  6 02 07 13 15 26 27
  -5394697.23749  -4203662.77048         0.00041  21031909.91748  21031907.33449
  -9959673.86049  -7760779.60548         0.00041  20325691.03048  20325688.57949
  -1024734.49207   -798492.56506  22489385.07407  22489391.08006         0.00001
    166155.77548    129473.68445         0.00041  23870263.78945  23870263.61548
 -10778739.41848  -8399020.11046         0.00041  22394301.06046  22394298.06748
  -6217218.79148  -4844598.04246         0.00041  21939867.66746  21939864.37248
 94 02 22 01 03 30.0000000  0  6 02 07 13 15 26 27
  -5378201.08249  -4190808.63348         0.00041  21035048.99348  21035046.25049
  -9961194.29549  -7761964.36148         0.00041  20325401.99948  20325399.29749
  -1125386.00007   -876922.07906  22470231.80407  22470237.40106         0.00001
    195768.24548    152548.55545         0.00041  23875899.66045  23875898.65548
 -10770569.98648  -8392654.34146         0.00041  22395856.02246  22395852.02848
  -6132131.18848  -4778296.10746         0.00041  21956059.60246  21956056.12048
 94 02 22 01 04 00.0000000  0  6 02 07 13 15 26 27
  -5361548.58249  -4177832.66748         0.00041  21038217.76748  21038214.76649
  -9962245.01949  -7762783.11348         0.00041  20325202.19948  20325199.39349
  -1225705.64907   -955093.02106  22451141.82507  22451147.90506         0.00001
    225918.09148    176042.12046         0.00041  23881637.06546  23881636.68048
 -10761888.68548  -8385889.73246         0.00041  22397509.03846  22397504.22948
  -6046682.89348  -4711713.11846         0.00041  21972319.71146  21972316.42848
 94 02 22 01 04 30.0000000  0  6 02 07 13 15 26 27
  -5344742.15649  -4164736.75348         0.00041  21041416.13448  21041412.92749
  -9962787.28449  -7763205.65648         0.00041  20325099.09648  20325096.21949
  -1325680.61307  -1032995.42306  22432117.35007  22432123.59106         0.00001
    256614.76348    199961.76346         0.00041  23887480.09846  23887477.95048
 -10752697.96448  -8378728.19146         0.00041  22399256.66646  22399252.68448
  -5960868.50748  -4644844.84546         0.00041  21988649.30546  21988646.45948
 94 02 22 01 05 00.0000000  0  7 02 07 09 13 15 26 27
  -5327823.38549  -4151553.29648         0.00041  21044635.54748  21044632.45449
  -9962824.31949  -7763234.50948         0.00041  20325092.02748  20325089.33249
         0.24557         0.38854         0.00051  24660741.42054  24660734.81857
  -1425324.02107  -1110639.51506  22413155.58107  22413162.37206         0.00001
    287841.55248    224294.51646         0.00041  23893420.36146  23893419.98748
 -10743016.47348  -8371184.22946         0.00041  22401100.14546  22401096.13848
  -5874711.99248  -4577709.98746         0.00041  22005045.04146  22005041.14848
 94 02 22 01 05 30.0000000  0  7 02 07 09 13 15 26 27
  -5310778.75649  -4138271.77148         0.00041  21047878.70448  21047876.41749
  -9962343.65049  -7762859.95148         0.00041  20325183.37148  20325180.97149
    -99473.64247    -77511.61044         0.00041  24641809.55844  24641806.80147
  -1524622.15407  -1188014.61306  22394258.82907  22394266.25206         0.00001
    319609.21848    249048.75046         0.00041  23899466.10046  23899464.97248
 -10732835.96248  -8363251.37346         0.00041  22403036.67646  22403033.63948
  -5788214.13448  -4510309.12746         0.00041  22021505.58846  22021501.40248
 94 02 22 01 06 00.0000000  0  6 02 07 09 15 26 27
  -5293570.51449  -4124862.74948         0.00041  21051153.39948  21051151.44349
  -9961322.79849  -7762064.46848         0.00041  20325377.91048  20325375.42749
   -198913.15248   -154996.88644         0.00041  24622884.85244  24622884.67448
    351939.57348    274241.41045         0.00041  23905618.56945  23905615.66848
 -10722123.67148  -8354904.15846         0.00041  22405074.44646  22405072.16748
  -5701376.98048  -4442643.88446         0.00041  22038030.17846  22038025.89448
 94 02 22 01 06 30.0000000  0  6 02 07 09 15 26 27
  -5276235.56749  -4111355.00248         0.00041  21054452.12948  21054449.38849
  -9959843.92949  -7760912.08848         0.00041  20325659.31148  20325656.67949
   -298356.12748   -232484.81444         0.00041  24603959.70844  24603961.40548
    384781.09248    299832.38745         0.00041  23911865.98545  23911865.31748
 -10710915.00048  -8346170.15046         0.00041  22407207.14846  22407204.54748
  -5614267.83248  -4374766.70446         0.00041  22054606.43446  22054602.19948
 94 02 22 01 07 00.0000000  0  6 02 07 09 15 26 27
  -5258712.67449  -4097700.79348         0.00041  21057786.95448  21057783.90049
  -9957874.66349  -7759377.58448         0.00041  20326034.21748  20326031.40549
   -397740.52148   -309926.96544         0.00041  24585039.81244  24585048.95648
    418187.11348    325863.30345         0.00041  23918225.95645  23918222.97448
 -10699152.07048  -8337004.24846         0.00041  22409446.06046  22409442.88048
  -5526842.04248  -4306642.78146         0.00041  22071243.01346  22071238.51748
 94 02 22 01 07 30.0000000  0  6 02 07 09 15 26 27
  -5240980.57549  -4083883.55948         0.00041  21061161.12248  21061158.44649
  -9955417.55849  -7757462.95648         0.00041  20326501.65548  20326498.98649
   -497070.48647   -387327.09644         0.00041  24566151.89644  24566146.61047
    452152.47448    352330.02145         0.00041  23924686.90345  23924686.25948
 -10686838.04848  -8327408.94246         0.00041  22411789.54746  22411786.54348
  -5439106.91548  -4238277.81546         0.00041  22087939.17246  22087933.84448
 94 02 22 01 08 00.0000000  0  6 02 07 09 15 26 27
  -5223041.17149  -4069904.78448         0.00041  21064574.77948  21064571.94749
  -9952480.19649  -7755174.09948         0.00041  20327060.63648  20327057.83249
   -596362.11247   -464696.55844         0.00041  24547255.55844  24547251.89147
    486670.75548    379227.60844         0.00041  23931253.62344  23931254.98048
 -10673993.12048  -8317399.94146         0.00041  22414233.43146  22414230.60648
  -5351051.54748  -4169663.31446         0.00041  22104695.08446  22104690.10748
 94 02 22 01 08 30.0000000  0  6 02 07 09 15 26 27
  -5204902.94949  -4055771.08648         0.00041  21068026.48948  21068023.66849
  -9949071.84049  -7752518.22448         0.00041  20327709.19448  20327706.25749
   -695612.73447   -542034.02244         0.00041  24528364.48144  24528366.03147
    521746.98648    406559.88444         0.00041  23937923.78944  23937926.76348
 -10660625.41848  -8306983.59446         0.00041  22416777.62046  22416774.06848
  -5262654.81648  -4100782.82146         0.00041  22121516.09946  22121511.12048
 94 02 22 01 09 00.0000000  0  5 02 07 15 26 27
  -5186570.90749  -4041486.36248         0.00041  21071514.90348  21071512.44949
  -9945187.78549  -7749491.67148         0.00041  20328448.26748  20328445.51249
    557381.51848    434327.37644         0.00041  23944705.70544  23944706.74248
 -10646743.14648  -8296166.25746         0.00041  22419419.27946  22419416.28448
  -5173898.33648  -4031622.00146         0.00041  22138406.73446  22138400.77248
 94 02 22 01 09 30.0000000  0  6 02 07 13 15 26 27
  -5168054.88749  -4027058.27948         0.00041  21075038.34848  21075036.00649
  -9940831.58049  -7746097.20848         0.00041  20329277.35048  20329274.90249
        -0.91617        -0.03316  22245603.31317  22245608.37616         0.00011
    593571.76448    462527.85344         0.00041  23951587.42044  23951592.52548
 -10632346.71448  -8284948.27846         0.00041  22422159.17546  22422156.35948
  -5084765.15948  -3962167.65146         0.00041  22155367.14646  22155362.06948
 94 02 22 01 10 00.0000000  0  6 02 07 13 15 26 27
  -5149391.33049  -4012515.23548         0.00041  21078589.67248  21078587.75349
  -9936039.89049  -7742363.40648         0.00041  20330189.07448  20330186.73349
    -95941.43607    -74758.74506  22227346.61307  22227350.64406         0.00001
    630302.93048    491149.69744         0.00041  23958587.39544  23958582.14648
 -10617450.99648  -8273341.22346         0.00041  22424992.95246  22424990.90048
  -4995261.86448  -3892424.89246         0.00041  22172400.35446  22172394.24548
 94 02 22 01 10 30.0000000  0  6 02 07 13 15 26 27
  -5130574.27449  -3997852.56948         0.00041  21082170.46248  21082168.45249
  -9930806.12149  -7738285.12848         0.00041  20331184.69248  20331182.57849
   -191493.69807   -149214.92706  22209163.37607  22209167.28706         0.00001
    667583.58848    520199.68044         0.00041  23965680.62144  23965678.06748
 -10602036.32148  -8261329.79846         0.00041  22427926.12546  22427924.05148
  -4905385.62048  -3822391.52446         0.00041  22189502.88446  22189497.91648
 94 02 22 01 11 00.0000000  0  6 02 07 13 15 26 27
  -5111606.71549  -3983072.62948         0.00041  21085779.72148  21085777.49049
  -9925130.19649  -7733862.31448         0.00041  20332264.68748  20332262.56049
   -286671.11707   -223379.01006  22191050.66607  22191055.25406         0.00001
    705396.94048    549664.93144         0.00041  23972871.64744  23972873.90448
 -10586114.55748  -8248923.26646         0.00041  22430955.98546  22430953.37048
  -4815160.71748  -3752086.46746         0.00041  22206672.98546  22206667.36548
 94 02 22 01 11 30.0000000  0  6 02 07 13 15 26 27
  -5092499.08049  -3968183.54448         0.00041  21089415.81948  21089413.34849
  -9919012.51249  -7729095.27248         0.00041  20333428.94148  20333426.68149
   -381483.65507   -297258.74207  22173008.39107  22173013.04707         0.00001
    743729.55848    579534.73045         0.00041  23980171.80445  23980169.04948
 -10569688.89448  -8236124.07646         0.00041  22434083.10546  22434078.96148
  -4724612.97348  -3681529.87246         0.00041  22223903.21846  22223898.05348
 94 02 22 01 12 00.0000000  0  6 02 07 13 15 26 27
  -5073224.19349  -3953164.14948         0.00041  21093083.51848  21093081.41549
  -9912419.21549  -7723957.62848         0.00041  20334683.40548  20334681.22449
   -475913.56206   -370840.31907  22155038.53206  22155043.54507         0.00001
    782595.18948    609819.86344         0.00041  23987566.10244  23987565.11248
 -10552744.92748  -8222921.02446         0.00041  22437306.74346  22437303.22248
  -4633744.18848  -3610723.10446         0.00041  22241195.33846  22241189.76048
 94 02 22 01 12 30.0000000  0  5 02 07 15 26 27
  -5053783.97249  -3938015.91848         0.00041  21096782.94148  21096780.48449
  -9905341.73349  -7718442.70048         0.00041  20336030.26348  20336028.11349
    821974.82348    640505.51345         0.00041  23995058.49745  23995058.96248
 -10535300.82448  -8209328.27146         0.00041  22440626.08346  22440622.50848
  -4542588.86448  -3539693.06746         0.00041  22258541.72946  22258535.77848
 94 02 22 01 13 00.0000000  0  6 02 07 09 15 26 27
  -5034206.19849  -3922760.50548         0.00041  21100508.62348  21100506.07149
  -9897800.70949  -7712566.57048         0.00041  20337465.25948  20337462.91049
        -0.73257         0.18054         0.00051  24358612.62954  24358616.95957
    861843.90548    671572.52845         0.00041  24002647.33845  24002646.03948
 -10517377.95648  -8195362.43246         0.00041  22444036.16546  22444032.99348
  -4451172.99748  -3468460.00246         0.00041  22275936.25446  22275931.81548
 94 02 22 01 13 30.0000000  0  5 02 07 15 26 27
  -5014472.34749  -3907383.48048         0.00041  21104264.30348  21104261.30949
  -9889786.24349  -7706321.52748         0.00041  20338990.65448  20338987.90449
    902229.28648    703041.80244         0.00041  24010334.72844  24010330.89448
 -10498952.85448  -8181005.23246         0.00041  22447543.00446  22447539.76948
  -4359468.64148  -3397002.14946         0.00041  22293388.42346  22293383.27548
 94 02 22 01 14 00.0000000  0  5 02 07 09 26 27
  -4994551.16849  -3891860.47248         0.00041  21108055.42748  21108051.83449
  -9881292.83949  -7699703.28448         0.00041  20340606.94948  20340603.97749
        -0.31457         0.34654         0.00051  24320956.23754  24320961.03957
 -10480026.13248  -8166257.14546         0.00041  22451144.47046  22451141.76848
  -4267462.77548  -3325309.34746         0.00041  22310894.45246  22310891.64148
 94 02 22 01 14 30.0000000  0  6 02 07 09 13 26 27
  -4974437.61849  -3876187.56448         0.00041  21111882.81948  21111879.44749
  -9872337.84149  -7692725.34648         0.00041  20342310.94048  20342308.11049
    -98849.00747    -77024.50744         0.00041  24302148.17744  24302151.59347
         0.28317         0.48917  22066248.39117  22066254.37717         0.00011
 -10460603.33748  -8151122.52846         0.00041  22454840.11046  22454837.39648
  -4175144.04448  -3253372.77546         0.00041  22328462.60846  22328458.81448
 94 02 22 01 15 00.0000000  0  5 02 07 13 26 27
  -4954122.28049  -3860357.42848         0.00041  21115748.18348  21115745.51349
  -9862923.89349  -7685389.78248         0.00041  20344102.48248  20344099.74849
    -92096.25807    -71762.90607  22048723.52507  22048728.93207         0.00001
 -10440670.87448  -8135590.75246         0.00041  22458633.40946  22458629.36848
  -4082489.29348  -3181174.34146         0.00041  22346094.41146  22346090.71948
 94 02 22 01 15 30.0000000  0  5 02 07 13 26 27
  -4933606.42449  -3844371.04448         0.00041  21119652.52548  21119649.71849
  -9853064.22549  -7677706.90548         0.00041  20345978.40248  20345976.03449
   -183774.60208   -143200.41307  22031278.00608  22031282.90607         0.00001
 -10420245.98648  -8119675.41646         0.00041  22462520.33946  22462514.59148
  -3989517.23448  -3108728.65146         0.00041  22363786.79646  22363782.66748
 94 02 22 01 16 00.0000000  0  5 02 07 13 26 27
  -4912861.51949  -3828206.18248         0.00041  21123600.02048  21123597.80949
  -9842716.07349  -7669643.39348         0.00041  20347947.35848  20347945.18149
   -275001.54808   -214286.19507  22013917.99108  22013922.86807         0.00001
 -10399295.20848  -8103350.05546         0.00041  22466507.35346  22466500.67048
  -3896192.68448  -3036008.31146         0.00041  22381548.44946  22381541.53248
 94 02 22 01 16 30.0000000  0  5 02 07 13 26 27
  -4891929.93349  -3811895.85548         0.00041  21127583.02148  21127580.81349
  -9831898.98749  -7661214.47948         0.00041  20350005.95748  20350003.70749
   -365800.69108   -285038.63107  21996639.31308  21996644.21007         0.00001
 -10377828.83148  -8086623.07646         0.00041  22470591.89746  22470586.92848
  -3802522.91448  -2963018.98446         0.00041  22399372.46446  22399367.22148
 94 02 22 01 17 00.0000000  0  5 02 07 13 26 27
  -4870857.23649  -3795475.55948         0.00041  21131593.14248  21131590.91149
  -9820633.62149  -7652436.26148         0.00041  20352149.38848  20352147.07149
   -456206.25008   -355484.37407  21979435.48808  21979440.34307         0.00001
 -10355867.62148  -8069510.48646         0.00041  22474770.36546  22474767.42548
  -3708538.38548  -2889784.38046         0.00041  22417255.70446  22417252.57948
 94 02 22 01 17 30.0000000  0  5 02 07 13 26 27
  -4849663.60549  -3778961.02648         0.00041  21135626.35648  21135623.50549
  -9808927.87749  -7643314.88548         0.00041  20354376.88748  20354374.17649
   -546221.98008   -425626.33506  21962305.88708  21962310.89406         0.00001
 -10333424.34348  -8052022.26146         0.00041  22479041.94146  22479038.72048
  -3614250.75048  -2816313.56145         0.00041  22435198.41445  22435194.64248
 94 02 22 01 18 00.0000000  0  5 02 07 13 26 27
  -4828358.89949  -3762359.94348         0.00041  21139680.61548  21139677.21149
  -9796790.18549  -7633856.93248         0.00041  20356686.49748  20356683.90149
   -635848.75208   -495465.22406  21945250.41708  21945254.69706         0.00001
 -10310507.29248  -8034164.85146         0.00041  22483403.45246  22483399.27348
  -3519665.59148  -2742610.92145         0.00041  22453197.42445  22453192.11748
 94 02 22 01 18 30.0000000  0  6 02 07 09 13 26 27
  -4806912.97749  -3745648.81448         0.00041  21143761.91548  21143758.23149
  -9784202.10949  -7624048.02148         0.00041  20359082.25448  20359079.53249
        -0.78058         0.12354         0.00051  24152081.39154  24152080.66258
   -725060.99608   -564981.16806  21928274.00008  21928277.10706         0.00001
 -10287096.98448  -8015923.10146         0.00041  22487858.02546  22487854.70448
  -3424776.03948  -2668671.07545         0.00041  22471255.07645  22471247.08148
 94 02 22 01 19 00.0000000  0  6 02 07 09 13 26 27
  -4785331.48649  -3728832.04648         0.00041  21147868.53048  21147865.73149
  -9771176.87249  -7613898.46848         0.00041  20361560.62448  20361558.20349
    -98396.17448    -76671.66145         0.00041  24133359.86745  24133356.66148
   -813875.11108   -634186.93606  21911373.20808  21911376.26006         0.00001
 -10263209.24548  -7997309.30546         0.00041  22492404.04946  22492400.17848
  -3329624.25248  -2594526.89645         0.00041  22489363.36345  22489354.21748
 94 02 22 01 19 30.0000000  0  6 02 07 09 13 26 27
  -4763584.22649  -3711886.10948         0.00041  21152006.69348  21152003.98149
  -9757707.81249  -7603403.07548         0.00041  20364123.69848  20364121.52049
   -196709.02848   -153279.09645         0.00041  24114651.14745  24114648.27248
   -902276.28208   -703070.88206  21894551.02608  21894555.20206         0.00001
 -10238833.01348  -7978314.84946         0.00041  22497042.14946  22497039.22148
  -3234204.71648  -2520174.08145         0.00041  22507518.33345  22507513.20048
 94 02 22 01 20 00.0000000  0  6 02 07 09 13 26 27
  -4741637.03049  -3694784.36748         0.00041  21156183.44748  21156180.72449
  -9743782.82849  -7592552.41948         0.00041  20366773.55348  20366771.31349
   -294930.15348   -229815.07945         0.00041  24095959.92845  24095957.01148
   -990250.60508   -771622.18606  21877809.93108  21877815.38306         0.00001
 -10213954.36848  -7958928.90546         0.00041  22501775.99346  22501773.79448
  -3138505.53448  -2445603.36745         0.00041  22525728.81445  22525724.67948
 94 02 22 01 20 30.0000000  0  6 02 07 09 13 26 27
  -4719487.92549  -3677525.29748         0.00041  21160398.08748  21160395.92449
  -9729392.49449  -7581339.15148         0.00041  20369512.11548  20369509.81349
   -393061.30548   -306280.90245         0.00041  24077288.18645  24077283.94448
  -1077788.05108   -839833.05706  21861152.03108  21861157.08806         0.00001
 -10188569.33548  -7939148.37746         0.00041  22506607.72946  22506604.53748
  -3042521.70348  -2370810.87145         0.00041  22543995.04445  22543990.48348
 94 02 22 01 21 00.0000000  0  6 02 07 09 13 26 27
  -4697157.70949  -3660125.11648         0.00041  21164646.95048  21164645.24349
  -9714570.25249  -7569789.33048         0.00041  20372332.77448  20372330.50249
   -491124.29648   -382693.64945         0.00041  24058627.36445  24058622.98648
  -1164906.71008   -907717.59606  21844573.82208  21844578.21906         0.00001
 -10162705.02748  -7918994.38546         0.00041  22511529.36046  22511527.07448
  -2946263.97648  -2295804.89845         0.00041  22562313.39945  22562308.13248
 94 02 22 01 21 30.0000000  0  6 02 07 09 13 26 27
  -4674629.46949  -3642570.63648         0.00041  21168933.60748  21168932.37049
  -9699311.33949  -7557899.24348         0.00041  20375236.10348  20375233.90249
   -589094.34748   -459033.95845         0.00041  24039982.96545  24039979.43548
  -1251585.01008   -975258.98806  21828079.48108  21828083.44206         0.00001
 -10136361.07348  -7898466.63646         0.00041  22516542.18546  22516539.89648
  -2849700.35948  -2220560.57545         0.00041  22580687.43345  22580683.18848
 94 02 22 01 22 00.0000000  0  6 02 07 09 13 26 27
  -4651913.71549  -3624870.04048         0.00041  21173256.29848  21173254.46549
  -9683613.21749  -7545666.91748         0.00041  20378223.21048  20378221.21849
   -686975.84148   -535305.26645         0.00041  24021356.24645  24021352.57948
  -1337821.61608  -1042456.15505  21811669.10708  21811669.80805         0.00001
 -10109546.08448  -7877571.85546         0.00041  22521644.57146  22521642.75748
  -2752844.95748  -2145088.90945         0.00041  22599117.88945  22599114.76948
 94 02 22 01 22 30.0000000  0  5 02 07 09 26 27
  -4629025.00449  -3607034.65448         0.00041  21177612.10248  21177609.63249
  -9667478.43849  -7533094.34448         0.00041  20381293.50348  20381291.65249
   -784768.33648   -611507.20945         0.00041  24002746.74445  24002742.71448
 -10082270.66948  -7856318.29846         0.00041  22526834.41746  22526833.47248
  -2655702.74148  -2069393.80545         0.00041  22617601.84645  22617600.71448
 94 02 22 01 23 00.0000000  0  5 02 07 09 26 27
  -4605956.28549  -3589059.00148         0.00041  21182002.01648  21181999.39649
  -9650910.75249  -7520184.44848         0.00041  20384446.07048  20384444.30949
   -882460.49548   -687630.98345         0.00041  23984159.17245  23984152.93548
 -10054518.46048  -7834693.23745         0.00041  22532117.17945  22532114.62448
  -2558262.53648  -1993466.45245         0.00041  22636146.03045  22636143.24648
 94 02 22 01 23 30.0000000  0  5 02 07 09 26 27
  -4582698.08249  -3570935.70448         0.00041  21186428.03048  21186425.15049
  -9633885.89249  -7506918.30948         0.00041  20387685.91548  20387683.91249
   -980045.59648   -763671.30245         0.00041  23965588.71945  23965583.92948
 -10026264.23348  -7812676.97745         0.00041  22537493.30745  22537490.36648
  -2460521.44448  -1917304.64645         0.00041  22654745.22045  22654743.09448
 94 02 22 01 24 00.0000000  0  5 02 07 09 26 27
  -4559278.20149  -3552686.41648         0.00041  21190885.27848  21190881.98549
  -9616418.13349  -7493307.04248         0.00041  20391010.09948  20391007.82449
  -1077561.58248   -839657.77146         0.00041  23947030.54946  23947028.06848
  -9997526.06448  -7790283.62746         0.00041  22542965.11946  22542959.71548
  -2362498.18548  -1840922.99045         0.00041  22673398.40445  22673396.19048
 94 02 22 01 24 30.0000000  0  5 02 07 09 26 27
  -4535716.17649  -3534326.36548         0.00041  21195368.29948  21195365.02049
  -9598539.59449  -7479375.68048         0.00041  20394412.06548  20394409.77549
  -1175029.00648   -915606.41946         0.00041  23928484.57146  23928480.39548
  -9968325.57148  -7767530.00446         0.00041  22548518.78446  22548516.83848
  -2264185.46348  -1764315.74045         0.00041  22692107.99345  22692104.41048
 94 02 22 01 25 00.0000000  0  6 02 07 09 13 26 27
  -4511997.42249  -3515844.18548         0.00041  21199881.88948  21199878.66949
  -9580244.21449  -7465119.51548         0.00041  20397893.50148  20397891.22249
  -1272429.65148   -991503.02646         0.00041  23909948.37646  23909945.64848
        -0.76018        -0.41316  21714976.49218  21714978.85916         0.00011
  -9938647.46848  -7744404.22446         0.00041  22554167.55446  22554163.99648
  -2165570.20048  -1687472.73845         0.00041  22710874.86745  22710869.34548
 94 02 22 01 25 30.0000000  0  6 02 07 09 13 26 27
  -4488123.71849  -3497241.27448         0.00041  21204424.89248  21204421.72449
  -9561527.52549  -7450535.06048         0.00041  20401455.01448  20401452.86849
  -1369764.39948  -1067348.29546         0.00041  23891425.93146  23891423.39648
    -83160.33707    -64799.96306  21699151.51307  21699153.18906         0.00001
  -9908518.24448  -7720926.92846         0.00041  22559900.38346  22559897.64548
  -2066667.19648  -1610405.53945         0.00041  22729692.74945  22729690.50548
 94 02 22 01 26 00.0000000  0  6 02 07 09 13 26 27
  -4464071.15049  -3478498.98448         0.00041  21209001.98748  21208999.04149
  -9542372.38649  -7435608.96148         0.00041  20405100.41748  20405098.15449
  -1466996.44948  -1143113.53946         0.00041  23872924.16846  23872920.51648
   -165865.21207   -129245.23606  21683413.26307  21683415.44506         0.00001
  -9877927.26248  -7697089.77746         0.00041  22565720.71846  22565717.95048
  -1967446.13248  -1533090.46245         0.00041  22748573.75745  22748572.29048
 94 02 22 01 26 30.0000000  0  6 02 07 09 13 26 27
  -4439856.47049  -3459630.36848         0.00041  21213609.81948  21213607.02549
  -9522807.15749  -7420363.30648         0.00041  20408823.91548  20408821.30249
  -1564131.12448  -1218802.92546         0.00041  23854440.61846  23854436.47948
   -248135.23307   -193351.67006  21667757.67907  21667760.43006         0.00001
  -9846886.71748  -7672902.31746         0.00041  22571629.70346  22571624.28348
  -1867960.40548  -1455569.21245         0.00041  22767505.66545  22767503.39448
 94 02 22 01 27 00.0000000  0  6 02 07 09 13 26 27
  -4415488.24549  -3440642.12148         0.00041  21218246.98948  21218244.28249
  -9502823.80449  -7404791.83748         0.00041  20412626.64948  20412624.17749
  -1661164.16548  -1294413.12446         0.00041  23835976.58746  23835971.58648
   -329974.10408   -257122.10906  21652184.46008  21652187.53306         0.00001
  -9815396.85948  -7648364.74546         0.00041  22577622.19046  22577616.80348
  -1768246.29148  -1377869.99145         0.00041  22786480.48745  22786477.34848
 94 02 22 01 27 30.0000000  0  6 02 07 09 13 26 27
  -4390948.27949  -3421520.05448         0.00041  21222916.45948  21222914.10049
  -9482401.67649  -7388878.46548         0.00041  20416512.66148  20416510.36549
  -1758084.90748  -1369935.80046         0.00041  23817531.85846  23817528.55148
   -411363.10908   -320542.01507  21636696.86408  21636699.84307         0.00001
  -9783438.67047  -7623462.25245         0.00041  22583702.96945  22583697.79847
  -1668300.40448  -1299990.15945         0.00041  22805498.85145  22805496.30548
 94 02 22 01 28 00.0000000  0  6 02 07 09 13 26 27
  -4366234.53449  -3402262.58748         0.00041  21227619.03848  21227617.17949
  -9461549.22949  -7372629.78148         0.00041  20420480.57748  20420478.45749
  -1854908.22348  -1445382.57446         0.00041  23799108.10046  23799103.63248
   -492298.00608   -383608.08707  21621295.39108  21621298.36107         0.00001
  -9751002.63247  -7598187.40045         0.00041  22589878.10045  22589869.32747
  -1568126.19948  -1221932.40945         0.00041  22824563.12845  22824559.16648
 94 02 22 01 28 30.0000000  0  5 02 07 09 13 27
  -4341339.08949  -3382863.53448         0.00041  21232356.77548  21232354.24149
  -9440262.80249  -7356042.93248         0.00041  20424530.76348  20424528.81349
  -1951633.40048  -1520752.84946         0.00041  23780699.86346  23780697.27948
   -572769.17808   -446312.82307  21605982.00708  21605985.19507         0.00001
  -1467721.78648  -1143695.28745         0.00041  22843671.89445  22843666.19048
 94 02 22 01 29 00.0000000  0  5 02 07 09 13 27
  -4316265.52549  -3363325.68548         0.00041  21237128.36748  21237125.62549
  -9418546.46549  -7339121.08248         0.00041  20428662.96748  20428660.82749
  -2048265.32148  -1596050.44746         0.00041  23762312.44646  23762308.40548
   -652779.58008   -508658.52207  21590756.37208  21590759.96207         0.00001
  -1367068.15548  -1065263.94245         0.00041  22862825.13245  22862819.82148
 94 02 22 01 29 30.0000000  0  5 02 07 09 13 27
  -4290975.44649  -3343619.12048         0.00041  21241940.67648  21241938.02049
  -9396377.75949  -7321846.73648         0.00041  20432881.67848  20432879.41649
  -2144778.35048  -1671255.41246         0.00041  23743946.00246  23743943.02748
   -732297.53708   -570620.49808  21575624.33608  21575628.63408         0.00001
  -1266127.95848   -986609.30145         0.00041  22882034.40345  22882028.19348
 94 02 22 01 30 00.0000000  0  5 02 07 09 13 27
  -4265455.15449  -3323733.17248         0.00041  21246796.88348  21246795.09849
  -9373746.97449  -7304212.33148         0.00041  20437188.31748  20437186.26649
  -2241143.86048  -1746345.44146         0.00041  23725608.45246  23725605.25248
   -811307.47308   -632186.60908  21560589.06008  21560593.50808         0.00001
  -1164869.96748   -907707.03645         0.00041  22901300.70045  22901297.12248
 94 02 22 01 30 30.0000000  0  5 02 07 09 13 27
  -4239727.18149  -3303685.40348         0.00041  21251692.39648  21251690.62049
  -9350687.32749  -7286243.75048         0.00041  20441576.40548  20441574.21549
  -2337362.54148  -1821321.06346         0.00041  23707298.57646  23707295.31448
   -889832.89708   -693375.19408  21545646.15908  21545650.48408         0.00001
  -1063313.40248   -828572.15745         0.00041  22920625.74445  22920622.52348
 94 02 22 01 31 00.0000000  0  6 02 07 09 13 26 27
  -4213814.04749  -3283493.35048         0.00041  21256623.75748  21256621.61349
  -9327219.41149  -7267957.03748         0.00041  20446042.14848  20446039.73349
  -2433455.76448  -1896198.91446         0.00041  23689011.46646  23689009.49748
   -967891.57108   -754200.09108  21530792.29608  21530796.29508         0.00001
        -0.96857        -0.87155         0.00051  22628788.01755  22628783.04857
   -961483.18848   -749223.95245         0.00041  22940006.98845  22940000.55848
 94 02 22 01 31 30.0000000  0  6 02 07 09 13 26 27
  -4187733.24349  -3263170.64348         0.00041  21261587.14048  21261584.91549
  -9303370.18449  -7249373.19448         0.00041  20450580.81648  20450577.96649
  -2529444.90648  -1970995.65146         0.00041  23670746.29846  23670743.34648
  -1045494.42508   -814669.79508  21516025.08508  21516028.91308         0.00001
     35653.50148     27781.83145         0.00041  22635572.20545  22635566.11548
   -859394.09248   -669674.06545         0.00041  22959434.00745  22959426.50048
 94 02 22 01 32 00.0000000  0  6 02 07 09 13 26 27
  -4161486.72049  -3242718.80848         0.00041  21266581.35348  21266579.04149
  -9279146.51549  -7230497.57848         0.00041  20455190.70648  20455187.76449
  -2625318.66048  -2045702.46246         0.00041  23652501.27946  23652498.87748
  -1122630.96608   -874776.12508  21501346.18308  21501350.24208         0.00001
     71744.29648     55904.51845         0.00041  22642442.26045  22642434.93148
   -757044.98348   -589921.61344         0.00041  22978911.74744  22978902.81948
 94 02 22 01 32 30.0000000  0  6 02 07 09 13 26 27
  -4135089.79049  -3222149.77448         0.00041  21271604.45548  21271602.30049
  -9254553.08949  -7211333.84448         0.00041  20459870.86248  20459868.09449
  -2721102.52548  -2120339.20346         0.00041  23634274.24546  23634271.60748
  -1199306.00008   -934522.83308  21486755.08308  21486759.31208         0.00001
    108252.82448     84352.72446         0.00041  22649387.73946  22649382.76248
   -654457.56948   -509983.35244         0.00041  22998430.12244  22998425.58448
 94 02 22 01 33 00.0000000  0  6 02 07 09 13 26 27
  -4108544.37549  -3201465.04748         0.00041  21276655.93748  21276654.08849
  -9229557.66549  -7191856.87048         0.00041  20464627.07948  20464624.46449
  -2816791.45448  -2194901.98046         0.00041  23616065.96546  23616062.73748
  -1275503.21208   -993897.20808  21472255.11208  21472259.31508         0.00001
    145187.74748    113133.17746         0.00041  22656417.88246  22656412.21748
   -551629.36148   -429857.61244         0.00041  23017997.66044  23017994.61048
 94 02 22 01 33 30.0000000  0  6 02 07 09 13 26 27
  -4081854.27949  -3180667.58848         0.00041  21281734.75748  21281733.05849
  -9204155.34549  -7172062.84048         0.00041  20469461.01948  20469458.62549
  -2912380.77948  -2269387.13346         0.00041  23597876.68146  23597872.84048
  -1351225.13208  -1052901.22508  21457845.35008  21457849.84308         0.00001
    182537.24548    142236.70446         0.00041  22663523.65946  22663520.34848
   -448573.38748   -349554.32344         0.00041  23037609.03444  23037605.43848
 94 02 22 01 34 00.0000000  0  6 02 07 09 13 26 27
  -4054997.52649  -3159740.26948         0.00041  21286845.29948  21286843.83949
  -9178309.17749  -7151922.95448         0.00041  20474379.11748  20474376.97749
  -3007845.50648  -2343775.19446         0.00041  23579708.77746  23579706.25448
  -1426454.88408  -1111521.75108  21443529.38408  21443533.87008         0.00001
    220317.45548    171675.82746         0.00041  22670713.38146  22670709.53348
   -345280.39348   -269066.34444         0.00041  23057267.36244  23057261.34648
 94 02 22 01 34 30.0000000  0  7 02 07 09 12 13 26 27
  -4027940.93549  -3138657.24148         0.00041  21291994.02848  21291992.67649
  -9151983.85549  -7131409.69648         0.00041  20479388.91848  20479386.33149
  -3103162.38948  -2418048.06746         0.00041  23561571.78746  23561567.79748
        -0.52116        -0.73916  24482600.45316  24482605.35216         0.00011
  -1501173.45308  -1169743.96208  21429310.70808  21429315.36808         0.00001
    258551.41848    201468.52446         0.00041  22677988.99746  22677984.87648
   -241730.28648   -188378.04744         0.00041  23076966.41244  23076967.57748
 94 02 22 01 35 00.0000000  0  7 02 07 09 12 13 26 27
  -4000632.29249  -3117377.81248         0.00041  21297190.64948  21297189.01349
  -9125163.45249  -7110510.65248         0.00041  20484492.44048  20484489.60549
  -3198275.66348  -2492162.32446         0.00041  23543472.68246  23543468.08948
    -90419.71006    -70457.34006  24465395.12506  24465398.55806         0.00001
  -1575351.03008  -1227544.62108  21415195.16508  21415199.69508         0.00001
    297277.57348    231644.74546         0.00041  22685358.52746  22685354.37648
   -137902.10648   -107473.01544         0.00041  23096726.10044  23096726.04748
 94 02 22 01 35 30.0000000  0  6 02 07 09 13 26 27
  -3973033.64949  -3095872.41948         0.00041  21302442.66948  21302440.59849
  -9097858.15749  -7089233.77248         0.00041  20489688.13248  20489685.55649
  -3293160.85748  -2566098.84746         0.00041  23525415.67946  23525411.61348
  -1648972.77208  -1284912.16108  21401185.78508  21401189.83508         0.00001
    336507.22048    262213.28645         0.00041  22692823.66845  22692819.18948
    -33769.90548    -26331.14944         0.00041  23116547.25644  23116541.10948
 94 02 22 01 36 00.0000000  0  7 02 07 09 12 13 26 27
  -3945247.45449  -3074220.85948         0.00041  21307730.86348  21307728.07849
  -9070196.66049  -7067679.34548         0.00041  20494951.65348  20494949.35449
  -3387925.79148  -2639941.66646         0.00041  23507383.14246  23507378.67848
         0.29616         0.00616  24430980.28516  24430984.77316         0.00011
  -1722145.77708  -1341930.03508  21387261.58408  21387265.42108         0.00001
    376144.02848    293099.06345         0.00041  22700364.83145  22700360.73948
     70561.19148     54965.76244         0.00041  23136396.99844  23136394.04848
 94 02 22 01 36 30.0000000  0  6 02 07 09 13 26 27
  -3917349.06449  -3052481.89448         0.00041  21313039.82848  21313037.07449
  -9042267.28149  -7045916.17248         0.00041  20500266.34648  20500264.08749
  -3482632.51648  -2713739.14746         0.00041  23489361.12746  23489356.23448
  -1794931.34508  -1398646.01508  21373411.06108  21373414.68008         0.00001
    416121.94048    324250.65945         0.00041  22707974.97645  22707967.71648
    175032.63847    136371.85544         0.00041  23156280.47244  23156274.40647
 94 02 22 01 37 00.0000000  0  6 02 07 09 13 26 27
  -3889301.06849  -3030626.33948         0.00041  21318376.75448  21318374.53349
  -9014030.14749  -7023913.20248         0.00041  20505639.56548  20505637.45749
  -3577214.81748  -2787439.65846         0.00041  23471362.51146  23471357.44548
  -1867267.62408  -1455011.91208  21359646.09808  21359649.36008         0.00001
    456488.51048    355705.06845         0.00041  22715654.44045  22715650.57648
    279709.00447    217937.92344         0.00041  23176200.37044  23176193.09347
 94 02 22 01 37 30.0000000  0  5 02 07 09 13 26
  -3861059.20149  -3008619.71548         0.00041  21323750.92648  21323748.54149
  -8985407.47249  -7001609.81948         0.00041  20511086.06648  20511084.32649
  -3671620.01048  -2861002.17446         0.00041  23453397.78246  23453392.87848
  -1939079.95808  -1510969.55008  21345980.82208  21345983.76608         0.00001
    497317.47948    387519.83345         0.00041  22723421.50645  22723420.41848
 94 02 22 01 38 00.0000000  0  5 02 07 09 13 26
  -3832683.95549  -2986509.15448         0.00041  21329150.98448  21329148.26749
  -8956432.49249  -6979031.92248         0.00041  20516600.00148  20516598.50749
  -3765902.48448  -2934469.06146         0.00041  23435455.74746  23435452.06848
  -2010410.59508  -1566551.84008  21332406.94508  21332409.92608         0.00001
    538576.35048    419669.58944         0.00041  22731274.15944  22731271.71548
 94 02 22 01 38 30.0000000  0  5 02 07 09 13 26
  -3804178.23149  -2964296.91648         0.00041  21334575.61448  21334572.72749
  -8927095.33749  -6956171.81548         0.00041  20522182.62348  20522181.56349
  -3860059.37248  -3007838.06546         0.00041  23417538.29546  23417535.54548
  -2081260.27208  -1621759.35408  21318924.51908  21318927.60408         0.00001
    580246.00048    452139.44144         0.00041  22739205.84244  22739201.38348
 94 02 22 01 39 00.0000000  0  5 02 07 09 13 26
  -3775504.17649  -2941953.51548         0.00041  21340032.06848  21340028.81049
  -8897368.45249  -6933008.02248         0.00041  20527839.58748  20527838.54149
  -3954073.12448  -3081095.52046         0.00041  23399648.13146  23399645.43248
  -2151610.72208  -1676577.84808  21305537.14808  21305540.44608         0.00001
    622348.37748    484946.48744         0.00041  22747217.14944  22747213.69748
 94 02 22 01 39 30.0000000  0  5 02 07 09 13 26
  -3746646.03649  -2919466.68248         0.00041  21345523.47148  21345520.85949
  -8867250.37049  -6909539.39748         0.00041  20533570.85948  20533569.74449
  -4047965.31548  -3154258.24146         0.00041  23381779.90046  23381778.40048
  -2221471.84208  -1731015.05608  21292243.06008  21292246.52608         0.00001
    664871.44048    518081.28844         0.00041  22755311.29344  22755305.29248
 94 02 22 01 40 00.0000000  0  5 02 07 09 13 26
  -3717593.52149  -2896828.39447         0.00041  21351051.81047  21351049.12149
  -8836747.94349  -6885771.27148         0.00041  20539375.45448  20539373.78749
  -4141725.06248  -3227317.74846         0.00041  23363939.26346  23363936.71548
  -2290847.12208  -1785073.70308  21279041.40608  21279044.98508         0.00001
    707785.22548    551520.53144         0.00041  22763473.66144  22763470.76348
 94 02 22 01 40 30.0000000  0  5 02 07 09 13 26
  -3688362.44149  -2874050.95947         0.00041  21356614.28347  21356611.33849
  -8805882.91449  -6861720.59348         0.00041  20545248.72648  20545246.97949
  -4235362.52148  -3300281.94946         0.00041  23346120.21446  23346118.03448
  -2359750.14908  -1838764.33608  21265929.62808  21265933.12208         0.00001
    751053.68747    585236.21244         0.00041  22771709.28344  22771704.76447
 94 02 22 01 41 00.0000000  0  5 02 07 09 13 26
  -3658936.04349  -2851121.32448         0.00041  21362214.75148  21362211.79849
  -8774639.92849  -6837375.40348         0.00041  20551194.52148  20551192.57549
  -4328855.91448  -3373133.88946         0.00041  23328327.64046  23328326.15748
  -2428157.61808  -1892068.80708  21252912.07608  21252915.46608         0.00001
    794699.28647    619245.61644         0.00041  22780011.18144  22780008.44847
 94 02 22 01 41 30.0000000  0  5 02 07 09 13 26
  -3629323.98749  -2828047.02348         0.00041  21367849.80648  21367847.36549
  -8743003.15849  -6812723.37448         0.00041  20557214.61048  20557212.79849
  -4422196.78948  -3445866.98146         0.00041  23310564.72946  23310563.48248
  -2496058.83208  -1944978.79208  21239990.77108  21239994.08708         0.00001
    838720.17847    653547.64544         0.00041  22788389.49544  22788384.95547
 94 02 22 01 42 00.0000000  0  5 02 07 09 13 26
  -3599553.82149  -2804849.52248         0.00041  21373514.46548  21373512.55349
  -8710978.31349  -6787768.95348         0.00041  20563309.11148  20563306.81249
  -4515380.42648  -3518477.54846         0.00041  23292832.83246  23292830.94148
  -2563455.51608  -1997495.62908  21227165.60908  21227168.90808         0.00001
    883126.03047    688149.49044         0.00041  22796836.14544  22796837.65947
 94 02 22 01 42 30.0000000  0  5 02 07 09 13 26
  -3569611.11749  -2781517.57748         0.00041  21379212.23148  21379210.67549
  -8678543.39449  -6762494.99548         0.00041  20569481.34748  20569478.69449
  -4608389.77448  -3590952.29846         0.00041  23275134.14146  23275131.29748
  -2630329.82108  -2049605.41208  21214439.85308  21214443.17008         0.00001
    927953.13847    723079.67044         0.00041  22805376.02344  22805369.31347
 94 02 22 01 43 00.0000000  0  5 02 07 09 13 26
  -3539469.32049  -2758030.49547         0.00041  21384948.02347  21384946.01049
  -8645680.17149  -6736887.29548         0.00041  20575735.08148  20575732.29349
  -4701198.20748  -3663270.51046         0.00041  23257475.58546  23257470.49548
  -2696657.73608  -2101289.44308  21201818.06108  21201821.47508         0.00001
    973228.15847    758359.01044         0.00041  22813985.57844  22813984.78047
 94 02 22 01 43 30.0000000  0  5 02 07 09 13 26
  -3509096.32349  -2734363.23347         0.00041  21390727.65347  21390724.99049
  -8612365.55849  -6710927.86648         0.00041  20582074.75448  20582071.99449
  -4793781.21248  -3735413.07846         0.00041  23239856.02846  23239852.53248
  -2762410.32208  -2152525.16808  21189305.71608  21189309.26108         0.00001
   1018983.12147    794012.13744         0.00041  22822687.93144  22822690.67947
 94 02 22 01 44 00.0000000  0  6 02 07 09 12 13 26
  -3478490.35249  -2710514.42247         0.00041  21396551.42247  21396549.03649
  -8578632.05749  -6684642.03048         0.00041  20588494.27448  20588491.37349
  -4886132.20848  -3807374.83946         0.00041  23222283.68746  23222279.51248
         0.17117        -0.11216  24154391.02417  24154399.76116         0.00011
  -2827596.31308  -2203319.38908  21176901.17208  21176904.74108         0.00001
   1065203.06647    830027.63744         0.00041  22831485.58144  22831485.95047
 94 02 22 01 44 30.0000000  0  6 02 07 09 12 13 26
  -3447633.53949  -2686470.14647         0.00041  21402423.57747  21402421.47849
  -8544481.75649  -6658031.41548         0.00041  20594992.70948  20594990.04149
  -4978240.93048  -3879147.84046         0.00041  23204755.28346  23204751.70048
    -90838.43207    -70783.55406  24137104.96607  24137114.00706         0.00001
  -2892212.64808  -2253669.72108  21164605.03308  21164608.54308         0.00001
   1111866.78648    866388.91444         0.00041  22840367.48544  22840367.52848
 94 02 22 01 45 00.0000000  0  6 02 07 09 12 13 26
  -3416544.55349  -2662244.94647         0.00041  21408339.82547  21408337.49649
  -8509945.47049  -6631120.02648         0.00041  20601564.33248  20601561.89449
  -5070135.90748  -3950754.29046         0.00041  23187267.83046  23187264.61648
   -181654.70707   -141549.55707  24119823.51107  24119832.98807         0.00001
  -2956280.99808  -2303593.05008  21152413.20608  21152416.58008         0.00001
   1158945.90448    903073.88745         0.00041  22849324.47445  22849324.70948
 94 02 22 01 45 30.0000000  0  6 02 07 09 12 13 26
  -3385248.33249  -2637858.25747         0.00041  21414295.12847  21414292.43749
  -8475041.64949  -6603922.24048         0.00041  20608205.82348  20608203.61449
  -5161831.57848  -4022205.42546         0.00041  23169819.54646  23169816.04848
   -272472.66508   -212316.88607  24102541.41508  24102551.00407         0.00001
  -3019825.57908  -2353108.24708  21140321.04808  21140324.33508         0.00001
   1206411.39948    940059.90344         0.00041  22858363.98144  22858357.19848
 94 02 22 01 46 00.0000000  0  6 02 07 09 12 13 26
  -3353756.19849  -2613318.90547         0.00041  21420288.50947  21420285.28049
  -8439776.94349  -6576443.24248         0.00041  20614916.23248  20614914.63949
  -5253318.31048  -4093493.75846         0.00041  23152407.93546  23152406.40348
   -363299.46708   -283091.09407  24085257.68008  24085265.97507         0.00001
  -3082853.84008  -2402221.11808  21128326.99008  21128330.37908         0.00001
   1254248.18848    977335.20344         0.00041  22867461.81844  22867461.30748
 94 02 22 01 46 30.0000000  0  6 02 07 09 12 13 26
  -3322063.79849  -2588623.49247         0.00041  21426318.99847  21426316.32449
  -8404146.45849  -6548679.22048         0.00041  20621696.17548  20621695.38349
  -5344608.12848  -4164628.66146         0.00041  23135036.51546  23135034.81248
   -454130.32408   -353868.43007  24067973.07408  24067980.47007         0.00001
  -3145361.11208  -2450928.02508  21116432.22208  21116435.54308         0.00001
   1302458.45548   1014901.61744         0.00041  22876639.98744  22876633.80548
 94 02 22 01 47 00.0000000  0  6 02 07 09 12 13 26
  -3290177.25749  -2563776.80747         0.00041  21432386.37947  21432383.91649
  -8368164.77049  -6520641.53248         0.00041  20628543.24048  20628542.16049
  -5435709.10448  -4235616.38346         0.00041  23117700.89646  23117698.60548
   -544969.69708   -424652.37607  24050686.77308  24050693.78407         0.00001
  -3207352.28908  -2499232.78008  21104635.64908  21104638.96408         0.00001
   1351049.83348   1052765.01344         0.00041  22885882.68444  22885880.35448
 94 02 22 01 47 30.0000000  0  6 02 07 09 12 13 26
  -3258103.66649  -2538784.37847         0.00041  21438489.82747  21438487.20849
  -8331840.11949  -6492336.59348         0.00041  20635455.69148  20635453.86549
  -5526612.45648  -4306450.13846         0.00041  23100401.81046  23100399.95948
   -635819.90308   -495444.74407  24033398.52008  24033404.91907         0.00001
  -3268829.94908  -2547137.38908  21092936.69608  21092940.06708         0.00001
   1400008.01248   1090914.01444         0.00041  22895212.02144  22895198.76448
 94 02 22 01 48 00.0000000  0  6 02 07 09 12 13 26
  -3225836.40749  -2513641.03847         0.00041  21444630.11247  21444627.25449
  -8295187.07049  -6463775.74948         0.00041  20642430.66348  20642428.58849
  -5617328.96348  -4377138.28346         0.00041  23083137.95246  23083136.31048
   -726679.54308   -566244.43108  24016108.36408  24016114.76508         0.00001
  -3329793.15808  -2594641.13808  21081335.69308  21081339.09208         0.00001
   1449336.16247   1129351.57344         0.00041  22904594.20444  22904583.04847
 94 02 22 01 48 30.0000000  0  6 02 07 09 12 13 26
  -3193377.09549  -2488348.04947         0.00041  21450807.22847  21450804.77149
  -8258202.03749  -6434956.21748         0.00041  20649469.15348  20649467.28049
  -5707874.45148  -4447693.18746         0.00041  23065909.24546  23065906.12948
   -817546.05508   -637049.45908  23998817.05608  23998823.47008         0.00001
  -3390239.39308  -2641742.05108  21069833.18408  21069836.52308         0.00001
   1499036.71447   1168079.21244         0.00041  22914039.69844  22914039.24647
 94 02 22 01 49 00.0000000  0  5 02 07 09 12 13
  -3160749.86049  -2462924.21047         0.00041  21457015.90847  21457013.38049
  -8220889.86149  -6405881.76648         0.00041  20656569.67648  20656567.71049
  -5798262.24448  -4518125.18446         0.00041  23048709.27846  23048706.09748
   -908434.84008   -707871.83508  23981521.56008  23981527.97708         0.00001
  -3450184.72508  -2688452.65108  21058425.87308  21058429.24208         0.00001
 94 02 22 01 49 30.0000000  0  5 02 07 09 12 13
  -3127994.46749  -2437400.52347         0.00041  21463248.78147  21463246.29649
  -8183282.67549  -6376577.44048         0.00041  20663726.22248  20663724.10649
  -5888528.62548  -4588462.58046         0.00041  23031532.63846  23031529.17748
   -999376.88408   -778735.70608  23964215.78608  23964222.05108         0.00001
  -3509660.52808  -2734797.37808  21047107.91108  21047111.35508         0.00001
 94 02 22 01 50 00.0000000  0  5 02 07 09 12 13
  -3095073.84249  -2411748.07447         0.00041  21469514.01847  21469510.63649
  -8145333.17749  -6347006.37648         0.00041  20670947.80048  20670945.57849
  -5978636.23748  -4658676.24246         0.00041  23014386.37846  23014382.43848
  -1090330.52308   -849608.64208  23946907.96808  23946913.96608         0.00001
  -3568625.70208  -2780744.20608  21035887.14108  21035890.58308         0.00001
 94 02 22 01 50 30.0000000  0  6 02 07 09 12 13 26
  -3061958.64249  -2385944.00847         0.00041  21475815.21047  21475812.02449
  -8107006.14449  -6317141.13048         0.00041  20678240.98748  20678238.73749
  -6068558.32848  -4728745.31246         0.00041  22997274.49746  22997271.09648
  -1181266.36808   -920467.68808  23929603.52108  23929609.10108         0.00001
  -3627051.48408  -2826270.73208  21024769.07708  21024772.42708         0.00001
        -0.68558        -0.04654         0.00051  22952543.61654  22952543.70758
 94 02 22 01 51 00.0000000  0  6 02 07 09 12 13 26
  -3028672.00849  -2360006.36047         0.00041  21482150.02047  21482146.82149
  -8068339.19449  -6287011.01448         0.00041  20685598.46948  20685596.38649
  -6158306.73248  -4798679.04446         0.00041  22980195.54946  22980192.36948
  -1272215.43808   -991337.04008  23912296.76008  23912301.82608         0.00001
  -3684969.22508  -2871401.38808  21013747.81108  21013750.98308         0.00001
     51456.86348     40096.74944         0.00041  22962333.85944  22962335.20048
 94 02 22 01 51 30.0000000  0  6 02 07 09 12 13 26
  -2995185.00849  -2333912.58047         0.00041  21488521.72947  21488518.14349
  -8029318.23049  -6256605.04448         0.00041  20693024.01048  20693021.75849
  -6247835.75048  -4868441.82346         0.00041  22963158.37646  22963155.52348
  -1363152.13208  -1062196.72908  23894992.12208  23894996.87908         0.00001
  -3742353.93408  -2916116.70508  21002827.94708  21002830.99308         0.00001
    103252.23648     80456.69944         0.00041  22972198.00444  22972191.28748
 94 02 22 01 52 00.0000000  0  6 02 07 09 12 13 26
  -2961490.47149  -2307657.07547         0.00041  21494934.19247  21494930.06949
  -7989942.49949  -6225922.63548         0.00041  20700517.02148  20700514.48549
  -6337128.12448  -4938020.21346         0.00041  22946166.80446  22946163.55948
  -1454069.99808  -1133041.76908  23877690.94908  23877695.66608         0.00001
  -3799199.91808  -2960412.24408  20992010.50608  20992013.52108         0.00001
    155375.17148    121071.94744         0.00041  22982105.80244  22982109.75748
 94 02 22 01 52 30.0000000  0  6 02 07 09 12 13 26
  -2927583.19949  -2281235.81147         0.00041  21501386.63047  21501383.32549
  -7950217.46949  -6194968.04148         0.00041  20708076.55448  20708074.10949
  -6426164.93148  -5007399.45346         0.00041  22929223.61946  22929220.45048
  -1544963.54108  -1203867.82608  23860394.20908  23860399.17208         0.00001
  -3855502.06708  -3004284.00808  20981296.50008  20981299.54608         0.00001
    207820.34248    161938.30444         0.00041  22992084.02544  22992090.40348
 94 02 22 01 53 00.0000000  0  6 02 07 09 12 13 26
  -2893480.75149  -2254662.47347         0.00041  21507876.32347  21507873.35449
  -7910151.62549  -6163747.87948         0.00041  20715700.95448  20715698.29449
  -6514937.64648  -5076572.89846         0.00041  22912329.97046  22912327.49748
  -1635833.55508  -1274675.53808  23843101.79408  23843107.20808         0.00001
  -3911262.21708  -3047733.43008  20970685.60908  20970688.77108         0.00001
    260601.92348    203066.83044         0.00041  23002133.45744  23002134.17648
 94 02 22 01 53 30.0000000  0  6 02 07 09 12 13 26
  -2859174.04049  -2227929.97647         0.00041  21514404.57347  21514401.70449
  -7869745.47549  -6132262.54148         0.00041  20723390.24248  20723386.78149
  -6603450.94248  -5145544.19946         0.00041  22895486.52246  22895483.94648
  -1726662.17508  -1345450.96608  23825817.51608  23825822.98908         0.00001
  -3966463.15408  -3090747.10908  20960181.19208  20960184.30308         0.00001
    313750.84148    244481.47544         0.00041  23012242.48644  23012248.56848
 94 02 22 01 54 00.0000000  0  6 02 07 09 12 13 26
  -2824635.14649  -2201016.56747         0.00041  21520976.52047  21520974.43549
  -7828978.33149  -6100495.90648         0.00041  20731147.96748  20731144.24349
  -6691706.40148  -5214314.59546         0.00041  22878691.40246  22878689.04948
  -1817424.52008  -1416174.75408  23808545.68008  23808551.62908         0.00001
  -4021080.62708  -3133306.14108  20949787.76508  20949790.87908         0.00001
    367300.19148    286208.18944         0.00041  23022440.84244  23022438.41948
 94 02 22 01 54 30.0000000  0  6 02 07 09 12 13 26
  -2789883.42249  -2173937.33247         0.00041  21527589.69447  21527587.29349
  -7787864.43749  -6068459.07448         0.00041  20738971.42848  20738968.44849
  -6779743.01548  -5282914.43346         0.00041  22861938.05646  22861935.40248
  -1908141.11408  -1486862.89208  23791282.52108  23791288.96908         0.00001
  -4075136.06308  -3175427.22508  20939501.33508  20939504.45208         0.00001
    421235.45848    328235.56544         0.00041  23032705.43144  23032701.99448
 94 02 22 01 55 00.0000000  0  6 02 07 09 12 13 26
  -2754907.88849  -2146683.70647         0.00041  21534245.42247  21534242.83149
  -7746398.13249  -6036147.65348         0.00041  20746861.85948  20746859.74049
  -6867569.11548  -5351350.25546         0.00041  22845226.34046  22845222.21048
  -1998802.64508  -1557508.15808  23774029.98408  23774036.46508         0.00001
  -4128620.59508  -3217103.44808  20929323.52008  20929326.66408         0.00001
    475567.34347    370572.13144         0.00041  23043046.74744  23043040.80447
 94 02 22 01 55 30.0000000  0  6 02 07 09 12 13 26
  -2719721.65049  -2119265.89647         0.00041  21540941.29247  21540938.23649
  -7704605.13349  -6003581.67448         0.00041  20754814.76248  20754812.82849
  -6955200.51448  -5419634.34346         0.00041  22828550.90946  22828546.95348
  -2089432.11008  -1628128.44208  23756783.56708  23756790.33708         0.00001
  -4181558.54008  -3258353.74808  20919249.69008  20919252.94108         0.00001
    530254.75547    413185.49744         0.00041  23053447.41244  23053447.30047
 94 02 22 01 56 00.0000000  0  6 02 07 09 12 13 26
  -2684337.10149  -2091693.55747         0.00041  21547674.62347  21547671.82749
  -7662483.37649  -5970759.52648         0.00041  20762830.06548  20762828.39749
  -7042627.92048  -5487759.49746         0.00041  22811913.86746  22811910.35048
  -2180045.92808  -1698736.53408  23739540.15808  23739547.10708         0.00001
  -4233966.95808  -3299191.42308  20909276.76908  20909279.99008         0.00001
    585262.83147    456049.07044         0.00041  23063918.38944  23063913.78447
 94 02 22 01 56 30.0000000  0  6 02 07 09 12 13 26
  -2648789.95749  -2063994.54247         0.00041  21554439.01347  21554436.22349
  -7620052.85749  -5937696.79248         0.00041  20770904.15248  20770902.67549
  -7129852.49548  -5555726.59946         0.00041  22795315.87246  22795312.23148
  -2270668.99308  -1769351.80708  23722295.26308  23722301.74408         0.00001
  -4285871.84908  -3339636.73608  20899399.63908  20899402.83608         0.00001
    640561.28047    499138.48344         0.00041  23074446.26644  23074435.95747
 94 02 22 01 57 00.0000000  0  6 02 07 09 12 13 26
  -2613063.00149  -2036155.40847         0.00041  21561237.82447  21561234.56249
  -7577311.16849  -5904391.59148         0.00041  20779037.63848  20779036.27449
  -7216834.53648  -5623504.71746         0.00041  22778764.23446  22778760.25548
  -2361278.81808  -1839956.79508  23705052.82108  23705058.95808         0.00001
  -4337251.44508  -3379672.72408  20889622.40208  20889625.60208         0.00001
    696166.04248    542466.76744         0.00041  23085021.12844  23085019.22148
 94 02 22 01 57 30.0000000  0  6 02 07 09 12 13 26
  -2577138.83349  -2008162.60047         0.00041  21568073.74747  21568071.43849
  -7534238.62649  -5870828.59648         0.00041  20787234.48048  20787232.75949
  -7303550.45748  -5691075.47246         0.00041  22762262.69346  22762258.90748
  -2451856.48708  -1910536.62408  23687816.39008  23687821.96708         0.00001
  -4388088.25908  -3419285.76808  20879948.40308  20879951.57208         0.00001
    752082.79648    586038.17344         0.00041  23095662.90244  23095661.33748
 94 02 22 01 58 00.0000000  0  5 02 07 09 12 13
  -2541043.15049  -1980036.15247         0.00041  21574942.43947  21574940.03949
  -7490853.34549  -5837021.90848         0.00041  20795490.47948  20795488.73249
  -7390029.94448  -5758461.98446         0.00041  22745806.45546  22745801.96948
  -2542420.23408  -1981105.63708  23670582.72208  23670587.70108         0.00001
  -4438401.25908  -3458490.64808  20870374.09308  20870377.19708         0.00001
 94 02 22 01 58 30.0000000  0  5 02 07 09 12 13
  -2504787.74749  -1951785.24247         0.00041  21581841.61247  21581839.08949
  -7447178.28049  -5802989.42248         0.00041  20803801.43948  20803800.01249
  -7476291.58548  -5825678.75046         0.00041  22729390.59946  22729386.88548
  -2632971.43608  -2051664.89308  23653351.36008  23653355.87608         0.00001
  -4488192.57109  -3497289.01908  20860899.08409  20860902.04308         0.00001
 94 02 22 01 59 00.0000000  0  5 02 07 09 12 13
  -2468311.08349  -1923361.90647         0.00041  21588782.53647  21588779.51549
  -7403172.28549  -5768699.07048         0.00041  20812175.46048  20812173.87849
  -7562292.50948  -5892692.36646         0.00041  22713025.31846  22713021.30748
  -2723453.94308  -2122170.60008  23636132.94708  23636137.12108         0.00001
  -4537407.56709  -3535638.31508  20851533.71109  20851536.59808         0.00001
 94 02 22 01 59 30.0000000  0  5 02 07 09 12 13
  -2431597.28249  -1894753.79047         0.00041  21595769.02147  21595766.11049
  -7358813.24949  -5734133.62048         0.00041  20820616.74848  20820614.54049
  -7648027.11448  -5959498.47846         0.00041  22696710.50246  22696706.47348
  -2813856.27508  -2192613.82208  23618929.70308  23618934.00908         0.00001
  -4586035.73809  -3573530.34808  20842280.02509  20842282.78008         0.00001
 94 02 22 02 00 00.0000000  0  5 02 07 09 12 13
  -2394663.03049  -1865973.88847         0.00041  21602797.81047  21602794.92249
  -7314128.22649  -5699314.14448         0.00041  20829120.23148  20829117.60649
  -7733508.45548  -6026107.25146         0.00041  22680443.63746  22680439.65148
  -2904196.15008  -2263008.40908  23601738.21908  23601742.98408         0.00001
  -4634096.08709  -3610979.93108  20833134.40009  20833137.12308         0.00001
 94 02 22 02 00 30.0000000  0  5 02 07 09 12 13
  -2357493.24549  -1837010.44947         0.00041  21609871.10647  21609868.14449
  -7269116.15549  -5664239.83348         0.00041  20837685.78448  20837683.21049
  -7818719.76048  -6092505.59446         0.00041  22664228.34846  22664225.13348
  -2994469.11108  -2333350.85308  23584559.48308  23584564.78208         0.00001
  -4681585.13409  -3647984.34608  20824097.50609  20824100.22608         0.00001
 94 02 22 02 01 00.0000000  0  5 02 07 09 12 13
  -2320095.58149  -1807869.43947         0.00041  21616988.09047  21616985.36149
  -7223798.23449  -5628927.19448         0.00041  20846309.77348  20846307.51449
  -7903673.75048  -6158703.43246         0.00041  22648061.89546  22648059.48448
  -3084697.41808  -2403658.51408  23567389.64308  23567395.26008         0.00001
  -4728526.66909  -3684562.12208  20815164.79309  20815167.69008         0.00001
 94 02 22 02 01 30.0000000  0  5 02 07 09 12 13
  -2282489.88749  -1778566.32947         0.00041  21624144.10047  21624142.22549
  -7178193.46249  -5593391.03848         0.00041  20854988.30748  20854985.98749
  -7988372.37948  -6224702.28646         0.00041  22631943.19146  22631941.50948
  -3174900.18808  -2473946.25908  23550224.72308  23550230.58408         0.00001
  -4774941.08309  -3720729.14808  20806332.37809  20806335.50708         0.00001
 94 02 22 02 02 00.0000000  0  5 02 07 09 12 13
  -2244677.32149  -1749102.01947         0.00041  21631339.88147  21631336.97649
  -7132304.19149  -5557633.19048         0.00041  20863720.92848  20863718.13549
  -8072804.26748  -6290493.29846         0.00041  22615876.31746  22615874.36248
  -3265075.87908  -2544212.89608  23533064.91008  23533070.63808         0.00001
  -4820828.08409  -3756485.20208  20797600.33909  20797603.42508         0.00001
 94 02 22 02 02 30.0000000  0  5 02 07 09 12 13
  -2206670.30049  -1719486.17247         0.00041  21638571.81247  21638569.03949
  -7086130.56349  -5521653.75148         0.00041  20872507.56948  20872504.63649
  -8156973.98548  -6356080.01746         0.00041  22599858.95446  22599857.19248
  -3355225.96708  -2614459.57908  23515910.18408  23515915.56308         0.00001
  -4866190.38609  -3791832.39808  20788968.15709  20788971.17808         0.00001
 94 02 22 02 03 00.0000000  0  5 02 07 09 12 13
  -2168487.89549  -1689733.65147         0.00041  21645837.77647  21645835.53249
  -7039681.21749  -5485459.46648         0.00041  20881346.29048  20881343.83749
  -8240887.35048  -6421466.98546         0.00041  22583890.32446  22583888.44248
  -3445349.83408  -2684685.79008  23498760.27008  23498765.35808         0.00001
  -4911028.81709  -3826771.38608  20780435.66209  20780438.60408         0.00001
 94 02 22 02 03 30.0000000  0  5 02 07 09 12 13
  -2130153.11249  -1659862.40347         0.00041  21653132.63447  21653130.32249
  -6992949.13249  -5449044.86648         0.00041  20890239.23548  20890236.77349
  -8324542.87248  -6486653.03546         0.00041  22567970.94646  22567968.90048
  -3535447.47808  -2754891.56008  23481615.19808  23481619.94908         0.00001
  -4955344.79109  -3861303.26908  20772002.54009  20772005.34908         0.00001
 94 02 22 02 04 00.0000000  0  5 02 07 09 12 13
  -2091642.31449  -1629853.99947         0.00041  21660460.66747  21660458.51849
  -6945900.68749  -5412383.75148         0.00041  20899192.28248  20899190.16249
  -8407922.99248  -6551624.49346         0.00041  22552105.49846  22552102.60148
  -3625482.16808  -2825048.28208  23464482.10508  23464486.59608         0.00001
  -4999102.97109  -3895400.51308  20763675.54109  20763678.36308         0.00001
 94 02 22 02 04 30.0000000  0  6 02 04 07 09 12 13
  -2052913.19849  -1599675.47647         0.00041  21667830.72347  21667828.14249
        -0.81158         0.12454         0.00051  22230125.75554  22230130.04858
  -6898505.35449  -5375452.32748         0.00041  20908211.48548  20908208.95449
  -8490989.48348  -6616351.56846         0.00041  22536299.31046  22536296.01148
  -3715405.57408  -2895118.28308  23447370.17808  23447374.42008         0.00001
  -5042256.54609  -3929026.63408  20755463.59809  20755466.37408         0.00001
 94 02 22 02 05 00.0000000  0  6 02 04 07 09 12 13
  -2013973.93049  -1569333.20447         0.00041  21675240.56647  21675237.91249
    -86882.17048    -67699.54044         0.00041  22213597.55044  22213596.48448
  -6850788.32349  -5338270.22148         0.00041  20917291.69848  20917289.09649
  -8573757.44848  -6680846.02546         0.00041  22520549.04846  22520545.47148
  -3805235.01008  -2965115.05608  23430275.88008  23430280.14408         0.00001
  -5084824.21309  -3962196.20408  20747363.19809  20747366.05108         0.00001
 94 02 22 02 05 30.0000000  0  6 02 04 07 09 12 13
  -1974783.14849  -1538794.95447         0.00041  21682698.12147  21682696.02749
   -173410.13548   -135123.70844         0.00041  22197128.54444  22197130.65048
  -6802721.40449  -5300815.47948         0.00041  20926438.33648  20926435.96749
  -8656196.97748  -6745084.57146         0.00041  22504861.10946  22504857.35748
  -3894945.26808  -3035018.96508  23413204.31608  23413208.79208         0.00001
  -5126782.59409  -3994891.00208  20739378.75909  20739381.70708         0.00001
 94 02 22 02 06 00.0000000  0  6 02 04 07 09 12 13
  -1935364.20649  -1508078.91247         0.00041  21690198.98447  21690196.99249
   -259631.90848   -202309.36844         0.00041  22180729.19644  22180723.28148
  -6754367.96849  -5263137.48548         0.00041  20935639.38848  20935637.23949
  -8738370.80448  -6809116.06646         0.00041  22489223.75746  22489219.93648
  -3984583.80308  -3104866.98108  23396146.47208  23396151.15708         0.00001
  -5168180.49508  -4027149.06008  20731500.97308  20731503.96308         0.00001
 94 02 22 02 06 30.0000000  0  6 02 04 07 09 12 13
  -1895689.67049  -1477163.71147         0.00041  21697748.87347  21697746.92249
   -345534.78048   -269246.47944         0.00041  22164370.98544  22164376.04748
  -6705717.32149  -5225227.89848         0.00041  20944896.98148  20944895.11249
  -8820262.67648  -6872927.85346         0.00041  22473639.76146  22473636.41548
  -4074137.97908  -3174649.26008  23379104.73808  23379109.82608         0.00001
  -5209006.90408  -4058961.79308  20723731.91708  20723734.86208         0.00001
 94 02 22 02 07 00.0000000  0  6 02 04 07 09 12 13
  -1855805.57949  -1446085.20947         0.00041  21705338.93547  21705336.52549
   -431167.49848   -335973.29244         0.00041  22148070.70044  22148080.74748
  -6656810.64749  -5187118.81048         0.00041  20954203.62248  20954202.03649
  -8901909.83648  -6936548.94346         0.00041  22458102.74646  22458099.67348
  -4163655.48008  -3244402.96608  23362069.94308  23362075.57908         0.00001
  -5249311.35108  -4090367.81108  20716062.21008  20716065.08608         0.00001
 94 02 22 02 07 30.0000000  0  6 02 04 07 09 12 13
  -1815712.00249  -1414843.46347         0.00041  21712968.68047  21712966.18049
   -516526.13648   -402486.38444         0.00041  22131841.49844  22131837.95548
  -6607642.21549  -5148805.74248         0.00041  20963560.07048  20963558.50849
  -8983302.71248  -6999971.87846         0.00041  22442613.36646  22442611.05648
  -4253128.49708  -3314121.99308  23345043.64308  23345049.43408         0.00001
  -5289087.43508  -4121362.11808  20708493.06908  20708495.88308         0.00001
 94 02 22 02 08 00.0000000  0  6 02 04 07 09 12 13
  -1775408.88149  -1383438.42447         0.00041  21720638.12847  21720636.10749
   -601587.81548   -468768.03044         0.00041  22115652.45544  22115651.57248
  -6558202.09449  -5110280.96548         0.00041  20972968.34148  20972966.55049
  -9064434.34148  -7063191.23646         0.00041  22427174.01046  22427171.92148
  -4342542.99808  -3383795.41208  23328028.25008  23328034.33008         0.00001
  -5328323.07208  -4151935.29108  20701026.68408  20701029.51608         0.00001
 94 02 22 02 08 30.0000000  0  6 02 04 07 09 12 13
  -1734885.67449  -1351861.88147         0.00041  21728349.61847  21728346.92449
   -686339.50448   -534808.32544         0.00041  22099523.18344  22099523.19348
  -6508468.69749  -5071527.65048         0.00041  20982431.89748  20982430.36049
  -9145253.52148  -7126167.13646         0.00041  22411794.76446  22411792.40148
  -4431874.45808  -3453404.12308  23311028.67908  23311034.79108         0.00001
  -5366995.22208  -4182069.38108  20693667.55608  20693670.31908         0.00001
 94 02 22 02 09 00.0000000  0  6 02 04 07 09 12 13
  -1694161.76449  -1320128.93847         0.00041  21736099.11647  21736095.51149
   -770800.31547   -600621.93144         0.00041  22083450.19844  22083446.73847
  -6458459.22049  -5032559.19748         0.00041  20991948.50648  20991946.81349
  -9225765.80348  -7188903.89146         0.00041  22396474.76246  22396471.38348
  -4521134.89808  -3522957.52208  23294042.64208  23294048.72508         0.00001
  -5405117.75208  -4211775.19908  20686412.99808  20686415.82208         0.00001
 94 02 22 02 09 30.0000000  0  5 02 07 09 12 13
  -1653242.46949  -1288243.73847         0.00041  21743885.09147  21743882.06349
  -6408188.07749  -4993386.83548         0.00041  21001515.15948  21001513.18149
  -9305995.70248  -7251420.60246         0.00041  22381207.52846  22381204.17048
  -4610334.32908  -3592463.39608  23277068.51308  23277074.07408         0.00001
  -5442702.77008  -4241062.17608  20679260.72408  20679263.53408         0.00001
 94 02 22 02 10 00.0000000  0  5 02 07 09 12 13
  -1612064.61949  -1256157.07247         0.00041  21751721.18447  21751718.16949
  -6357608.30249  -4953973.96748         0.00041  21011140.12848  21011137.92849
  -9385891.64448  -7313677.07846         0.00041  22366004.10446  22366000.94648
  -4699415.50508  -3661877.14508  23260116.92008  23260122.00808         0.00001
  -5479694.47008  -4269886.83108  20672221.47708  20672224.24008         0.00001
 94 02 22 02 10 30.0000000  0  5 02 07 09 12 13
  -1570597.15849  -1223844.74447         0.00041  21759612.96847  21759609.71849
  -6306700.79149  -4914305.70948         0.00041  21020827.52048  21020824.78149
  -9465416.08048  -7375644.05346         0.00041  22350871.21746  22350867.83748
  -4788348.29908  -3731175.24008  23243193.61208  23243198.09308         0.00001
  -5516065.01708  -4298227.46808  20665300.46908  20665303.14608         0.00001
 94 02 22 02 11 00.0000000  0  5 02 07 09 12 13
  -1528931.40849  -1191377.90647         0.00041  21767540.59547  21767537.76449
  -6255548.10049  -4874446.41147         0.00041  21030561.61447  21030558.97349
  -9544672.39448  -7437402.09346         0.00041  22335788.85446  22335785.64648
  -4877214.86508  -3800421.73508  23226282.81908  23226286.80108         0.00001
  -5551898.24508  -4326149.41908  20658481.71608  20658484.37008         0.00001
 94 02 22 02 11 30.0000000  0  5 02 07 09 12 13
  -1487087.61649  -1158772.33147         0.00041  21775503.02747  21775500.12149
  -6204172.41549  -4834413.34947         0.00041  21040338.01347  21040335.49449
  -9623682.89448  -7498968.59546         0.00041  22320753.44646  22320749.30848
  -4966032.02108  -3869629.73608  23209381.20608  23209385.04808         0.00001
  -5587213.22708  -4353667.53308  20651761.45908  20651764.20608         0.00001
 94 02 22 02 12 00.0000000  0  5 02 07 09 12 13
  -1445062.17049  -1126025.21447         0.00041  21783500.41447  21783497.90449
  -6152575.60149  -4794207.99647         0.00041  21050156.09147  21050153.88649
  -9702414.21748  -7560317.55946         0.00041  22305769.74246  22305766.51648
  -5054790.09808  -3938791.70008  23192490.65508  23192494.50508         0.00001
  -5622001.75808  -4380775.42508  20645141.29308  20645144.21108         0.00001
 94 02 22 02 12 30.0000000  0  5 02 07 09 12 13
  -1402856.44249  -1093137.62047         0.00041  21791531.74947  21791529.45649
  -6100747.35649  -4753822.32147         0.00041  21060018.49047  21060016.71149
  -9780850.79648  -7621436.84646         0.00041  22290843.29246  22290840.22948
  -5143480.82108  -4007901.19708  23175613.02508  23175617.05408         0.00001
  -5656257.85008  -4407468.42308  20638622.43308  20638625.51908         0.00001
 94 02 22 02 13 00.0000000  0  5 02 07 09 12 13
  -1360473.50249  -1060111.94247         0.00041  21799597.11647  21799595.24449
  -6048689.03849  -4713257.37247         0.00041  21069924.79947  21069923.09249
  -9858996.37148  -7682329.35546         0.00041  22275972.26546  22275970.16948
  -5232107.09708  -4076960.49508  23158747.75408  23158751.86508         0.00001
  -5689986.65308  -4433750.54808  20632203.95108  20632207.06708         0.00001
 94 02 22 02 13 30.0000000  0  5 02 07 09 12 13
  -1317911.67549  -1026946.86947         0.00041  21807696.62247  21807694.30549
  -5996401.08849  -4672513.47647         0.00041  21079875.30047  21079873.11149
  -9936831.55448  -7742980.00146         0.00041  22261160.98546  22261159.12248
  -5320671.98808  -4145971.96908  23141894.19708  23141898.74008         0.00001
  -5723193.09508  -4459625.64008  20625884.91308  20625888.04408         0.00001
 94 02 22 02 14 00.0000000  0  5 02 07 09 12 13
  -1275161.57949   -993635.07947         0.00041  21815832.16047  21815828.46349
  -5943854.33549  -4631567.90948         0.00041  21089874.24248  21089871.71949
 -10014335.06248  -7803372.19346         0.00041  22246412.00146  22246410.75948
  -5409154.41008  -4214919.18108  23125056.33908  23125061.00008         0.00001
  -5755858.33708  -4485079.02608  20619668.83808  20619671.95408         0.00001
 94 02 22 02 14 30.0000000  0  6 02 04 07 09 12 13
  -1232194.59249   -960154.27347         0.00041  21824008.28747  21824004.87249
        -1.23058        -0.92554         0.00051  21910660.18854  21910659.31758
  -5890993.64549  -4590377.71148         0.00041  21099933.23148  21099930.63549
 -10091481.60248  -7863486.25246         0.00041  22231732.53546  22231729.66348
  -5497513.45108  -4283770.23208  23108242.18808  23108246.57308         0.00001
  -5787943.65308  -4510080.51808  20613563.19208  20613566.26308         0.00001
 94 02 22 02 15 00.0000000  0  7 02 04 07 09 12 13 24
  -1188969.21249   -926472.11847         0.00041  21832233.61947  21832230.93349
    -80497.30648    -62724.97644         0.00041  21895333.10344  21895340.00948
  -5837780.02349  -4548912.49348         0.00041  21110059.43648  21110057.46349
 -10168229.39948  -7923289.62446         0.00041  22217127.56946  22217124.00148
  -5585704.76208  -4352490.56708  23091460.08608  23091464.04708         0.00001
  -5819406.80808  -4534597.20308  20607575.87508  20607578.94308         0.00001
        -0.67257        -0.42754         0.00051  23887489.23054  23887490.40057
 94 02 22 02 15 30.0000000  0  7 02 04 07 09 12 13 24
  -1145454.05649   -892564.15447         0.00041  21840514.29647  21840511.15349
   -160545.24848   -125099.79744         0.00041  21880105.28144  21880107.16848
  -5784195.22649  -4507158.04448         0.00041  21120255.99548  21120254.60449
 -10244554.24248  -7982763.43846         0.00041  22202603.96646  22202600.10148
  -5673695.62008  -4421054.69308  23074715.98808  23074719.58208         0.00001
  -5850217.23508  -4558605.26208  20601712.73408  20601715.81308         0.00001
   -106879.86047    -83282.14744         0.00041  23867152.39044  23867152.05847
 94 02 22 02 16 00.0000000  0  7 02 04 07 09 12 13 24
  -1101718.42949   -858484.39947         0.00041  21848837.33247  21848833.86149
   -240210.07848   -187176.12244         0.00041  21864952.86844  21864946.99848
  -5730326.18149  -4465182.10448         0.00041  21130506.39848  21130505.41349
 -10320538.38948  -8041971.79246         0.00041  22188143.67046  22188140.83348
  -5761549.68508  -4489512.22008  23057997.94008  23058001.20808         0.00001
  -5880440.93608  -4582156.12608  20595961.36908  20595964.31008         0.00001
   -213649.35347   -166478.65644         0.00041  23846838.42744  23846835.17247
 94 02 22 02 16 30.0000000  0  7 02 04 07 09 12 13 24
  -1057778.59349   -824245.53247         0.00041  21857198.32747  21857195.80649
   -319520.93048   -248976.64944         0.00041  21849859.21044  21849855.05048
  -5676226.74449  -4423026.63548         0.00041  21140801.41148  21140800.17649
 -10396210.60948  -8100937.07446         0.00041  22173744.24546  22173741.52848
  -5849296.48408  -4557886.16208  23041300.37308  23041303.27508         0.00001
  -5910109.73309  -4605274.59808  20590315.67109  20590318.43608         0.00001
   -320340.13947   -249614.48844         0.00041  23826531.07044  23826531.67547
 94 02 22 02 17 00.0000000  0  7 02 04 07 09 12 13 24
  -1013617.57749   -789834.31647         0.00041  21865600.70647  21865599.03249
   -398480.36048   -310503.36244         0.00041  21834836.55144  21834829.65448
  -5621914.03149  -4380704.97848         0.00041  21151136.68048  21151135.26249
 -10471577.40548  -8159664.35746         0.00041  22159402.28946  22159399.89248
  -5936934.88508  -4626175.64608  23024623.32108  23024626.21808         0.00001
  -5939224.78809  -4627961.58708  20584775.36709  20584777.83008         0.00001
   -426946.06047   -332684.79044         0.00041  23806244.38544  23806244.77547
 94 02 22 02 17 30.0000000  0  6 02 04 07 09 12 13
   -969236.64149   -755251.73747         0.00041  21874046.19047  21874044.04449
   -477088.63348   -371756.31244         0.00041  21819871.35844  21819870.18748
  -5567387.84149  -4338216.98347         0.00041  21161512.69747  21161511.38049
 -10546632.99848  -8218149.11946         0.00041  22145119.25746  22145117.47348
  -6024467.07108  -4694382.36808  23007966.56008  23007969.57108         0.00001
  -5967790.51809  -4650220.52808  20579339.43409  20579341.81608         0.00001
 94 02 22 02 18 00.0000000  0  6 02 04 07 09 12 13
   -924615.96849   -720482.35447         0.00041  21882537.84047  21882535.88349
   -555328.98748   -432722.74144         0.00041  21804978.57444  21804978.95948
  -5512618.01949  -4295539.15447         0.00041  21171934.58247  21171933.80349
 -10621343.45148  -8276364.94146         0.00041  22130902.77546  22130900.89548
  -6111873.52408  -4762491.14408  22991333.62208  22991336.83708         0.00001
  -5995789.93909  -4672038.18508  20574011.18309  20574013.74308         0.00001
 94 02 22 02 18 30.0000000  0  6 02 04 07 09 12 13
   -879738.47849   -685512.85647         0.00041  21891078.55247  21891075.74349
   -633186.50048   -493390.76544         0.00041  21790168.11344  21790163.05948
  -5457584.16749  -4252655.58747         0.00041  21182406.82247  21182405.76649
 -10695687.77148  -8334295.45646         0.00041  22116754.74546  22116753.57648
  -6199144.03308  -4830494.00008  22974726.44708  22974730.05008         0.00001
  -6023215.42109  -4693408.60808  20568792.15609  20568794.84408         0.00001
 94 02 22 02 19 00.0000000  0  6 02 04 07 09 12 13
   -834643.31049   -650373.74347         0.00041  21899659.15947  21899657.17149
   -710701.41148   -553791.84744         0.00041  21775420.27444  21775413.48248
  -5402316.68949  -4209589.97747         0.00041  21192924.38047  21192922.52749
 -10769695.34648  -8391963.56746         0.00041  22102671.34046  22102670.11748
  -6286315.14508  -4898419.42308  22958138.05708  22958142.02508         0.00001
  -6050105.71909  -4714361.99708  20563674.96909  20563677.67008         0.00001
 94 02 22 02 19 30.0000000  0  6 02 04 07 09 12 13
   -789325.66549   -615061.26547         0.00041  21908282.87747  21908280.51749
   -787861.93048   -613916.82045         0.00041  21760731.19345  21760731.55648
  -5346793.65849  -4166325.22747         0.00041  21203490.11247  21203488.62749
 -10843336.49748  -8449346.13646         0.00041  22088658.27146  22088656.08248
  -6373374.36108  -4966257.69908  22941570.88508  22941575.19108         0.00001
  -6076450.76209  -4734890.51308  20558661.67409  20558664.25808         0.00001
 94 02 22 02 20 00.0000000  0  6 02 04 07 09 12 13
   -743791.98848   -579580.45247         0.00041  21916947.37647  21916944.75448
   -864666.64347   -673764.56844         0.00041  21746117.89644  21746115.00547
  -5291037.49049  -4122878.82047         0.00041  21214099.65247  21214098.96849
 -10916631.52948  -8506458.98546         0.00041  22074709.39546  22074708.30548
  -6460330.48208  -5034015.63408  22925023.27008  22925027.89308         0.00001
  -6102262.10209  -4755003.16508  20553749.96409  20553752.31708         0.00001
 94 02 22 02 20 30.0000000  0  7 02 04 05 07 09 12 13
   -698023.35248   -543916.54246         0.00041  21925657.07946  21925654.11448
   -941088.64747   -733314.00044         0.00041  21731577.58344  21731571.39647
         0.23657         0.51154         0.00051  24736008.94554  24735999.35457
  -5235038.80049  -4079243.43447         0.00041  21224756.53647  21224755.43249
 -10989574.72248  -8563297.70246         0.00041  22060829.64146  22060827.36348
  -6547164.23308  -5101678.21208  22908499.17308  22908503.85608         0.00001
  -6127522.94009  -4774686.85708  20548942.87709  20548945.08408         0.00001
 94 02 22 02 21 00.0000000  0  7 02 04 05 07 09 12 13
   -652033.01148   -508079.86846         0.00041  21934408.23546  21934405.98148
  -1017129.16247   -792566.27544         0.00041  21717109.33344  21717101.90447
    -79031.24447    -61582.36744         0.00041  24720964.58344  24720959.38847
  -5178810.59449  -4035429.20047         0.00041  21235456.68547  21235454.88449
 -11062181.70548  -8619874.44046         0.00041  22047012.80146  22047010.38148
  -6633879.56408  -5169248.51508  22891997.89108  22892002.21708         0.00001
  -6152239.75909  -4793946.64308  20544239.30609  20544241.53608         0.00001
 94 02 22 02 21 30.0000000  0  6 02 05 07 09 12 13
   -605863.64848   -472103.69646         0.00041  21943193.68646  21943191.17748
   -158135.08348   -123221.57044         0.00041  24705911.53144  24705905.91448
  -5122396.64549  -3991470.22548         0.00041  21246192.40848  21246190.14749
 -11134487.40948  -8676216.42347         0.00041  22033253.72147  22033251.37948
  -6720502.22108  -5236746.62208  22875514.41708  22875518.05308         0.00001
  -6176440.99609  -4812804.67108  20539633.82309  20539636.17708         0.00001
 94 02 22 02 22 00.0000000  0  6 02 05 07 09 12 13
   -559498.48148   -435974.94846         0.00041  21952017.14146  21952013.37248
   -237282.61248   -184894.85344         0.00041  24690846.85244  24690844.66348
  -5065798.00249  -3947367.31548         0.00041  21256962.72348  21256960.28349
 -11206482.27548  -8732316.20047         0.00041  22019553.48847  22019551.80948
  -6807010.74308  -5304155.77608  22859052.92908  22859055.59308         0.00001
  -6200107.80708  -4831246.25308  20535130.12308  20535132.58008         0.00001
 94 02 22 02 22 30.0000000  0  6 02 05 07 09 12 13
   -512906.89348   -399669.77146         0.00041  21960883.82846  21960879.91748
   -316435.04648   -246571.87744         0.00041  24675786.25744  24675782.14848
  -5008969.26749  -3903085.10747         0.00041  21267776.67047  21267774.21749
 -11278115.44149  -8788134.13447         0.00041  22005922.15247  22005920.64949
  -6893360.11508  -5371440.89308  22842621.33908  22842623.58208         0.00001
  -6223197.87508  -4849238.41608  20530736.06508  20530738.68308         0.00001
 94 02 22 02 23 00.0000000  0  6 02 05 07 09 12 13
   -466115.69648   -363209.05546         0.00041  21969787.78346  21969785.05548
   -395616.10747   -308271.43244         0.00041  24660708.30444  24660712.61847
  -4951937.59949  -3858644.78147         0.00041  21278629.17847  21278626.56649
 -11349394.37449  -8843676.05247         0.00041  21992358.16447  21992356.89149
  -6979562.73808  -5438611.62108  22826217.47608  22826219.62208         0.00001
  -6245726.27708  -4866792.91008  20526448.99708  20526451.59008         0.00001
 94 02 22 02 23 30.0000000  0  6 02 05 07 09 12 13
   -419119.71248   -326588.75746         0.00041  21978730.39146  21978728.42448
   -474822.42547   -369990.50744         0.00041  24645640.94044  24645638.76647
  -4894685.41449  -3814032.62047         0.00041  21289523.45447  21289520.47849
 -11420297.73149  -8898925.30747         0.00041  21978865.51947  21978864.10949
  -7065610.98208  -5505662.03208  22809842.83008  22809845.10308         0.00001
  -6267688.18108  -4883905.97308  20522269.76408  20522272.32608         0.00001
 94 02 22 02 24 00.0000000  0  6 02 05 07 09 12 13
   -371902.41948   -289796.03046         0.00041  21987714.67646  21987712.30048
   -554073.33547   -431744.21844         0.00041  24630556.54544  24630557.64347
  -4837193.21649  -3769233.43647         0.00041  21300464.04647  21300461.08949
 -11490809.51049  -8953869.44647         0.00041  21965447.83747  21965445.82949
  -7151504.28908  -5572591.72308  22793497.54508  22793500.26308         0.00001
  -6289085.80108  -4900579.33408  20518197.84608  20518200.44608         0.00001
 94 02 22 02 24 30.0000000  0  6 02 05 07 09 12 13
   -324442.98248   -252814.61546         0.00041  21996744.79046  21996743.27848
   -633352.13147   -493519.94744         0.00041  24615476.42244  24615472.76647
  -4779423.71249  -3724218.18247         0.00041  21311457.01347  21311455.16549
 -11560901.56748  -9008486.53747         0.00041  21952109.75447  21952106.80448
  -7237221.63208  -5639384.31208  22777185.79008  22777188.87208         0.00001
  -6309900.78808  -4916798.69608  20514236.78008  20514239.43208         0.00001
 94 02 22 02 25 00.0000000  0  5 02 07 09 12 13
   -276751.64548   -215652.51146         0.00041  22005820.44346  22005819.88848
  -4721405.41749  -3679009.08247         0.00041  21322496.93447  21322495.93049
 -11630595.51248  -9062793.40547         0.00041  21938847.21747  21938844.44748
  -7322787.35208  -5706058.76608  22760903.00908  22760906.36308         0.00001
  -6330160.41208  -4932585.31408  20510381.50208  20510384.09708         0.00001
 94 02 22 02 25 30.0000000  0  5 02 07 09 12 13
   -228798.06648   -178286.06146         0.00041  22014945.04946  22014944.77148
  -4663121.55249  -3633593.03747         0.00041  21333588.03247  21333586.62649
 -11699879.14048  -9116780.54847         0.00041  21925662.76147  21925660.27148
  -7408189.51008  -5772605.77808  22744651.42008  22744654.89708         0.00001
  -6349855.71808  -4947932.20708  20506633.60208  20506636.02508         0.00001
 94 02 22 02 26 00.0000000  0  5 02 07 09 12 13
   -180580.67848   -140714.03146         0.00041  22024120.44646  22024120.98348
  -4604586.68749  -3587981.41047         0.00041  21344727.05547  21344725.63449
 -11768758.89648  -9170452.98147         0.00041  21912555.61847  21912553.03448
  -7493424.76108  -5839022.73108  22728431.78608  22728435.11008         0.00001
  -6368986.05309  -4962838.86708  20502993.09909  20502995.47408         0.00001
 94 02 22 02 26 30.0000000  0  5 02 07 09 12 13
   -132090.48048   -102929.43846         0.00041  22033348.76146  22033348.36248
  -4545810.07449  -3542181.42747         0.00041  21355911.83847  21355909.96749
 -11837247.86448  -9223820.89747         0.00041  21899522.68147  21899519.94348
  -7578485.05708  -5905303.35008  22712245.27508  22712248.56908         0.00001
  -6387546.41109  -4977301.39308  20499461.00609  20499463.42908         0.00001
 94 02 22 02 27 00.0000000  0  6 02 05 07 09 12 13
    -83308.39248    -64917.41346         0.00041  22042632.92646  22042631.00648
        -0.37957         0.11154         0.00051  24539982.49654  24539981.59857
  -4486803.10049  -3496201.93747         0.00041  21367140.99247  21367138.82149
 -11905339.48148  -9276879.18247         0.00041  21886564.80347  21886562.44248
  -7663353.19208  -5971434.25108  22696095.21708  22696098.31708         0.00001
  -6405522.50509  -4991308.65408  20496040.10909  20496042.53508         0.00001
 94 02 22 02 27 30.0000000  0  5 02 07 09 12 13
    -34310.48048    -26737.19246         0.00041  22051956.09846  22051955.46648
  -4427624.96749  -3450089.07247         0.00041  21378402.33247  21378400.11849
 -11973084.64948  -9329667.51947         0.00041  21873673.31547  21873670.20448
  -7748086.55408  -6037460.14208  22679970.59608  22679973.88908         0.00001
  -6422974.79509  -5004907.75708  20492719.05409  20492721.40208         0.00001
 94 02 22 02 28 00.0000000  0  5 02 07 09 12 13
     14876.10248     11590.04946         0.00041  22061314.66946  22061314.82648
  -4368282.12549  -3403847.86347         0.00041  21389694.09547  21389692.81249
 -12040490.08148  -9382191.13947         0.00041  21860846.26547  21860842.38248
  -7832692.25808  -6103386.57108  22663870.38108  22663873.89808         0.00001
  -6439913.20809  -5018106.43108  20489495.75609  20489498.14408         0.00001
 94 02 22 02 28 30.0000000  0  5 02 07 09 12 13
     64270.77148     50079.42746         0.00041  22070714.76346  22070714.03948
  -4308762.81349  -3357469.13947         0.00041  21401020.46747  21401019.35449
 -12107524.01348  -9434425.28747         0.00041  21848089.72347  21848086.20448
  -7917145.53508  -6169194.21708  22647799.10908  22647802.91808         0.00001
  -6456316.30509  -5030887.97408  20486374.35509  20486376.68208         0.00001
 94 02 22 02 29 00.0000000  0  5 02 07 09 12 13
    113854.32848     88716.00846         0.00041  22080148.65246  22080149.54748
  -4249058.93649  -3310946.57847         0.00041  21412382.43347  21412380.15249
 -12174159.51648  -9486348.95247         0.00041  21835409.45947  21835406.70848
  -8001437.48608  -6234876.14908  22631758.73508  22631762.64708         0.00001
  -6472178.24809  -5043247.83308  20483355.96609  20483358.16508         0.00001
 94 02 22 02 29 30.0000000  0  5 02 07 09 12 13
    163645.87348    127514.65546         0.00041  22089624.39746  22089625.17648
  -4189128.29549  -3264247.31747         0.00041  21423787.06747  21423784.44949
 -12240361.80449  -9537935.03747         0.00041  21822811.05647  21822809.51749
  -8085545.48708  -6300414.72208  22615753.55508  22615757.39208         0.00001
  -6487479.20209  -5055170.55308  20480444.21309  20480446.42808         0.00001
 94 02 22 02 30 00.0000000  0  5 02 07 09 12 13
    213626.20848    166460.42846         0.00041  22099136.14146  22099135.36848
  -4129011.11549  -3217402.70347         0.00041  21435226.43547  21435224.82449
 -12306188.27149  -9589228.28247         0.00041  21810284.82547  21810283.57049
  -8169506.07808  -6365838.40708  22599776.54008  22599780.15408         0.00001
  -6502259.12809  -5066687.27208  20477631.55709  20477633.80108         0.00001
 94 02 22 02 30 30.0000000  0  5 02 07 09 12 13
    263832.94848    205582.60446         0.00041  22108690.62946  22108688.99648
  -4068704.90549  -3170410.80147         0.00041  21446701.98847  21446701.12549
 -12371624.25949  -9640217.26447         0.00041  21797832.92347  21797831.47149
  -8253293.81808  -6431127.38408  22583832.33908  22583835.65908         0.00001
  -6516495.89809  -5077780.75408  20474922.40009  20474924.47308         0.00001
 94 02 22 02 31 00.0000000  0  5 02 07 09 12 13
    314321.03748    244924.00646         0.00041  22118297.82046  22118297.21948
  -4008154.45549  -3123228.58947         0.00041  21458223.43547  21458223.44549
 -12436627.55349  -9690869.08347         0.00041  21785462.88747  21785461.37449
  -8336862.67608  -6496245.80608  22567929.91508  22567932.84608         0.00001
  -6530146.28709  -5088417.32508  20472324.86409  20472326.71308         0.00001
 94 02 22 02 31 30.0000000  0  6 02 05 07 09 12 13
    365110.25848    284500.04546         0.00041  22127961.61746  22127962.01148
         0.20057         0.27154         0.00051  24403796.88254  24403798.66657
  -3947369.96749  -3075864.00147         0.00041  21469790.05547  21469790.00449
 -12501209.34249  -9741192.46147         0.00041  21773173.31947  21773171.18149
  -8420214.10908  -6561194.81408  22552068.70108  22552071.25608         0.00001
  -6543215.12509  -5098600.75008  20469838.01509  20469839.71208         0.00001
 94 02 22 02 32 00.0000000  0  6 02 05 07 09 12 13
    416109.26048    324239.54146         0.00041  22137666.61446  22137666.82448
    -79682.01247    -62089.70744         0.00041  24388649.54344  24388637.47347
  -3886465.26549  -3028405.73347         0.00041  21481379.96147  21481379.35049
 -12565456.60349  -9791255.17847         0.00041  21760947.43547  21760945.32949
  -8503430.32308  -6626038.47308  22536233.08008  22536235.51308         0.00001
  -6555787.80809  -5108397.56308  20467445.45609  20467447.13408         0.00001
 94 02 22 02 32 30.0000000  0  6 02 05 07 09 12 13
    467318.65548    364143.00346         0.00041  22147412.78546  22147410.84048
   -159453.64247   -124248.74044         0.00041  24373443.85844  24373457.29347
  -3825420.57049  -2980838.38447         0.00041  21492996.74347  21492995.72949
 -12629330.07749  -9841026.63247         0.00041  21748792.71147  21748790.47849
  -8586495.30208  -6690764.28008  22520426.07408  22520428.45008         0.00001
  -6567851.82009  -5117798.00808  20465149.56009  20465151.36308         0.00001
 94 02 22 02 33 00.0000000  0  7 02 04 05 07 09 12 13
    518762.72448    404229.31646         0.00041  22157203.53646  22157200.24048
        -0.54958         0.09956         0.00051  21393106.24556  21393105.43358
   -239269.51947   -186442.31644         0.00041  24358278.47144  24358269.24747
  -3764170.02849  -2933110.63547         0.00041  21504652.54347  21504651.18349
 -12692784.20149  -9890471.31947         0.00041  21736717.49947  21736715.88249
  -8669374.97508  -6755345.69808  22504654.26408  22504656.75008         0.00001
  -6579376.47509  -5126778.16808  20462956.27609  20462958.18308         0.00001
 94 02 22 02 33 30.0000000  0  8 02 04 05 07 09 12 13 24
    570419.25448    444481.19746         0.00041  22167033.10946  22167030.82248
    -65750.10448    -51233.18046         0.00041  21380596.16146  21380593.69648
   -319150.53947   -248687.10044         0.00041  24343066.94644  24343066.77047
  -3702730.92349  -2885235.94447         0.00041  21516343.86347  21516342.82549
 -12755832.75449  -9939599.96747         0.00041  21724719.40547  21724718.29549
  -8752084.72608  -6819794.72108  22488914.91408  22488917.50608         0.00001
  -6590380.17309  -5135352.39008  20460862.13309  20460864.11208         0.00001
        -0.66657        -0.64354         0.00051  23146496.18554  23146491.51157
 94 02 22 02 34 00.0000000  0  8 02 04 05 07 09 12 13 24
    622346.12648    484943.73446         0.00041  22176914.15546  22176912.78048
   -131007.95648   -102083.30746         0.00041  21368177.19546  21368175.47848
   -399010.32147   -310915.43644         0.00041  24327878.50844  24327869.59547
  -3641026.84249  -2837154.78047         0.00041  21528085.80347  21528084.50649
 -12818404.50649  -9988357.05647         0.00041  21712812.17947  21712811.62049
  -8834560.66308  -6884061.55108  22473220.29708  22473222.68208         0.00001
  -6600802.50408  -5143473.60108  20458878.61308  20458880.68208         0.00001
   -102923.13147    -80199.83044         0.00041  23126901.77244  23126905.99947
 94 02 22 02 34 30.0000000  0  8 02 04 05 07 09 12 13 24
    674526.37648    525603.71846         0.00041  22186844.08046  22186842.62848
   -195772.46248   -152549.02246         0.00041  21355851.36546  21355850.37648
   -478842.75948   -373122.49244         0.00041  24312680.74044  24312678.62848
  -3579054.01549  -2788864.20447         0.00041  21539879.23847  21539877.81649
 -12880512.06949 -10036752.44347         0.00041  21700993.52747  21700992.90049
  -8916817.75808  -6948157.84708  22457567.24008  22457569.42608         0.00001
  -6610661.78408  -5151156.07308  20457002.32408  20457004.50208         0.00001
   -205659.92347   -160254.07244         0.00041  23107360.46744  23107354.43547
 94 02 22 02 35 00.0000000  0  8 02 04 05 07 09 12 13 24
    726911.70948    566423.49946         0.00041  22196813.95946  22196810.56648
   -260078.75248   -202657.67646         0.00041  21343613.58046  21343612.88148
   -558706.31048   -435353.58644         0.00041  24297486.77044  24297479.94648
  -3516885.36349  -2740421.04647         0.00041  21551709.11547  21551707.57349
 -12942211.13049 -10084829.51647         0.00041  21689252.42547  21689251.65149
  -8998898.42808  -7012116.67608  22441947.77208  22441949.79008         0.00001
  -6620003.86508  -5158435.53108  20455224.55808  20455226.73008         0.00001
   -308250.92547   -240195.04944         0.00041  23087824.93244  23087830.93847
 94 02 22 02 35 30.0000000  0  8 02 04 05 07 09 12 13 24
    779516.29348    607414.14246         0.00041  22206824.17946  22206821.40048
   -323907.56648   -252394.27746         0.00041  21331467.68446  21331466.38748
   -638585.11248   -497596.66444         0.00041  24282281.54744  24282279.78648
  -3454543.89749  -2691843.22147         0.00041  21563572.19447  21563570.73749
 -13003483.20549 -10132573.88047         0.00041  21677592.68947  21677591.85249
  -9080784.24908  -7075923.69208  22426365.31808  22426367.35108         0.00001
  -6628813.73809  -5165300.28608  20453548.18009  20453550.28908         0.00001
   -410669.39047   -320001.59044         0.00041  23068342.52144  23068339.64247
 94 02 22 02 36 00.0000000  0  8 02 04 05 07 09 12 13 24
    832324.92748    648563.78746         0.00041  22216872.46846  22216868.87448
   -387271.36748   -301768.53946         0.00041  21319412.09546  21319408.71148
   -718488.98048   -559859.22044         0.00041  24267078.86344  24267074.87348
  -3392040.40149  -2643139.14647         0.00041  21575466.09347  21575465.24649
 -13064338.76849 -10179993.70147         0.00041  21666012.24647  21666010.96049
  -9162478.97808  -7139581.80208  22410819.14008  22410821.28608         0.00001
  -6637098.73109  -5171756.04408  20451971.51509  20451973.64808         0.00001
   -512922.23147   -399678.97044         0.00041  23048876.53444  23048883.16047
 94 02 22 02 36 30.0000000  0  8 02 04 05 07 09 12 13 24
    885329.12748    689865.83746         0.00041  22226958.30546  22226955.00048
   -450178.82848   -350787.19046         0.00041  21307440.35446  21307437.83748
   -798433.47548   -622153.37344         0.00041  24251862.96044  24251862.34448
  -3329394.31049  -2594323.95947         0.00041  21587387.47647  21587386.52849
 -13124787.02249 -10227096.13947         0.00041  21654509.19847  21654507.90049
  -9243977.79608  -7203087.23808  22395310.27608  22395312.59408         0.00001
  -6644857.46008  -5177801.72008  20450494.89608  20450497.11308         0.00001
   -615005.29148   -479224.45244         0.00041  23029463.87244  23029459.20548
 94 02 22 02 37 00.0000000  0  8 02 04 05 07 09 12 13 24
    938543.99348    731332.03046         0.00041  22237083.52546  22237080.73348
   -512625.14448   -399446.52146         0.00041  21295555.44546  21295554.74348
   -878429.52148   -684487.74144         0.00041  24236641.96144  24236639.56648
  -3266605.85649  -2545397.84647         0.00041  21599335.61347  21599334.84849
 -13184828.61649 -10273881.69247         0.00041  21643083.41747  21643082.05049
  -9325271.33508  -7266432.74108  22379840.35708  22379842.97908         0.00001
  -6652084.20508  -5183432.85808  20449119.51008  20449121.84708         0.00001
   -716915.79448   -558635.65044         0.00041  23010073.39044  23010066.62648
 94 02 22 02 37 30.0000000  0  7 02 04 07 09 12 13 24
    992011.38248    772994.96946         0.00041  22247258.78646  22247256.09048
   -574579.71648   -447722.66046         0.00041  21283764.93146  21283765.04648
  -3203633.17449  -2496328.18447         0.00041  21611318.30647  21611317.89449
 -13244426.06849 -10320321.15447         0.00041  21631741.98747  21631740.69649
  -9406329.10308  -7329594.53208  22364415.40308  22364418.30608         0.00001
  -6658751.95308  -5188628.41708  20447850.71208  20447852.95108         0.00001
   -818630.67748   -637894.52744         0.00041  22990716.90644  22990710.94948
 94 02 22 02 38 00.0000000  0  7 02 04 07 09 12 13 24
   1045734.94748    814857.54646         0.00041  22257481.60646  22257480.36848
   -636051.54448   -495622.64646         0.00041  21272068.62446  21272067.66248
  -3140458.58549  -2447101.18147         0.00041  21623339.39747  21623339.19449
 -13303578.76548 -10366414.05347         0.00041  21620484.88647  21620484.07148
  -9487155.17808  -7392575.78508  22349034.64008  22349037.70708         0.00001
  -6664868.17809  -5193394.22208  20446686.96809  20446689.05808         0.00001
   -920166.77048   -717013.87644         0.00041  22971392.32544  22971387.76148
 94 02 22 02 38 30.0000000  0  7 02 04 07 09 12 13 24
   1099736.47148    856936.70046         0.00041  22267755.93046  22267754.84248
   -697029.05348   -543137.43346         0.00041  21260464.56746  21260462.94548
  -3077088.39649  -2397721.77147         0.00041  21635398.26447  21635397.75649
 -13362270.22648 -10412147.55947         0.00041  21609316.15647  21609314.44748
  -9567744.53008  -7455372.57208  22333699.05708  22333702.06208         0.00001
  -6670431.73009  -5197729.37208  20445628.33109  20445630.25908         0.00001
  -1021516.27848   -795987.51744         0.00041  22952100.67544  22952098.26648
 94 02 22 02 39 00.0000000  0  7 02 04 07 09 12 13 24
   1154022.28948    899237.37646         0.00041  22278086.76946  22278084.84548
   -757507.32048   -590263.21346         0.00041  21248956.41046  21248954.54948
  -3013531.65349  -2348196.99247         0.00041  21647493.35947  21647491.95149
 -13420483.39249 -10457508.37447         0.00041  21598239.61047  21598237.06149
  -9648100.66408  -7517987.61308  22318407.92208  22318410.76208         0.00001
  -6675449.68609  -5201639.38108  20444673.35509  20444675.29708         0.00001
  -1122682.41648   -874817.61944         0.00041  22932846.46244  22932847.60148
 94 02 22 02 39 30.0000000  0  7 02 04 07 09 12 13 24
   1208559.88748    941734.23746         0.00041  22288466.13646  22288463.40548
   -817513.65348   -637021.24246         0.00041  21237538.37346  21237536.22148
  -2949818.50448  -2298550.31647         0.00041  21659617.60147  21659615.51948
 -13478230.96949 -10502506.39747         0.00041  21587250.67847  21587248.79649
  -9728250.03608  -7580441.53508  22303156.09608  22303158.75108         0.00001
  -6679952.03609  -5205147.62208  20443816.57309  20443818.40108         0.00001
  -1223690.30748   -953525.09344         0.00041  22913641.41944  22913628.07548
 94 02 22 02 40 00.0000000  0  7 02 04 07 09 12 13 24
   1263372.00848    984445.01246         0.00041  22298894.59346  22298893.65948
   -877010.40548   -683382.22146         0.00041  21226215.28046  21226213.89548
  -2885919.04248  -2248758.46947         0.00041  21671777.33347  21671775.69548
 -13535491.95849 -10547125.25947         0.00041  21576353.96747  21576352.29949
  -9808154.61908  -7642704.71108  22287950.76908  22287953.32308         0.00001
  -6683904.53709  -5208227.41108  20443064.44409  20443066.16308         0.00001
  -1324491.33048  -1032071.18144         0.00041  22894452.71244  22894446.82748
 94 02 22 02 40 30.0000000  0  8 02 04 05 07 09 12 13 24
   1318428.14448   1027345.92846         0.00041  22309371.81246  22309369.67348
   -936020.32748   -729363.85746         0.00041  21214986.43346  21214984.18648
        -0.67558        -0.27754         0.00051  24129959.95254  24129959.28658
  -2821870.33148  -2198850.32847         0.00041  21683965.37747  21683963.69248
 -13592298.28349 -10591389.83347         0.00041  21565544.06347  21565542.50549
  -9887828.68608  -7704788.28408  22272789.06408  22272791.80808         0.00001
  -6687325.04709  -5210892.65908  20442413.47509  20442415.19108         0.00001
  -1425092.15648  -1110461.34044         0.00041  22875309.58244  22875303.24448
 94 02 22 02 41 00.0000000  0  8 02 04 05 07 09 12 13 24
   1373701.29148   1070415.95946         0.00041  22319890.90846  22319888.74448
   -994566.33248   -774983.96346         0.00041  21203844.53646  21203843.22348
    -80169.53648    -62469.41844         0.00041  24114706.86044  24114704.37348
  -2757666.63648  -2148821.42647         0.00041  21696182.37047  21696181.00248
 -13648665.62649 -10635312.34048         0.00041  21554818.06548  21554816.59449
  -9967280.34708  -7766698.55108  22257669.41708  22257672.52108         0.00001
  -6690225.49009  -5213152.65508  20441861.31309  20441863.17608         0.00001
  -1525508.42248  -1188707.55244         0.00041  22856201.47244  22856194.47148
 94 02 22 02 41 30.0000000  0  8 02 04 05 07 09 12 13 24
   1429214.95948   1113673.41746         0.00041  22330456.03846  22330453.13648
  -1052626.96848   -820225.88646         0.00041  21192797.08546  21192794.79748
   -160313.01948   -124918.53444         0.00041  24099459.07444  24099454.39448
  -2693260.74548  -2098634.96447         0.00041  21708438.66047  21708437.41348
 -13704587.58149 -10678887.79747         0.00041  21544176.74447  21544174.97649
 -10046481.09408  -7828413.29108  22242597.53408  22242601.06308         0.00001
  -6692581.05309  -5214988.06108  20441412.85009  20441414.80408         0.00001
  -1625706.04548  -1266783.41644         0.00041  22837130.66244  22837127.41648
 94 02 22 02 42 00.0000000  0  8 02 04 05 07 09 12 13 24
   1484944.90048   1157099.39146         0.00041  22341059.59146  22341059.70448
  -1110222.94648   -865105.72146         0.00041  21181835.50946  21181833.77048
   -240444.63348   -187358.54345         0.00041  24084207.42245  24084206.01448
  -2628666.66948  -2048301.87547         0.00041  21720730.53047  21720729.28248
 -13760087.87349 -10722134.68947         0.00041  21533615.40347  21533613.45749
 -10125448.48308  -7889946.21308  22227570.52408  22227573.84508         0.00001
  -6694413.35309  -5216415.72608  20441064.11509  20441066.03208         0.00001
  -1725704.96148  -1344704.48644         0.00041  22818100.28244  22818097.43648
 94 02 22 02 42 30.0000000  0  8 02 04 05 07 09 12 13 24
   1540899.72948   1200700.61846         0.00041  22351709.61946  22351709.05348
  -1167343.93948   -909615.43746         0.00041  21170966.48346  21170964.75648
   -320561.17648   -249786.72145         0.00041  24068964.40645  24068960.43148
  -2563877.71748  -1997816.90847         0.00041  21733059.30147  21733057.69248
 -13815147.57149 -10765038.26447         0.00041  21523137.78047  21523135.88349
 -10204177.68608  -7951293.54008  22212589.04308  22212591.91508         0.00001
  -6695721.01909  -5217434.59308  20440815.29709  20440817.06808         0.00001
  -1825501.48448  -1422467.82244         0.00041  22799109.69144  22799106.25548
 94 02 22 02 43 00.0000000  0  8 02 04 05 07 09 12 13 24
   1597071.06148   1244470.53046         0.00041  22362399.24446  22362395.02548
  -1223991.40648   -953756.17646         0.00041  21160186.97746  21160185.45348
   -400688.67248   -312223.49445         0.00041  24053712.73245  24053712.26648
  -2498904.68948  -1947188.52047         0.00041  21745423.37547  21745421.31548
 -13869766.84149 -10807598.63847         0.00041  21512743.57147  21512742.58849
 -10282682.02308  -8012465.66108  22197650.34608  22197652.71808         0.00001
  -6696521.38909  -5218058.17208  20440663.06009  20440664.57708         0.00001
  -1925101.36848  -1500077.89344         0.00041  22780154.50844  22780152.47648
 94 02 22 02 43 30.0000000  0  8 02 04 05 07 09 12 13 24
   1653483.76948   1288428.55046         0.00041  22373132.57346  22373127.53048
  -1280141.09048   -997509.03046         0.00041  21149502.12546  21149499.99448
   -480823.45848   -374665.99645         0.00041  24038468.26845  24038462.89748
  -2433758.68048  -1896425.34347         0.00041  21757820.07647  21757817.87248
 -13923933.21749 -10849806.10447         0.00041  21502436.09647  21502434.82249
 -10360947.51708  -8073451.67208  22182757.03608  22182758.98808         0.00001
  -6696804.17109  -5218278.43708  20440609.25009  20440610.64308         0.00001
  -2024481.11648  -1577516.40144         0.00041  22761246.67444  22761241.02748
 94 02 22 02 44 00.0000000  0  8 02 04 05 07 09 12 13 24
   1710135.24548   1332572.62746         0.00041  22383913.32346  22383908.29048
  -1335793.35548  -1040874.28646         0.00041  21138911.61246  21138909.47548
   -560994.89948   -437137.04445         0.00041  24023208.81945  24023206.85948
  -2368468.87648  -1845550.12447         0.00041  21770244.39247  21770242.88848
 -13977636.79849 -10891652.95047         0.00041  21492216.50347  21492215.12949
 -10438976.19208  -8134253.13308  22167908.66608  22167910.33908         0.00001
  -6696575.37809  -5218100.07608  20440652.75209  20440654.02208         0.00001
  -2123639.04348  -1654782.12044         0.00041  22742379.82044  22742372.29948
 94 02 22 02 44 30.0000000  0  8 02 04 05 07 09 12 13 24
   1767034.81548   1376909.99446         0.00041  22394742.54346  22394738.14048
  -1390955.94448  -1083857.97846         0.00041  21128414.17046  21128412.37648
   -641216.73948   -499647.35745         0.00041  24007946.70045  24007940.22648
  -2303052.49048  -1794576.27747         0.00041  21782692.94947  21782691.75348
 -14030878.58949 -10933139.96747         0.00041  21482084.76347  21482082.96949
 -10516768.42708  -8194870.33108  22153105.17808  22153106.79408         0.00001
  -6695839.19009  -5217526.34608  20440792.72609  20440793.95508         0.00001
  -2222560.43948  -1731863.51044         0.00041  22723550.85744  22723548.94848
 94 02 22 02 45 00.0000000  0  8 02 04 05 07 09 12 13 24
   1824170.97148   1421431.72246         0.00041  22405613.95646  22405611.87748
  -1445659.36148  -1126483.86546         0.00041  21118004.21146  21118002.12448
   -721492.49148   -562199.73145         0.00041  23992666.56945  23992664.21648
  -2237526.78248  -1743517.24146         0.00041  21795161.57546  21795160.48948
 -14083666.64949 -10974273.42747         0.00041  21472039.25147  21472037.09749
 -10594335.68008  -8255312.22608  22138344.38908  22138346.16008         0.00001
  -6694611.02109  -5216569.25208  20441026.35009  20441027.54508         0.00001
  -2321258.30447  -1808770.62944         0.00041  22704764.67544  22704767.36747
 94 02 22 02 45 30.0000000  0  8 02 04 05 07 09 12 13 24
   1881539.91748   1466134.84546         0.00041  22416528.89846  22416527.99048
  -1499898.04648  -1168747.63846         0.00041  21107682.45146  21107680.69448
   -801813.47648   -624787.37745         0.00041  23977381.96945  23977379.64448
  -2171887.57648  -1692369.77246         0.00041  21807651.31046  21807650.64348
 -14135999.12849 -11015051.90347         0.00041  21462080.90647  21462078.98249
 -10671672.26308  -8315574.37908  22123627.44408  22123629.43008         0.00001
  -6692889.10109  -5215227.42108  20441353.83809  20441355.03808         0.00001
  -2419734.34347  -1885505.02344         0.00041  22686031.94944  22686028.06947
 94 02 22 02 46 00.0000000  0  7 02 04 05 07 09 12 13
   1939124.58348   1511006.05746         0.00041  22427488.77646  22427485.24148
  -1553669.14648  -1210647.05746         0.00041  21097450.06446  21097448.47948
   -882174.13148   -687405.92945         0.00041  23962089.93645  23962086.89948
  -2106123.38248  -1641124.88746         0.00041  21820166.58346  21820165.59148
 -14187872.19549 -11055472.38747         0.00041  21452209.31947  21452207.98949
 -10748775.11508  -8375654.40008  22108954.87408  22108957.26508         0.00001
  -6690674.44808  -5213501.64008  20441775.01208  20441776.47008         0.00001
 94 02 22 02 46 30.0000000  0  7 02 04 05 07 09 12 13
   1996912.45348   1556035.63246         0.00041  22438486.15146  22438480.67848
  -1606967.61948  -1252178.18846         0.00041  21087307.55346  21087305.38448
   -962556.88748   -750041.68145         0.00041  23946791.37845  23946789.95648
  -2040222.80248  -1589773.72246         0.00041  21832707.66846  21832705.54548
 -14239289.77549 -11095537.94147         0.00041  21442424.19047  21442423.84749
 -10825639.33508  -8435548.47408  22094327.77308  22094330.64108         0.00001
  -6687966.06208  -5211391.12808  20442290.32608  20442291.85008         0.00001
 94 02 22 02 47 00.0000000  0  7 02 04 05 07 09 12 13
   2054923.49148   1601239.08546         0.00041  22449524.72046  22449520.49848
  -1659728.40148  -1293290.34746         0.00041  21077267.56546  21077265.73048
  -1042925.76548   -812666.62045         0.00041  23931496.99545  23931495.06748
  -1974143.91948  -1538283.62146         0.00041  21845282.49946  21845279.99248
 -14290214.47049 -11135219.41747         0.00041  21432733.07347  21432733.51449
 -10902221.98408  -8495223.18508  22079754.75308  22079757.54008         0.00001
  -6684724.87408  -5208865.44308  20442907.02808  20442908.59208         0.00001
 94 02 22 02 47 30.0000000  0  7 02 04 05 07 09 12 13
   2113151.85448   1646611.87546         0.00041  22460604.98346  22460601.76048
  -1711945.14048  -1333978.58047         0.00041  21067330.89347  21067329.42148
  -1123301.97448   -875297.33345         0.00041  23916201.87045  23916198.19948
  -1907897.67848  -1486663.10846         0.00041  21857888.86146  21857886.16648
 -14340662.66949 -11174529.59047         0.00041  21423132.75647  21423133.43149
 -10978526.71208  -8554681.32608  22065234.56708  22065237.36608         0.00001
  -6680958.60308  -5205930.60108  20443623.65508  20443625.18608         0.00001
 94 02 22 02 48 00.0000000  0  7 02 04 05 07 09 12 13
   2171607.43848   1692161.73246         0.00041  22471729.44746  22471725.55948
  -1763623.90548  -1374247.62047         0.00041  21057496.04247  21057495.38948
  -1203693.74947   -937939.97144         0.00041  23900903.69744  23900902.65047
  -1841497.42248  -1434922.58946         0.00041  21870523.97246  21870521.95948
 -14390642.09849 -11213474.48047         0.00041  21413621.90447  21413622.39949
 -11054556.04408  -8613924.87608  22050766.78608  22050769.49608         0.00001
  -6676673.97108  -5202591.84408  20444438.94408  20444440.36308         0.00001
 94 02 22 02 48 30.0000000  0  6 02 04 07 09 12 13
   2230322.82048   1737914.05346         0.00041  22482900.91346  22482898.75948
  -1814753.36848  -1414088.62847         0.00041  21047766.27047  21047765.99948
  -1774934.80148  -1383055.56747         0.00041  21883189.96147  21883188.89148
 -14440136.46249 -11252041.40047         0.00041  21404203.89247  21404203.43949
 -11130294.96508  -8672942.13308  22036354.26608  22036356.76808         0.00001
  -6671859.92909  -5198840.56308  20445355.03209  20445356.34308         0.00001
 94 02 22 02 49 00.0000000  0  6 02 04 07 09 12 13
   2289314.59448   1783881.71546         0.00041  22494125.77946  22494122.95248
  -1865328.22048  -1453497.47647         0.00041  21038141.91947  21038141.53248
  -1708216.71748  -1331067.39946         0.00041  21895885.46246  21895885.35848
 -14489136.48249 -11290223.12947         0.00041  21394879.69547  21394878.99549
 -11205743.58308  -8731733.18908  22021997.04808  22021999.12408         0.00001
  -6666520.72509  -5194680.07408  20446371.08409  20446372.34208         0.00001
 94 02 22 02 49 30.0000000  0  6 02 04 07 09 12 13
   2348596.75548   1830075.64246         0.00041  22505406.19046  22505405.23848
  -1915374.94048  -1492494.78847         0.00041  21028618.27747  21028617.62348
  -1641356.10348  -1278968.18446         0.00041  21908608.82346  21908607.87148
 -14537647.10849 -11328023.53947         0.00041  21385648.77247  21385646.98349
 -11280912.39908  -8790306.20808  22007692.80008  22007694.76508         0.00001
  -6660670.88909  -5190121.69108  20447484.26909  20447485.53008         0.00001
 94 02 22 02 50 00.0000000  0  6 02 04 07 09 12 13
   2408166.26748   1876493.49046         0.00041  22516743.39146  22516742.27148
  -1964881.30049  -1531071.04447         0.00041  21019197.52047  21019196.96049
  -1574337.28448  -1226745.68346         0.00041  21921361.03346  21921359.36748
 -14585660.16148 -11365436.23047         0.00041  21376512.09847  21376510.04348
 -11355795.93308  -8848656.92308  21993442.91308  21993444.69308         0.00001
  -6654309.15409  -5185164.42208  20448694.75109  20448696.15408         0.00001
 94 02 22 02 50 30.0000000  0  6 02 04 07 09 12 13
   2467980.28948   1923101.86846         0.00041  22528123.53846  22528123.78948
  -2013872.75149  -1569246.08047         0.00041  21009874.33747  21009873.89749
  -1507194.02948  -1174426.21846         0.00041  21934137.84346  21934136.05948
 -14633191.27048 -11402473.41047         0.00041  21367467.10147  21367465.14448
 -11430423.28508  -8906808.00408  21979241.63908  21979243.39408         0.00001
  -6647468.70109  -5179834.12108  20449996.37209  20449997.87008         0.00001
 94 02 22 02 51 00.0000000  0  6 02 04 07 09 12 13
   2528039.71548   1969901.45546         0.00041  22539550.44346  22539552.40648
  -2062347.51548  -1607018.50347         0.00041  21000649.95647  21000649.24748
  -1439924.76248  -1122008.57646         0.00041  21946938.99246  21946938.11348
 -14680234.20149 -11439130.17447         0.00041  21358514.68047  21358513.58649
 -11504786.69308  -8964753.44108  21965090.39408  21965092.26608         0.00001
  -6640145.83309  -5174127.90808  20451389.70909  20451391.33508         0.00001
 94 02 22 02 51 30.0000000  0  7 02 04 05 07 09 12 13
   2588340.80048   2016889.37246         0.00041  22551026.85746  22551026.75548
  -2110305.79449  -1644388.46747         0.00041  20991524.13347  20991523.22549
        -0.17758         0.49755         0.00051  23793800.68955  23793800.09958
  -1372522.25348  -1069487.11346         0.00041  21959766.29346  21959765.02348
 -14726787.41249 -11475405.32947         0.00041  21349655.74447  21349655.12049
 -11578875.63608  -9022485.01208  21950991.19408  21950993.43208         0.00001
  -6632334.19409  -5168040.83308  20452876.12609  20452877.72408         0.00001
 94 02 22 02 52 00.0000000  0  7 02 04 05 07 09 12 13
   2648863.71348   2064050.11746         0.00041  22562542.78646  22562543.51448
  -2157745.94449  -1681354.70047         0.00041  20982496.50247  20982495.80449
    -80423.58448    -62666.92045         0.00041  23778495.84545  23778495.94048
  -1304991.30348  -1016865.56847         0.00041  21972617.31547  21972615.85148
 -14772844.30549 -11511293.73247         0.00041  21340891.26547  21340890.88949
 -11652686.17808  -9079999.64208  21936945.34008  21936947.62308         0.00001
  -6624034.12909  -5161573.17708  20454455.60009  20454456.97908         0.00001
 94 02 22 02 52 30.0000000  0  8 02 04 05 07 09 12 13 24
   2709602.78548   2111379.26245         0.00041  22574100.71845  22574101.77748
  -2204698.75249  -1717941.19347         0.00041  20973561.62447  20973560.95749
   -160878.44348   -125358.82045         0.00041  23763184.04445  23763185.77848
  -1237363.84248   -964168.81147         0.00041  21985486.45747  21985484.65748
 -14818419.79349 -11546807.02347         0.00041  21332218.66547  21332218.15949
 -11726228.01708  -9137304.90108  21922950.91908  21922952.96608         0.00001
  -6615259.64709  -5154735.85208  20456125.39609  20456126.52708         0.00001
        -0.46757         0.45054         0.00051  22428327.01454  22428323.59357
 94 02 22 02 53 00.0000000  0  8 02 04 05 07 09 12 13 24
   2770543.10748   2158865.29745         0.00041  22585697.03145  22585698.25548
  -2251177.03949  -1754157.92447         0.00041  20964716.96047  20964716.53849
   -241378.79848   -188086.16145         0.00041  23747869.58445  23747867.55848
  -1169637.74549   -911395.19847         0.00041  21998374.82547  21998373.12449
 -14863542.88949 -11581967.81847         0.00041  21323632.29247  21323631.50749
 -11799508.12808  -9194406.20408  21909006.49408  21909008.19008         0.00001
  -6606021.90209  -5147537.54008  20457883.19409  20457884.18508         0.00001
    -94916.11147    -73959.51044         0.00041  22410264.97544  22410261.69847
 94 02 22 02 53 30.0000000  0  8 02 04 05 07 09 12 13 24
   2831728.70348   2206542.40445         0.00041  22597341.24345  22597341.23348
  -2297122.33649  -1789959.34447         0.00041  20955973.58947  20955973.50049
   -321863.12348   -250801.08645         0.00041  23732551.18745  23732552.85448
  -1101762.60648   -858505.44546         0.00041  22011290.33346  22011289.17148
 -14908165.47149 -11616738.60147         0.00041  21315141.26047  21315139.99349
 -11872473.29308  -9251262.07308  21895121.97308  21895123.33408         0.00001
  -6596271.84109  -5139940.02708  20459738.45109  20459739.47108         0.00001
   -189546.14948   -147696.99944         0.00041  22392262.32944  22392254.34848
 94 02 22 02 54 00.0000000  0  8 02 04 05 07 09 12 13 24
   2893169.88248   2254418.68445         0.00041  22609034.24545  22609033.64448
  -2342540.63049  -1825350.11547         0.00041  20947330.48147  20947330.59849
   -402331.25848   -313503.30145         0.00041  23717237.88945  23717240.15248
  -1033741.53648   -805502.00046         0.00041  22024233.10446  22024232.38448
 -14952296.65949 -11651126.47647         0.00041  21306743.37247  21306741.83449
 -11945127.51708  -9307875.67508  21881296.37708  21881297.60708         0.00001
  -6586017.68209  -5131949.71608  20461689.66409  20461690.79908         0.00001
   -283912.94448   -221229.31244         0.00041  22374300.51744  22374297.60248
 94 02 22 02 54 30.0000000  0  8 02 04 05 07 09 12 13 24
   2954867.00348   2302494.40845         0.00041  22620774.05645  22620774.55648
  -2387429.88349  -1860328.64847         0.00041  20938787.93047  20938788.27649
   -482805.06048   -376210.00945         0.00041  23701920.93745  23701925.42448
   -965582.20848   -752390.81946         0.00041  22037203.02946  22037202.18448
 -14995956.55749 -11685147.12047         0.00041  21298434.80947  21298433.81949
 -12017480.15108  -9364254.25108  21867528.02608  21867529.28908         0.00001
  -6575273.29809  -5123577.40608  20463734.16209  20463735.39608         0.00001
   -378029.80648   -294566.95344         0.00041  22356390.19444  22356388.84148
 94 02 22 02 55 00.0000000  0  8 02 04 05 07 09 12 13 24
   3016830.89648   2350777.99745         0.00041  22632567.02545  22632566.49048
  -2431768.38049  -1894878.01247         0.00041  20930350.57347  20930350.37949
   -563279.42248   -438917.16745         0.00041  23686609.92745  23686610.96248
   -897274.50048   -699164.00546         0.00041  22050202.34746  22050201.02848
 -15039116.50849 -11718778.19647         0.00041  21290221.72947  21290220.73349
 -12089520.28908  -9420389.34008  21853818.91308  21853820.44908         0.00001
  -6564031.74508  -5114817.68708  20465873.25808  20465874.65608         0.00001
   -471881.97348   -367698.31645         0.00041  22338533.33045  22338529.18048
 94 02 22 02 55 30.0000000  0  8 02 04 05 07 09 12 13 24
   3079062.54248   2399270.16945         0.00041  22644411.15145  22644409.33448
  -2475575.14549  -1929013.04647         0.00041  20922014.50947  20922013.90349
   -643775.85848   -501641.49645         0.00041  23671289.71145  23671294.16048
   -828846.13548   -645843.18046         0.00041  22063224.48846  22063222.83948
 -15081764.75549 -11752010.53747         0.00041  21282105.29847  21282104.82249
 -12161259.55408  -9476289.99408  21840167.10308  21840168.86708         0.00001
  -6552309.17008  -5105683.13908  20468103.90708  20468105.39608         0.00001
   -565473.97248   -440626.96144         0.00041  22320719.14944  22320718.14848
 94 02 22 02 56 00.0000000  0  8 02 04 05 07 09 12 13 24
   3141558.37548   2447968.24045         0.00041  22656302.52645  22656301.38348
  -2518853.39048  -1962736.24947         0.00041  20913778.68147  20913778.33448
   -724302.98048   -564389.69146         0.00041  23655969.80646  23655971.19048
   -760308.20148   -592436.98546         0.00041  22076266.44246  22076265.51248
 -15123893.85449 -11784838.34347         0.00041  21274088.59247  21274087.91649
 -12232698.23108  -9531956.42308  21826572.51908  21826574.43008         0.00001
  -6540110.41008  -5096177.53508  20470425.24908  20470426.74608         0.00001
   -658784.38648   -513336.17844         0.00041  22302960.18144  22302961.08948
 94 02 22 02 56 30.0000000  0  8 02 04 05 07 09 12 13 24
   3204303.11048   2496860.29444         0.00041  22668238.47244  22668236.08748
  -2561589.98449  -1996037.38547         0.00041  20905645.93647  20905646.11549
   -804845.57148   -627149.87346         0.00041  23640642.39646  23640644.96448
   -691658.06748   -538943.35646         0.00041  22089329.85646  22089328.69648
 -15165477.41649 -11817241.06347         0.00041  21266174.92847  21266174.96549
 -12303825.07808  -9587379.86208  21813037.40708  21813039.26008         0.00001
  -6527428.10208  -5086295.15408  20472838.64108  20472840.15008         0.00001
   -751778.39848   -585798.84445         0.00041  22285268.89945  22285265.76648
 94 02 22 02 57 00.0000000  0  8 02 04 05 07 09 12 13 24
   3267281.06848   2545934.04144         0.00041  22680225.16244  22680223.05248
  -2603802.23248  -2028929.94147         0.00041  20897613.34247  20897612.72948
   -885398.01048   -689917.79346         0.00041  23625313.55146  23625316.38948
   -622903.80948   -485368.59346         0.00041  22102413.97046  22102412.17448
 -15206509.65149 -11849214.16248         0.00041  21258366.78448  21258367.22349
 -12374644.69108  -9642563.91708  21799560.87408  21799562.61908         0.00001
  -6514271.33409  -5076043.06608  20475342.33209  20475343.75808         0.00001
   -844456.45248   -658015.33044         0.00041  22267631.80344  22267630.58948
 94 02 22 02 57 30.0000000  0  8 02 04 05 07 09 12 13 24
   3330473.63548   2595175.03845         0.00041  22692249.99045  22692252.24148
  -2645492.68948  -2061415.89947         0.00041  20889680.29447  20889678.99448
   -965944.72148   -752681.31046         0.00041  23609986.54446  23609987.88548
   -554043.46148   -431711.16546         0.00041  22115517.79046  22115515.75048
 -15247012.71849 -11880774.92347         0.00041  21250659.37847  21250659.47349
 -12445160.07608  -9697510.91208  21786142.16808  21786143.81508         0.00001
  -6500647.62509  -5065427.13208  20477934.78309  20477936.14708         0.00001
   -936822.31448   -729988.54444         0.00041  22250056.69144  22250053.02148
 94 02 22 02 58 00.0000000  0  8 02 04 05 07 09 12 13 24
   3393898.54448   2644597.10145         0.00041  22704322.45845  22704321.47548
  -2686624.58448  -2093466.61747         0.00041  20881853.11247  20881851.89248
  -1046456.20448   -815417.35146         0.00041  23594666.85346  23594667.06948
   -485050.13248   -377950.11646         0.00041  22128646.81446  22128644.74848
 -15286980.36349 -11911918.46447         0.00041  21243053.79647  21243053.94449
 -12515346.66508  -9752201.70508  21772786.14808  21772787.62508         0.00001
  -6486536.82309  -5054431.64708  20480619.98809  20480621.16508         0.00001
  -1028871.89747   -801715.24844         0.00041  22232539.06044  22232534.97247
 94 02 22 02 58 30.0000000  0  8 02 04 05 07 09 12 13 24
   3457533.03748   2694182.39645         0.00041  22716429.04145  22716429.78348
  -2727215.56748  -2125095.84147         0.00041  20874128.73147  20874127.25848
  -1126962.23148   -878149.15345         0.00041  23579347.27445  23579345.61748
   -415931.82748   -324091.67546         0.00041  22141799.64146  22141797.66348
 -15326441.90349 -11942667.64447         0.00041  21235544.20247  21235544.29449
 -12585227.29308  -9806654.08108  21759488.40408  21759489.82208         0.00001
  -6471965.81609  -5043077.57208  20483392.78409  20483393.78008         0.00001
  -1120645.87747   -873227.30844         0.00041  22215076.45844  22215070.64547
 94 02 22 02 59 00.0000000  0  8 02 04 05 07 09 12 13 24
   3521393.73848   2743944.03545         0.00041  22728580.75145  22728579.96048
  -2767256.29448  -2156296.29447         0.00041  20866509.02347  20866508.18148
  -1207447.27148   -940864.60345         0.00041  23564030.99245  23564028.35248
   -346680.17248   -270129.31546         0.00041  22154977.04946  22154975.77648
 -15365399.10149 -11973023.84247         0.00041  21228130.81547  21228131.07849
 -12654789.99308  -9860858.71508  21746251.10208  21746252.53608         0.00001
  -6456927.26309  -5031359.17308  20486254.44409  20486255.54308         0.00001
  -1212146.65747   -944526.50645         0.00041  22197661.77145  22197657.93347
 94 02 22 02 59 30.0000000  0  8 02 04 05 07 09 12 13 24
   3585503.41848   2793899.64945         0.00041  22740784.33745  22740779.28248
  -2806739.52049  -2187062.34547         0.00041  20858995.43747  20858995.23449
  -1287912.31047  -1003564.49645         0.00041  23548717.28845  23548713.02047
   -277302.66648   -216068.90046         0.00041  22168178.27446  22168177.77848
 -15403859.23049 -12002992.70747         0.00041  21220811.97547  21220812.23149
 -12724026.14408  -9914808.89308  21733075.87008  21733077.34008         0.00001
  -6441417.04809  -5019273.24208  20489205.76909  20489207.01408         0.00001
  -1303364.59348  -1015605.18644         0.00041  22180308.36544  22180301.58248
 94 02 22 03 00 00.0000000  0  7 02 04 07 09 12 13 24
   3649870.20848   2844055.62345         0.00041  22753034.36545  22753029.85248
  -2845668.13949  -2217396.24047         0.00041  20851586.84247  20851586.94549
   -207811.76248   -161920.15246         0.00041  22181401.50346  22181401.98948
 -15441815.01249 -12032568.58147         0.00041  21213589.22547  21213589.31949
 -12792937.34508  -9968505.86108  21719962.22508  21719964.04108         0.00001
  -6425441.06209  -5006824.36108  20492245.72509  20492247.12008         0.00001
  -1394304.90948  -1086467.60345         0.00041  22162999.12845  22162995.98448
 94 02 22 03 00 30.0000000  0  8 02 04 05 07 09 12 13 24
   3714500.61348   2894417.00044         0.00041  22765328.78044  22765330.20148
  -2884031.15849  -2247289.41847         0.00041  20844286.49647  20844286.51649
        -0.72957         0.00855         0.00051  23518102.46155  23518094.07757
   -138207.32649   -107682.93646         0.00041  22194646.47746  22194647.96549
 -15479243.20149 -12061733.35147         0.00041  21206466.61647  21206466.63549
 -12861504.50308 -10021934.75908  21706914.08008  21706916.17308         0.00001
  -6408984.85309  -4994001.29708  20495377.38009  20495378.50208         0.00001
  -1484931.24248  -1157085.33645         0.00041  22145749.69845  22145749.13648
 94 02 22 03 01 00.0000000  0  8 02 04 05 07 09 12 13 24
   3779392.58548   2944982.20444         0.00041  22777676.74644  22777679.53548
  -2921845.00949  -2276754.67047         0.00041  20837090.45847  20837090.32149
    -80416.36848    -62661.38345         0.00041  23502796.09945  23502792.26248
    -68525.13648    -53385.10846         0.00041  22207907.01146  22207907.04848
 -15516155.06949 -12090495.80047         0.00041  21199442.20747  21199442.38749
 -12929734.01508 -10075100.57308  21693930.25808  21693932.52408         0.00001
  -6392059.17909  -4980812.42608  20498598.46209  20498599.29208         0.00001
  -1575246.32448  -1227460.52845         0.00041  22128564.33645  22128562.00748
 94 02 22 03 01 30.0000000  0  8 02 04 05 07 09 12 13 24
   3844499.40548   2995714.82444         0.00041  22790071.57444  22790067.03148
  -2959150.81049  -2305824.04547         0.00041  20829991.58347  20829991.19349
   -160875.26948   -125356.47446         0.00041  23487486.22946  23487482.19248
      1190.28448       938.61446         0.00041  22221174.32146  22221172.15848
 -15552587.44349 -12118884.62047         0.00041  21192509.63647  21192509.55149
 -12997672.41108 -10128039.54708  21681002.15008  21681004.27708         0.00001
  -6374715.02109  -4967297.47108  20501898.97509  20501899.83508         0.00001
  -1665300.62448  -1297632.54246         0.00041  22111429.37146  22111425.94248
 94 02 22 03 02 00.0000000  0  7 04 05 07 09 12 13 24
  -2995915.94449  -2334472.12247         0.00041  20822994.98247  20822995.19249
   -241343.44348   -188058.81246         0.00041  23472173.08946  23472170.89048
     70982.26148     55321.99946         0.00041  22234455.96846  22234453.43648
 -15588495.89449 -12146865.18547         0.00041  21185676.55847  21185676.36249
 -13065281.89808 -10180722.21408  21668136.75908  21668138.45208         0.00001
  -6356919.13709  -4953430.50908  20505285.09609  20505286.30408         0.00001
  -1755061.68148  -1367576.03946         0.00041  22094347.22346  22094344.87448
 94 02 22 03 02 30.0000000  0  7 04 05 07 09 12 13 24
  -3032129.13249  -2362690.11047         0.00041  20816103.85547  20816104.44649
   -321809.47748   -250759.47746         0.00041  23456860.87346  23456858.92148
    140866.94848    109777.62146         0.00041  22247755.02846  22247752.54848
 -15623876.47049 -12174434.40847         0.00041  21178944.17047  21178943.95349
 -13132551.19908 -10233139.81008  21655335.95908  21655337.33708         0.00001
  -6338664.74308  -4939206.25108  20508758.41908  20508760.01008         0.00001
  -1844514.10648  -1437279.03946         0.00041  22077326.13746  22077322.15848
 94 02 22 03 03 00.0000000  0  7 04 05 07 09 12 13 24
  -3067767.40849  -2390460.11147         0.00041  20809321.83747  20809322.60249
   -402263.61148   -313450.85546         0.00041  23441549.97446  23441549.38648
    210883.12548    164335.69346         0.00041  22261078.13446  22261076.88248
 -15658699.94249 -12201569.51848         0.00041  21172317.50548  21172317.55849
 -13199456.46708 -10285273.73808  21642604.13908  21642605.47408         0.00001
  -6319932.38508  -4924609.54808  20512323.00808  20512324.46508         0.00001
  -1933641.60948  -1506728.86546         0.00041  22060364.32846  22060361.27548
 94 02 22 03 03 30.0000000  0  8 02 04 05 07 09 12 13 24
        -0.58958        -0.04654         0.00051  22840080.37054  22840086.36758
  -3102817.52549  -2417771.81847         0.00041  20802652.05347  20802652.60849
   -482705.93748   -376133.02346         0.00041  23426242.30446  23426241.61848
    281051.85148    219012.62446         0.00041  22274430.25946  22274429.24348
 -15692959.26749 -12228265.03648         0.00041  21165798.43948  21165798.18549
 -13265989.32108 -10337117.46908  21629943.27908  21629944.51108         0.00001
  -6300718.07608  -4909637.30608  20515979.50008  20515980.66408         0.00001
  -2022426.40148  -1575911.62146         0.00041  22043469.67446  22043466.77048
 94 02 22 03 04 00.0000000  0  8 02 04 05 07 09 12 13 24
     66326.66448     51683.54344         0.00041  22852702.30844  22852705.19348
  -3137296.01849  -2444638.10447         0.00041  20796091.20947  20796091.77649
   -563145.64848   -438813.17246         0.00041  23410934.73146  23410934.14448
    351338.67048    273781.57046         0.00041  22287804.21546  22287804.12648
 -15726690.13049 -12254548.77448         0.00041  21159379.41548  21159379.24249
 -13332169.94008 -10388686.73208  21617349.42108  21617350.71008         0.00001
  -6281046.81209  -4894309.00808  20519723.13709  20519723.92708         0.00001
  -2110883.95848  -1644839.42446         0.00041  22026633.93346  22026633.69148
 94 02 22 03 04 30.0000000  0  8 02 04 05 07 09 12 13 24
    132851.48747    103521.08444         0.00041  22865359.26644  22865361.32747
  -3171239.99349  -2471087.88847         0.00041  20789631.59547  20789632.84349
   -643636.18748   -501532.93446         0.00041  23395617.03846  23395616.86948
    421687.92148    328599.15546         0.00041  22301190.72646  22301191.39048
 -15759941.88149 -12280459.19248         0.00041  21153051.96648  21153051.22249
 -13398045.78608 -10440018.51008  21604813.41508  21604814.79308         0.00001
  -6260970.43209  -4878665.05108  20523543.75509  20523544.36708         0.00001
  -2199061.48548  -1713549.02146         0.00041  22009855.53446  22009853.65748
 94 02 22 03 05 00.0000000  0  7 04 05 07 09 12 13 24
  -3204628.37649  -2497104.75348         0.00041  20783278.01548  20783279.37249
   -724156.45648   -564275.86246         0.00041  23380293.20546  23380294.44948
    492121.48348    383482.43446         0.00041  22314594.08246  22314593.93848
 -15792684.46649 -12305972.86048         0.00041  21146821.45148  21146820.53949
 -13463583.57008 -10491086.86208  21592341.94908  21592343.30708         0.00001
  -6240460.32509  -4862683.12308  20527446.77209  20527447.27508         0.00001
  -2286929.68748  -1782017.55045         0.00041  21993133.02045  21993132.64448
 94 02 22 03 05 30.0000000  0  7 04 05 07 09 12 13 24
  -3237404.58449  -2522644.60848         0.00041  20777041.16148  20777042.25549
   -804643.16248   -626992.65546         0.00041  23364975.96446  23364978.08148
    562695.25548    438474.96146         0.00041  22328023.95446  22328023.74748
 -15824875.15549 -12331056.47848         0.00041  21140695.75548  21140694.65649
 -13528727.21308 -10541848.08408  21579945.64508  21579946.83608         0.00001
  -6219464.86609  -4846322.98908  20531441.92109  20531442.53108         0.00001
  -2374436.01548  -1850204.12045         0.00041  21976480.86445  21976480.60348
 94 02 22 03 06 00.0000000  0  7 04 05 07 09 12 13 24
  -3269546.96549  -2547690.57148         0.00041  20770925.00748  20770925.73349
   -885060.33248   -689655.21546         0.00041  23349672.84846  23349675.02248
    633442.73748    493602.85146         0.00041  22341486.58846  22341487.07848
 -15856474.10649 -12355679.00648         0.00041  21134682.47748  21134681.22349
 -13593446.87908 -10592278.94908  21567630.06808  21567631.04008         0.00001
  -6197958.70309  -4829564.90508  20535534.14309  20535534.87008         0.00001
  -2461558.60148  -1918091.65045         0.00041  21959900.95545  21959901.48248
 94 02 22 03 06 30.0000000  0  7 04 05 07 09 12 13 24
  -3301110.30449  -2572285.32748         0.00041  20764918.37948  20764919.35249
   -965453.68948   -752299.26646         0.00041  23334373.28846  23334376.13548
    704324.81848    548835.62546         0.00041  22354974.97546  22354976.02748
 -15887516.52349 -12379867.87048         0.00041  21128775.43848  21128774.06449
 -13657787.57708 -10642414.49908  21555386.49008  21555387.44808         0.00001
  -6175991.45609  -4812447.53608  20539714.23609  20539715.02508         0.00001
  -2548335.35948  -1985709.72545         0.00041  21943387.76245  21943388.19948
 94 02 22 03 07 00.0000000  0  7 04 05 07 09 12 13 24
  -3332116.82349  -2596446.20448         0.00041  20759017.85048  20759018.72449
  -1045813.72548   -814917.36046         0.00041  23319080.97346  23319084.19148
    775322.27648    604158.30746         0.00041  22368486.30246  22368486.04648
 -15918020.11249 -12403636.87248         0.00041  21122970.72348  21122969.48749
 -13721765.42908 -10692267.33808  21543211.92208  21543212.84708         0.00001
  -6153583.94909  -4794987.10508  20543978.31909  20543978.99508         0.00001
  -2634774.21148  -2053064.50645         0.00041  21926941.72745  21926939.67848
 94 02 22 03 07 30.0000000  0  7 04 05 07 09 12 13 24
  -3362541.41349  -2620153.62448         0.00041  20753228.32848  20753228.91249
  -1126106.54748   -877483.04746         0.00041  23303805.75846  23303803.96948
    846436.89348    659572.28846         0.00041  22382019.45446  22382018.76348
 -15947964.03049 -12426969.76348         0.00041  21117272.55948  21117271.68649
 -13785368.50108 -10741828.13708  21531108.85708  21531109.65608         0.00001
  -6130728.62909  -4777177.73208  20548327.57209  20548328.32308         0.00001
  -2720866.45848  -2120149.22945         0.00041  21910557.27145  21910556.61348
 94 02 22 03 08 00.0000000  0  7 04 05 07 09 12 13 24
  -3392438.17649  -2643449.74948         0.00041  20747539.15548  20747539.45949
  -1206376.31648   -940030.78946         0.00041  23288528.81046  23288528.49548
    917591.89448    715017.74946         0.00041  22395560.47946  22395557.79148
 -15977385.10649 -12449895.23448         0.00041  21111673.59548  21111673.09949
 -13848641.93708 -10791132.09008  21519068.41008  21519069.18908         0.00001
  -6107475.46509  -4759058.34808  20552752.54309  20552753.28608         0.00001
  -2806645.50948  -2186989.91746         0.00041  21894232.68046  21894233.04748
 94 02 22 03 08 30.0000000  0  7 04 05 07 09 12 13 24
  -3421784.39749  -2666316.87548         0.00041  20741954.79348  20741954.82549
  -1286600.02348  -1002542.64346         0.00041  23273264.69246  23273261.53048
    988781.14748    770489.90446         0.00041  22409106.85946  22409105.86048
 -16006277.58849 -12472408.80548         0.00041  21106175.22348  21106175.12249
 -13911566.21308 -10840163.95908  21507094.20108  21507095.02708         0.00001
  -6083809.41009  -4740617.23708  20557256.04409  20557256.82008         0.00001
  -2892093.27648  -2253572.47545         0.00041  21877972.00545  21877972.87648
 94 02 22 03 09 00.0000000  0  7 04 05 07 09 12 13 24
  -3450545.29449  -2688727.90948         0.00041  20736481.54148  20736482.03549
  -1366750.38248  -1064997.36546         0.00041  23258012.59046  23258008.57548
   1060045.12748    826020.26646         0.00041  22422667.86346  22422667.55648
 -16034602.35749 -12494480.01148         0.00041  21100785.00048  21100784.81549
 -13974100.36808 -10888891.84208  21495194.19508  21495195.22608         0.00001
  -6059694.20609  -4721826.14008  20561844.93009  20561845.76808         0.00001
  -2977183.83148  -2319876.64945         0.00041  21861783.20945  21861780.57748
 94 02 22 03 09 30.0000000  0  8 02 04 05 07 09 12 13 24
        -1.11457        -0.59654         0.00051  22994655.72254  22994649.86657
  -3478756.62349  -2710710.71048         0.00041  20731112.97348  20731113.71249
  -1446881.61448  -1127437.19546         0.00041  23242765.03446  23242761.49548
   1131352.85548    881584.71246         0.00041  22436237.00446  22436237.89148
 -16062389.70549 -12516132.45048         0.00041  21095497.27048  21095497.45749
 -14036270.95408 -10937336.41708  21483363.43808  21483364.67008         0.00001
  -6035161.09109  -4702709.40808  20566513.34009  20566514.22808         0.00001
  -3061942.92748  -2385922.57145         0.00041  21845654.57545  21845650.78148
 94 02 22 03 10 00.0000000  0  8 02 04 05 07 09 12 13 24
     69249.59248     53961.00544         0.00041  23007832.24144  23007830.56348
  -3506441.49149  -2732283.27948         0.00041  20725844.91948  20725845.21249
  -1527026.86448  -1189887.95746         0.00041  23227513.61746  23227509.96748
   1202693.08948    937174.49346         0.00041  22449812.57246  22449813.21148
 -16089657.57049 -12537380.11548         0.00041  21090308.73548  21090308.36349
 -14098089.60408 -10985506.76408  21471599.43108  21471601.03108         0.00001
  -6010225.78809  -4683279.28008  20571258.23309  20571259.16208         0.00001
  -3146371.39048  -2451710.87945         0.00041  21829587.78445  21829584.30448
 94 02 22 03 10 30.0000000  0  7 04 05 07 09 12 13 24
  -3533552.56749  -2753408.72848         0.00041  20720686.08448  20720686.14349
  -1607169.33948  -1252336.56246         0.00041  23212262.46046  23212259.47748
   1274130.73648    992840.17946         0.00041  22463406.97846  22463406.59648
 -16116370.15649 -12558195.09248         0.00041  21085225.53348  21085225.09649
 -14159516.82108 -11033372.08408  21459910.24308  21459911.78708         0.00001
  -5984854.04109  -4663509.07208  20576086.17609  20576087.13108         0.00001
  -3230438.27748  -2517217.42845         0.00041  21813587.65045  21813587.15948
 94 02 22 03 11 00.0000000  0  7 04 05 07 09 12 13 24
  -3560129.20849  -2774117.73848         0.00041  20715628.46448  20715628.64849
  -1687362.27348  -1314824.48746         0.00041  23197002.49646  23196999.15148
   1345632.94348   1048556.17646         0.00041  22477012.62046  22477012.74248
 -16142557.14949 -12578600.52348         0.00041  21080242.41848  21080241.87449
 -14220589.89808 -11080961.45408  21448288.57808  21448289.80508         0.00001
  -5959087.31109  -4643431.07108  20580989.27809  20580990.34508         0.00001
  -3314169.03248  -2582462.05246         0.00041  21797655.13546  21797654.17648
 94 02 22 03 11 30.0000000  0  7 04 05 07 09 12 13 24
  -3586170.41549  -2794409.53248         0.00041  20710672.93748  20710672.99549
  -1767598.13648  -1377345.84946         0.00041  23181733.92146  23181730.75348
   1417196.04148   1104319.62846         0.00041  22490631.50646  22490630.27148
 -16168213.84549 -12598592.73848         0.00041  21075360.01548  21075359.46649
 -14281304.88808 -11128271.79308  21436734.88208  21436735.94708         0.00001
  -5932926.41608  -4623045.93608  20585967.38608  20585968.61008         0.00001
  -3397552.02448  -2647435.72046         0.00041  21781788.16546  21781787.20748
 94 02 22 03 12 00.0000000  0  7 04 05 07 09 12 13 24
  -3611634.83849  -2814251.88948         0.00041  20705827.19748  20705827.33549
  -1847830.60048  -1439864.58946         0.00041  23166466.66946  23166463.22548
   1488876.92948   1160174.85446         0.00041  22504271.12546  22504270.63948
 -16193291.53549 -12618133.78048         0.00041  21070588.26148  21070587.63549
 -14341617.13508 -11175268.30808  21425257.71308  21425258.87908         0.00001
  -5906331.60308  -4602322.67908  20591028.26308  20591029.49508         0.00001
  -3480555.61048  -2712113.71246         0.00041  21765993.24046  21765992.16848
 94 02 22 03 12 30.0000000  0  8 02 04 05 07 09 12 13 24
        -0.18057         0.18754         0.00051  23074411.02154  23074417.08157
  -3636486.49549  -2833616.76748         0.00041  20701097.84748  20701098.14849
  -1928005.57248  -1502338.51546         0.00041  23151209.34246  23151206.48448
   1560713.85748   1216151.67346         0.00041  22517941.60946  22517941.17548
 -16217762.42849 -12637201.99748         0.00041  21065931.47348  21065930.78849
 -14401491.36708 -11221923.51408  21413863.95408  21413865.26408         0.00001
  -5879271.77308  -4581237.08808  20596177.57708  20596178.87108         0.00001
  -3563156.64948  -2776478.03046         0.00041  21750272.08646  21750272.81348
 94 02 22 03 13 00.0000000  0  8 02 04 05 07 09 12 13 24
     70721.10247     55107.60844         0.00041  23087876.21944  23087874.10547
  -3660775.02749  -2852542.86048         0.00041  20696475.94348  20696476.23949
  -2008143.02048  -1564783.19046         0.00041  23135960.20746  23135956.53948
   1632655.76348   1272210.25946         0.00041  22531631.78246  22531631.79448
 -16241666.50649 -12655828.54248         0.00041  21061382.52148  21061381.59749
 -14460962.43808 -11268264.56808  21402546.83208  21402548.18608         0.00001
  -5851787.00108  -4559820.37208  20601407.70008  20601409.02008         0.00001
  -3645394.99748  -2840559.72445         0.00041  21734625.73845  21734623.79348
 94 02 22 03 13 30.0000000  0  8 02 04 05 07 09 12 13 24
    141648.46347    110375.68844         0.00041  23101371.90444  23101371.85747
  -3684519.49849  -2871045.02048         0.00041  20691957.14448  20691957.47549
  -2088247.29948  -1627202.02346         0.00041  23120716.53946  23120712.77348
   1704676.65548   1328330.40646         0.00041  22545336.43246  22545337.51548
 -16265029.68749 -12674033.60948         0.00041  21056936.50848  21056935.98849
 -14520049.92508 -11314306.74108  21391302.83908  21391304.00008         0.00001
  -5823900.91608  -4538090.93608  20606714.16308  20606715.57208         0.00001
  -3727304.96548  -2904385.57646         0.00041  21719039.49146  21719037.42648
 94 02 22 03 14 00.0000000  0  8 02 04 05 07 09 12 13 24
    212828.56547    165840.69144         0.00041  23114918.97144  23114916.33147
  -3707669.64949  -2889084.07448         0.00041  20687551.97648  20687552.11949
  -2168282.45948  -1689567.01646         0.00041  23105485.17846  23105482.66448
   1776788.08548   1384521.09946         0.00041  22559058.71446  22559059.70448
 -16287828.22349 -12691798.68948         0.00041  21052597.76348  21052597.67149
 -14578720.47008 -11360024.02908  21380138.18608  21380139.39108         0.00001
  -5795585.24908  -4516026.75308  20612102.51308  20612103.93208         0.00001
  -3808857.68048  -2967933.01146         0.00041  21703520.20746  21703518.62248
 94 02 22 03 14 30.0000000  0  7 04 05 07 09 12 13 24
  -3730218.17549  -2906654.32448         0.00041  20683261.17948  20683261.40249
  -2248256.02248  -1751883.99346         0.00041  23090265.81846  23090264.58948
   1848961.05348   1440759.75446         0.00041  22572792.76746  22572793.64548
 -16310065.76449 -12709126.62748         0.00041  21048365.97748  21048365.95149
 -14636976.79808 -11405418.53808  21369052.29108  21369053.69108         0.00001
  -5766846.72708  -4493633.08408  20617571.50008  20617572.71008         0.00001
  -3890052.11148  -3031201.31146         0.00041  21688069.12046  21688067.31748
 94 02 22 03 15 00.0000000  0  7 04 05 07 09 12 13 24
  -3752192.23849  -2923776.94248         0.00041  20679079.74148  20679079.90849
  -2328217.91848  -1814191.88846         0.00041  23075050.09946  23075048.62948
   1921150.22948   1497011.04246         0.00041  22586530.04046  22586530.02948
 -16331758.79749 -12726030.26447         0.00041  21044237.73647  21044237.96649
 -14694853.26708 -11450517.05708  21358038.76008  21358040.19808         0.00001
  -5737725.07108  -4470940.87308  20623113.18808  20623114.21008         0.00001
  -3970915.77648  -3094211.86746         0.00041  21672680.81146  21672678.67648
 94 02 22 03 15 30.0000000  0  7 04 05 07 09 12 13 24
  -3773559.20149  -2940426.49848         0.00041  20675013.73148  20675013.93649
  -2408142.00048  -1876470.30746         0.00041  23059840.88446  23059840.36248
   1993377.11848   1553291.71246         0.00041  22600274.03946  22600274.89948
 -16352881.87249 -12742489.78347         0.00041  21040217.87647  21040218.32649
 -14752327.63008 -11495302.25608  21347101.82508  21347103.11708         0.00001
  -5708202.41608  -4447936.18308  20628730.98608  20628732.03408         0.00001
  -4051420.37048  -3156942.64746         0.00041  21657360.43646  21657359.72048
 94 02 22 03 16 00.0000000  0  7 04 05 07 09 12 13 24
  -3794305.99949  -2956592.79348         0.00041  20671065.77648  20671066.18349
  -2488016.60248  -1938710.17846         0.00041  23044640.76046  23044641.16048
   2065670.44448   1609624.15646         0.00041  22614031.25746  22614031.44648
 -16373414.55349 -12758489.25447         0.00041  21036310.69447  21036310.72549
 -14809379.09808 -11539757.92208  21336245.29108  21336246.58408         0.00001
  -5678262.52108  -4424606.36908  20634428.25208  20634429.20808         0.00001
  -4131527.90348  -3219364.03846         0.00041  21642115.72846  21642115.04748
 94 02 22 03 16 30.0000000  0  8 02 04 05 07 09 12 13 24
        -0.41758         0.20754         0.00051  23183376.39254  23183377.01258
  -3814428.79349  -2972272.85348         0.00041  20667236.24848  20667236.82149
  -2567821.69948  -2000895.88646         0.00041  23029453.82046  23029454.96948
   2138072.39948   1666041.24746         0.00041  22627808.53346  22627809.33948
 -16393329.14949 -12774007.10547         0.00041  21032521.28447  21032520.99349
 -14865987.46908 -11583868.31708  21325473.11908  21325474.27108         0.00001
  -5647889.95708  -4400939.42408  20640208.09308  20640208.83108         0.00001
  -4211194.02648  -3281441.46846         0.00041  21626957.20746  21626955.02148
 94 02 22 03 17 00.0000000  0  8 02 04 05 07 09 12 13 24
     72761.23648     56697.56444         0.00041  23197225.51744  23197225.66548
  -3833943.49549  -2987479.08348         0.00041  20663522.63748  20663523.22649
  -2647556.02648  -2063026.42946         0.00041  23014278.91546  23014282.49448
   2210582.61148   1722542.68946         0.00041  22641608.17546  22641606.57748
 -16412643.71349 -12789057.40048         0.00041  21028845.71248  21028845.50149
 -14922160.05508 -11627639.14408  21314783.84508  21314784.79508         0.00001
  -5617096.57408  -4376944.56808  20646067.72408  20646068.66708         0.00001
  -4290418.54848  -3343174.80446         0.00041  21611879.98546  21611879.33748
 94 02 22 03 17 30.0000000  0  8 02 04 05 07 09 12 13 24
    145690.42548    113525.50244         0.00041  23211100.85044  23211103.78448
  -3852952.72049  -3002291.43048         0.00041  20659905.15648  20659905.64949
  -2727317.76348  -2125178.37046         0.00041  22999101.34246  22999104.00848
   2283116.99648   1779062.98846         0.00041  22655412.32046  22655409.71548
 -16431484.03249 -12803738.14848         0.00041  21025260.63648  21025260.40849
 -14977990.71908 -11671143.52808  21304159.60608  21304160.31308         0.00001
  -5585981.08208  -4352698.70708  20651988.70008  20651989.78908         0.00001
  -4369293.11748  -3404635.41746         0.00041  21596870.90446  21596870.19648
 94 02 22 03 18 00.0000000  0  8 02 04 05 07 09 12 13 24
    218809.47148    170501.29244         0.00041  23225017.81844  23225015.59748
  -3871426.84649  -3016686.82248         0.00041  20656389.49248  20656389.86749
  -2807095.48348  -2187342.74546         0.00041  22983920.20846  22983922.57548
   2355712.63148   1835631.02946         0.00041  22669227.49946  22669224.46648
 -16449830.33049 -12818033.95548         0.00041  21021769.65648  21021769.58349
 -15033450.79808 -11714359.14408  21293605.92808  21293606.45408         0.00001
  -5554519.06709  -4328182.83708  20657975.90609  20657976.75508         0.00001
  -4447790.60548  -3465802.18846         0.00041  21581933.68346  21581932.76948
 94 02 22 03 18 30.0000000  0  8 02 04 05 07 09 12 13 24
    292166.88848    227662.79244         0.00041  23238967.39444  23238974.02748
  -3889312.12549  -3030623.36648         0.00041  20652986.26948  20652986.24349
  -2886843.39648  -2249483.88646         0.00041  22968744.52746  22968746.86448
   2428408.03348   1892276.79646         0.00041  22683060.87546  22683058.04548
 -16467632.10749 -12831905.46448         0.00041  21018382.04648  21018382.08549
 -15088487.37708 -11757244.76408  21283132.82608  21283133.41708         0.00001
  -5522662.77909  -4303359.72508  20664038.14409  20664038.78708         0.00001
  -4525890.29748  -3526659.01546         0.00041  21567071.34846  21567070.82448
 94 02 22 03 19 00.0000000  0  8 02 04 05 07 09 12 13 24
    365769.48448    285015.52344         0.00041  23252974.15744  23252978.95648
  -3906603.53449  -3044097.12648         0.00041  20649695.75848  20649696.12949
  -2966563.88548  -2311603.66046         0.00041  22953573.66846  22953576.36848
   2501194.52648   1948993.53746         0.00041  22696911.41146  22696909.37448
 -16484904.00249 -12845364.12248         0.00041  21015095.58948  21015095.22649
 -15143097.15209 -11799797.81108  21272741.01109  21272741.74208         0.00001
  -5490413.06509  -4278230.07208  20670175.21909  20670175.61708         0.00001
  -4603622.10948  -3587229.17646         0.00041  21552279.71546  21552278.96648
 94 02 22 03 19 30.0000000  0  8 02 04 05 07 09 12 13 24
    439613.37848    342556.17344         0.00041  23267021.95444  23267030.33848
  -3923299.78449  -3057107.19248         0.00041  20646518.51648  20646519.07049
  -3046250.41048  -2373696.99646         0.00041  22938410.67446  22938411.70448
   2574067.31048   2005777.52646         0.00041  22710777.52246  22710775.52348
 -16501632.41149 -12858399.20148         0.00041  21011912.25548  21011911.55049
 -15197277.22009 -11842016.02708  21262430.97209  21262431.73608         0.00001
  -5457772.04009  -4252795.49808  20676386.60009  20676387.06508         0.00001
  -4680986.68448  -3647513.16646         0.00041  21537557.37246  21537557.07348
 94 02 22 03 20 00.0000000  0  8 02 04 05 07 09 12 13 24
    513705.74848    400290.40544         0.00041  23281125.03844  23281129.83248
  -3939396.44649  -3069650.01648         0.00041  20643455.19448  20643455.78349
  -3125878.36148  -2435744.69646         0.00041  22923259.27746  22923258.57948
   2647004.29248   2062611.53346         0.00041  22724656.81046  22724654.54248
 -16517782.43449 -12870983.61348         0.00041  21008838.63948  21008838.14849
 -15251018.36809 -11883892.22808  21252204.49709  21252205.17108         0.00001
  -5424735.12709  -4227052.43608  20682673.27609  20682673.87008         0.00001
  -4757980.31548  -3707508.13046         0.00041  21522905.68946  21522905.34148
 94 02 22 03 20 30.0000000  0  8 02 04 05 07 09 12 13 24
    588032.50148    458207.23044         0.00041  23295273.24044  23295274.43048
  -3954906.95149  -3081736.08848         0.00041  20640503.85248  20640504.06449
  -3205438.75848  -2497739.76446         0.00041  22908118.92646  22908116.84748
   2719974.36148   2119471.33746         0.00041  22738542.19646  22738540.79048
 -16533358.04049 -12883120.44248         0.00041  21005874.79248  21005874.40349
 -15304328.09909 -11925432.24708  21242060.10209  21242060.48108         0.00001
  -5391314.15809  -4201010.09808  20689033.14009  20689033.54408         0.00001
  -4834603.35348  -3767214.32146         0.00041  21508324.13546  21508324.37948
 94 02 22 03 21 00.0000000  0  8 02 04 05 07 09 12 13 24
    662620.28648    516327.58545         0.00041  23309466.31945  23309468.88048
  -3969797.78349  -3093339.29748         0.00041  20637670.21648  20637670.38249
  -3284889.11148  -2559649.06746         0.00041  22893001.01146  22892998.70548
   2793011.44148   2176383.31946         0.00041  22752440.66846  22752441.34348
 -16548326.17649 -12894783.91348         0.00041  21003026.71548  21003026.55949
 -15357174.33109 -11966611.12408  21232003.76109  21232004.09608         0.00001
  -5357481.92909  -4174647.30308  20695471.16809  20695471.48908         0.00001
  -4910790.67948  -3826580.99046         0.00041  21493826.13146  21493826.81248
 94 02 22 03 21 30.0000000  0  8 02 04 05 07 09 12 13 24
    737443.55848    574631.37945         0.00041  23323710.94845  23323709.05248
  -3984093.09649  -3104478.47448         0.00041  20634949.63348  20634949.88149
  -3364253.40948  -2621491.35746         0.00041  22877899.07646  22877896.29148
   2866069.40848   2233311.55646         0.00041  22766343.28646  22766343.20548
 -16562702.08549 -12905985.90348         0.00041  21000291.01548  21000290.98549
 -15409580.60109 -12007447.15108  21222030.94809  21222031.49508         0.00001
  -5323266.69709  -4147986.08708  20701981.98709  20701982.24908         0.00001
  -4986551.36448  -3885615.20646         0.00041  21479409.17946  21479409.69748
 94 02 22 03 22 00.0000000  0  8 02 04 05 07 09 12 13 24
    812492.62048    633111.14845         0.00041  23337991.85545  23337991.26648
  -3997807.89249  -3115165.29648         0.00041  20632339.56548  20632340.11649
  -3443561.34148  -2683289.69746         0.00041  22862806.34346  22862804.89848
   2939139.57848   2290249.28746         0.00041  22780246.89146  22780247.62248
 -16576510.99349 -12916746.06547         0.00041  20997662.82847  20997663.22649
 -15461559.37508 -12047950.05608  21212139.35108  21212140.55508         0.00001
  -5288685.39709  -4121039.60408  20708562.50209  20708562.89308         0.00001
  -5061903.63848  -3944331.19246         0.00041  21465070.77046  21465069.87048
 94 02 22 03 22 30.0000000  0  8 02 04 05 07 09 12 13 24
    887772.92948    691771.18345         0.00041  23352315.15345  23352316.39848
  -4010925.05849  -3125386.43848         0.00041  20629843.71448  20629844.30149
  -3522824.22448  -2745052.93246         0.00041  22847723.11646  22847722.26848
   3012247.84648   2347216.73446         0.00041  22794159.18646  22794159.17448
 -16589762.49449 -12927071.89147         0.00041  20995140.81347  20995141.38449
 -15513097.98508 -12088109.99408  21202331.82808  21202333.14708         0.00001
  -5253729.95509  -4093801.58208  20715214.23209  20715214.81908         0.00001
  -5136838.43848  -4002721.87446         0.00041  21450811.01646  21450810.49648
 94 02 22 03 23 00.0000000  0  8 02 04 05 07 09 12 13 24
    963277.87948    750606.22444         0.00041  23366686.39444  23366683.83048
  -4023467.70849  -3135159.90748         0.00041  20627456.97648  20627457.46049
  -3602072.87648  -2806805.08146         0.00041  22832642.12246  22832642.23448
   3085389.77348   2404210.42946         0.00041  22808078.64146  22808078.44648
 -16602469.46949 -12936973.41548         0.00041  20992722.78048  20992723.28249
 -15564207.21508 -12127935.35608  21192606.04208  21192607.36308         0.00001
  -5218415.67209  -4066283.94508  20721934.32609  20721934.97008         0.00001
  -5211383.15648  -4060808.62446         0.00041  21436626.20646  21436625.55348
 94 02 22 03 23 30.0000000  0  8 02 04 05 07 09 12 13 24
   1039029.48948    809633.40844         0.00041  23381097.29744  23381096.86748
  -4035422.14349  -3144475.02448         0.00041  20625182.03548  20625182.36849
  -3681302.49948  -2868542.40046         0.00041  22817564.37046  22817565.32848
   3158587.89148   2461247.91546         0.00041  22822008.19546  22822007.47848
 -16614608.12849 -12946432.10048         0.00041  20990413.26548  20990413.83049
 -15614866.77608 -12167410.31008  21182965.81708  21182966.98808         0.00001
  -5182727.17509  -4038474.71408  20728725.68109  20728726.27308         0.00001
  -5285534.38148  -4118588.76546         0.00041  21422515.19246  21422515.06748
 94 02 22 03 24 00.0000000  0  8 02 04 05 07 09 12 13 24
   1115042.43148    868864.28644         0.00041  23395563.59844  23395560.36448
  -4046783.44449  -3153327.95848         0.00041  20623019.99048  20623020.67849
  -3760500.71348  -2930255.23946         0.00041  22802493.51946  22802494.02648
   3231888.09848   2518364.93146         0.00041  22835957.01446  22835955.29948
 -16626158.19049 -12955432.13448         0.00041  20988215.62548  20988215.83549
 -15665060.17508 -12206522.02208  21173414.29108  21173415.39208         0.00001
  -5146652.39709  -4010364.48808  20735590.59609  20735591.04208         0.00001
  -5359277.58848  -4176050.97746         0.00041  21408483.21446  21408482.30048
 94 02 22 03 24 30.0000000  0  8 02 04 05 07 09 12 13 24
   1191304.36748    928289.18844         0.00041  23410075.06344  23410074.03848
  -4057567.66349  -3161731.22448         0.00041  20620967.85048  20620968.71149
  -3839670.45548  -2991945.89746         0.00041  22787428.13546  22787428.28048
   3305276.18448   2575550.41946         0.00041  22849922.03446  22849921.03548
 -16637114.40249 -12963969.43248         0.00041  20986130.57148  20986130.51049
 -15714798.90708 -12245279.44008  21163949.12708  21163950.26108         0.00001
  -5110207.44809  -3981965.81708  20742525.71709  20742526.34408         0.00001
  -5432610.46348  -4233193.45446         0.00041  21394527.97146  21394527.05648
 94 02 22 03 25 00.0000000  0  8 02 04 05 07 09 12 13 24
   1267829.30448    987919.03145         0.00041  23424634.02745  23424637.66548
  -4067775.80549  -3169685.60448         0.00041  20619025.08848  20619026.32649
  -3918785.17948  -3053593.67346         0.00041  22772372.50546  22772373.12248
   3378769.10648   2632817.60146         0.00041  22863907.92146  22863906.39948
 -16647455.60649 -12972027.50448         0.00041  20984162.65548  20984162.52249
 -15764074.62208 -12283676.07308  21154572.25008  21154573.29708         0.00001
  -5073388.67909  -3953275.85108  20749531.84009  20749532.98908         0.00001
  -5505509.07648  -4289997.53046         0.00041  21380655.57946  21380654.46448
 94 02 22 03 25 30.0000000  0  8 02 04 05 07 09 12 13 24
   1344609.23048   1047747.57744         0.00041  23439248.87144  23439248.25948
  -4077402.08249  -3177186.57948         0.00041  20617193.19248  20617194.48849
  -3997828.33748  -3115185.68846         0.00041  22757331.09546  22757331.39048
   3452357.84748   2690159.44146         0.00041  22877910.32446  22877909.40948
 -16657193.37849 -12979615.36748         0.00041  20982310.31248  20982309.80549
 -15812891.19608 -12321714.93508  21145282.79108  21145283.92808         0.00001
  -5036204.38209  -3924301.05508  20756607.81009  20756609.02308         0.00001
  -5577964.52748  -4346456.26946         0.00041  21366867.54746  21366866.30448
 94 02 22 03 26 00.0000000  0  8 02 04 05 07 09 12 13 24
   1421617.55448   1107754.02444         0.00041  23453902.96244  23453900.41648
  -4086459.47449  -3184244.26248         0.00041  20615469.82048  20615470.75549
  -4076803.87348  -3176725.01946         0.00041  22742303.04546  22742302.81448
   3526015.25448   2747554.78446         0.00041  22891927.63746  22891927.22948
 -16666353.11949 -12986752.82148         0.00041  20980567.11848  20980566.55449
 -15861263.74708 -12359407.80608  21136077.93308  21136079.11508         0.00001
  -4998674.31109  -3895056.82708  20763749.66109  20763750.73408         0.00001
  -5649988.31348  -4402578.65146         0.00041  21353161.87946  21353160.80748
 94 02 22 03 26 30.0000000  0  8 02 04 05 07 09 12 13 24
   1498839.21948   1167926.72944         0.00041  23468599.45744  23468594.74748
  -4094946.01949  -3190857.12748         0.00041  20613854.88048  20613855.10449
  -4155710.81548  -3238210.89246         0.00041  22727287.52246  22727287.17948
   3599716.02948   2804983.91146         0.00041  22905951.66346  22905951.88148
 -16674950.30049 -12993451.91448         0.00041  20978930.83848  20978930.42149
 -15909198.29509 -12396759.36708  21126956.49609  21126957.52708         0.00001
  -4960809.05809  -3865551.42008  20770955.20709  20770956.17608         0.00001
  -5721587.00148  -4458369.78746         0.00041  21339537.31246  21339535.78048
 94 02 22 03 27 00.0000000  0  8 02 04 05 07 09 12 13 24
   1576287.74848   1228276.23544         0.00041  23483338.91344  23483334.37048
  -4102839.71549  -3197008.02148         0.00041  20612352.77348  20612352.92449
  -4234532.03948  -3299629.99646         0.00041  22712288.32146  22712287.30648
   3673466.40348   2862451.67846         0.00041  22919986.13846  22919985.47348
 -16682982.82649 -12999711.01748         0.00041  20977402.42948  20977401.66149
 -15956671.28409 -12433751.28608  21117922.76209  21117923.66708         0.00001
  -4922589.64108  -3835770.04408  20778227.89208  20778228.96208         0.00001
  -5792759.01548  -4513828.43346         0.00041  21325994.34146  21325992.03448
 94 02 22 03 27 30.0000000  0  8 02 04 05 07 09 12 13 24
   1653945.63748   1288788.99944         0.00041  23498108.31044  23498113.62848
  -4110145.60149  -3202700.88348         0.00041  20610962.83648  20610962.82149
  -4313279.36548  -3360991.50346         0.00041  22697304.08746  22697301.26748
   3747234.49648   2919933.25646         0.00041  22934022.99246  22934022.37648
 -16690460.59949 -13005537.85248         0.00041  20975979.29548  20975978.41049
 -16003686.98809 -12470386.87708  21108976.03509  21108976.89308         0.00001
  -4884025.16908  -3805719.79508  20785566.36608  20785567.56608         0.00001
  -5863524.66748  -4568970.45446         0.00041  21312527.08046  21312525.97648
 94 02 22 03 28 00.0000000  0  8 02 04 05 07 09 12 13 24
   1731799.41348   1349454.22644         0.00041  23512930.99744  23512928.61948
  -4116883.63449  -3207951.26948         0.00041  20609680.81648  20609680.70749
  -4391978.88548  -3422315.77046         0.00041  22682327.68046  22682325.21748
   3821006.32848   2977417.75746         0.00041  22948061.21446  22948059.73148
 -16697380.25149 -13010929.80048         0.00041  20974662.41348  20974661.91049
 -16050253.44209 -12506672.39108  21100114.50209  21100115.60408         0.00001
  -4845127.93208  -3775410.24108  20792968.27208  20792969.50908         0.00001
  -5933890.80448  -4623801.15546         0.00041  21299136.35546  21299135.83448
 94 02 22 03 28 30.0000000  0  8 02 04 05 07 09 12 13 24
   1809863.09248   1410283.08044         0.00041  23527794.33044  23527783.98148
  -4123052.86049  -3212758.43248         0.00041  20608506.49948  20608507.02849
  -4470632.16648  -3483603.99346         0.00041  22667360.30846  22667358.05248
   3894784.32948   3034907.06646         0.00041  22962100.39846  22962099.07348
 -16703734.20549 -13015880.92848         0.00041  20973453.16248  20973452.89749
 -16096360.71008 -12542600.10808  21091340.09108  21091341.77508         0.00001
  -4805892.42508  -3744837.09308  20800434.51408  20800435.71808         0.00001
  -6003845.38248  -4678311.17046         0.00041  21285824.93446  21285823.70348
 94 02 22 03 29 00.0000000  0  8 02 04 05 07 09 12 13 24
   1888156.86848   1471291.23544         0.00041  23542681.12044  23542683.79248
  -4128636.89949  -3217109.61448         0.00041  20607443.74548  20607444.47549
  -4549224.28848  -3544844.55946         0.00041  22652404.47346  22652402.76748
   3968586.58748   3092415.30946         0.00041  22976142.63646  22976143.73548
 -16709502.17849 -13020375.43448         0.00041  20972355.41548  20972355.47249
 -16141989.53608 -12578155.02508  21082656.91808  21082658.86508         0.00001
  -4766304.06908  -3713988.99508  20807967.98708  20807969.07708         0.00001
  -6073369.28148  -4732485.60046         0.00041  21272595.05146  21272593.96048
 94 02 22 03 29 30.0000000  0  8 02 04 05 07 09 12 13 24
   1966708.14548   1532500.05444         0.00041  23557639.37944  23557631.87848
  -4133609.99749  -3220984.73148         0.00041  20606497.20748  20606497.73649
  -4627715.65648  -3606006.61746         0.00041  22637468.05346  22637466.09748
   4042453.31048   3149973.76446         0.00041  22990202.03746  22990201.76848
 -16714652.18349 -13024388.41548         0.00041  20971375.48348  20971375.51549
 -16187112.57608 -12613315.81308  21074070.40708  21074072.17108         0.00001
  -4726339.95208  -3682848.09408  20815573.01908  20815573.90608         0.00001
  -6142414.76148  -4786287.21846         0.00041  21259456.75946  21259454.80848
 94 02 22 03 30 00.0000000  0  8 02 04 05 07 09 12 13 24
   2045517.95848   1593910.35244         0.00041  23572625.83144  23572628.66248
  -4137963.71449  -3224377.22148         0.00041  20605668.71048  20605668.86449
  -4706106.67748  -3667090.47546         0.00041  22622550.17146  22622549.68148
   4116400.32148   3207594.78446         0.00041  23004273.25546  23004273.67648
 -16719195.90149 -13027928.96548         0.00041  20970510.76248  20970510.90749
 -16231729.11008 -12648081.92408  21065580.27208  21065581.87408         0.00001
  -4686004.08209  -3651417.53508  20823248.81109  20823249.67308         0.00001
  -6210970.41948  -4839707.16746         0.00041  21246410.11846  21246409.15848
 94 02 22 03 30 30.0000000  0  8 02 04 05 07 09 12 13 24
   2124535.83748   1655482.64544         0.00041  23587668.28344  23587666.15648
  -4141750.33849  -3227327.80648         0.00041  20604947.87748  20604948.14649
  -4784455.36348  -3728141.33446         0.00041  22607641.27146  22607640.35848
   4190372.47048   3265235.41446         0.00041  23018348.51846  23018349.62948
 -16723204.73449 -13031052.71648         0.00041  20969748.02048  20969748.08449
 -16275898.38208 -12682499.52408  21057175.47008  21057176.64108         0.00001
  -4645360.25209  -3619747.00608  20830983.16709  20830983.94408         0.00001
  -6279103.51248  -4892797.84946         0.00041  21233445.20546  21233443.93748
 94 02 22 03 31 00.0000000  0  8 02 04 05 07 09 12 13 24
   2203769.74648   1717223.23744         0.00041  23602740.02044  23602743.14148
  -4144947.99849  -3229819.45948         0.00041  20604339.41048  20604339.79549
  -4862746.99548  -3789147.74346         0.00041  22592743.09546  22592742.36348
   4264381.48548   3322904.77246         0.00041  23032432.62246  23032432.38848
 -16726672.80249 -13033755.09648         0.00041  20969088.10248  20969088.06749
 -16319613.70208 -12716563.38208  21048856.88108  21048857.64608         0.00001
  -4604406.03208  -3587834.60108  20838776.28808  20838777.23008         0.00001
  -6346814.02448  -4945559.23146         0.00041  21220560.37346  21220559.28448
 94 02 22 03 31 30.0000000  0  8 02 04 05 07 09 12 13 24
   2283256.28247   1779161.00944         0.00041  23617871.21844  23617865.72547
  -4147537.59249  -3231837.29848         0.00041  20603846.89748  20603847.45049
  -4940960.03948  -3850092.94346         0.00041  22577859.35346  22577858.48948
   4338442.59448   3380614.70746         0.00041  23046526.09346  23046525.01648
 -16729576.64449 -13036017.82547         0.00041  20968535.40347  20968534.96849
 -16362844.33308 -12750249.55208  21040630.12008  21040631.05408         0.00001
  -4563115.22908  -3555659.93108  20846633.60108  20846634.49208         0.00001
  -6414069.51648  -4997966.05646         0.00041  21207761.57546  21207761.03348
 94 02 22 03 32 00.0000000  0  7 04 05 07 09 12 13 24
  -4149507.67049  -3233372.40048         0.00041  20603472.42648  20603472.61249
  -5019117.48048  -3910994.79546         0.00041  22562986.76746  22562985.75948
   4412546.98148   3438358.37146         0.00041  23060628.38646  23060626.72248
 -16731907.01049 -13037833.68847         0.00041  20968091.45447  20968090.82449
 -16405587.70208 -12783556.04608  21032496.21908  21032497.30408         0.00001
  -4521489.89108  -3523224.59108  20854554.75808  20854555.39008         0.00001
  -6480882.40348  -5050027.99746         0.00041  21195047.59846  21195047.04448
 94 02 22 03 32 30.0000000  0  7 04 05 07 09 12 13 24
  -4150910.73449  -3234465.67448         0.00041  20603205.38148  20603205.58249
  -5097256.99048  -3971882.67146         0.00041  22548116.74246  22548116.67348
   4486649.39448   3496100.45646         0.00041  23074731.15446  23074728.66548
 -16733680.83949 -13039215.89547         0.00041  20967754.37547  20967753.62549
 -16447877.16608 -12816508.86208  21024448.70508  21024450.10908         0.00001
  -4479567.45908  -3490557.75308  20862532.35908  20862532.85308         0.00001
  -6547293.58548  -5101776.92146         0.00041  21182409.83046  21182409.35548
 94 02 22 03 33 00.0000000  0  7 04 05 07 09 12 13 24
  -4151719.36549  -3235095.74448         0.00041  20603051.53148  20603051.77849
  -5175335.46448  -4032722.97946         0.00041  22533259.51346  22533259.16548
   4560781.62548   3553865.83046         0.00041  23088836.84446  23088835.94848
 -16734864.52049 -13040138.24148         0.00041  20967529.03948  20967528.80649
 -16489676.05508 -12849079.39208  21016494.57308  21016496.20008         0.00001
  -4437316.21908  -3457634.70608  20870572.27108  20870572.88708         0.00001
  -6613261.55548  -5153180.49046         0.00041  21169856.39846  21169856.04148
 94 02 22 03 33 30.0000000  0  7 04 05 07 09 12 13 24
  -4151919.86549  -3235251.95248         0.00041  20603013.22348  20603013.98149
  -5253320.55748  -4093490.53146         0.00041  22518419.38546  22518419.50948
   4634982.91348   3611685.04246         0.00041  23102955.61346  23102955.61148
 -16735417.32049 -13040568.99048         0.00041  20967424.12348  20967423.86849
 -16530951.60108 -12881242.13108  21008640.25308  21008641.78708         0.00001
  -4394707.41908  -3424433.03808  20878680.28008  20878681.09608         0.00001
  -6678748.81748  -5204209.47546         0.00041  21157394.09746  21157394.20048
 94 02 22 03 34 00.0000000  0  7 04 05 07 09 12 13 24
  -4151522.14849  -3234942.01848         0.00041  20603088.61048  20603089.47449
  -5331212.66148  -4154185.64446         0.00041  22503596.49446  22503597.29948
   4709256.45048   3669560.51745         0.00041  23117090.97945  23117087.24648
 -16735341.57749 -13040509.96548         0.00041  20967438.80148  20967438.19049
 -16571713.43308 -12913004.57908  21000883.55808  21000885.08008         0.00001
  -4351755.49208  -3390963.99208  20886853.61908  20886854.68708         0.00001
  -6743769.59048  -5254874.96946         0.00041  21145020.45346  21145021.10448
 94 02 22 03 34 30.0000000  0  7 04 05 07 09 12 13 24
  -4150543.00249  -3234179.03048         0.00041  20603274.50748  20603275.71149
  -5408991.42448  -4214792.43046         0.00041  22488796.38446  22488796.42448
   4783598.14548   3727489.13345         0.00041  23131237.99345  23131233.20248
 -16734650.70249 -13039971.62248         0.00041  20967570.44148  20967569.87249
 -16611963.54808 -12944368.28608  20993224.11108  20993225.60008         0.00001
  -4308466.34608  -3357232.17208  20895091.32108  20895092.46108         0.00001
  -6808330.45448  -5305182.08646         0.00041  21132735.05046  21132735.38348
 94 02 22 03 35 00.0000000  0  7 04 05 07 09 12 13 24
  -4148964.22649  -3232948.80148         0.00041  20603574.90548  20603575.72249
  -5486639.62548  -4275297.47746         0.00041  22474020.25846  22474020.48248
   4858014.75248   3785476.13745         0.00041  23145399.98345  23145394.27948
 -16733349.06649 -13038957.36148         0.00041  20967818.11648  20967817.77649
 -16651695.09208 -12975327.92308  20985663.38208  20985664.72708         0.00001
  -4264837.83108  -3323235.92008  20903393.66108  20903394.59308         0.00001
  -6872422.59448  -5355123.95646         0.00041  21120538.05446  21120538.82948
 94 02 22 03 35 30.0000000  0  7 04 05 07 09 12 13 24
  -4146822.15949  -3231279.63548         0.00041  20603982.44448  20603982.98349
  -5564190.60548  -4335726.76046         0.00041  22459262.83046  22459262.92948
   4932470.48048   3843493.65845         0.00041  23159569.26745  23159563.68148
 -16731462.75349 -13037487.50048         0.00041  20968176.90048  20968176.73149
 -16690935.62408 -13005904.95308  20978196.18708  20978197.35008         0.00001
  -4220901.85708  -3289000.09608  20911754.37408  20911755.21108         0.00001
  -6936069.10148  -5404718.58746         0.00041  21108426.65946  21108427.07948
 94 02 22 03 36 00.0000000  0  7 04 05 07 09 12 13 24
  -4144111.56849  -3229167.46348         0.00041  20604498.34248  20604498.69849
  -5641644.92248  -4396080.73346         0.00041  22444523.72946  22444523.77248
   5006958.03348   3901535.93745         0.00041  23173743.23945  23173738.27248
 -16729004.93849 -13035572.30748         0.00041  20968644.62348  20968644.24249
 -16729679.27009 -13036094.79208  20970823.70809  20970824.57808         0.00001
  -4176656.91308  -3254523.50408  20920173.87008  20920174.56808         0.00001
  -6999263.52348  -5453960.94846         0.00041  21096402.27446  21096401.69948
 94 02 22 03 36 30.0000000  0  7 04 05 07 09 12 13 24
  -4140847.49849  -3226624.00848         0.00041  20605119.73948  20605119.87849
  -5719014.84648  -4456368.94546         0.00041  22429800.89646  22429800.57648
   5081460.61648   3959589.91245         0.00041  23187917.99545  23187915.91348
 -16726004.41049 -13033234.22048         0.00041  20969215.37048  20969215.08249
 -16767934.27009 -13065903.85408  20963544.17409  20963544.93908         0.00001
  -4132115.55108  -3219815.95108  20928650.00508  20928650.54008         0.00001
  -7062007.06948  -5502851.97446         0.00041  21084463.18546  21084462.01748
 94 02 22 03 37 00.0000000  0  7 04 05 07 09 12 13 24
  -4137020.03649  -3223641.54748         0.00041  20605848.09848  20605848.64249
  -5796306.84448  -4516596.44346         0.00041  22415092.75546  22415092.46148
   5155991.39348   4017665.86645         0.00041  23202101.76345  23202099.59748
 -16722450.44849 -13030464.88948         0.00041  20969891.22848  20969891.00949
 -16805693.64909 -13095326.72308  20956358.83809  20956359.66908         0.00001
  -4087274.87008  -3184875.15708  20937183.10208  20937183.56508         0.00001
  -7124275.59448  -5551372.84046         0.00041  21072613.37846  21072612.57448
 94 02 22 03 37 30.0000000  0  7 04 05 07 09 12 13 24
  -4132643.87149  -3220231.52348         0.00041  20606680.74048  20606681.68749
  -5873543.00948  -4576780.44546         0.00041  22400394.54146  22400394.35648
   5230534.86448   4075751.69046         0.00041  23216286.61446  23216286.19948
 -16718350.42149 -13027270.05948         0.00041  20970671.69948  20970671.32249
 -16842964.99209 -13124369.30408  20949266.33709  20949267.21708         0.00001
  -4042147.38508  -3149710.88208  20945770.44208  20945771.06008         0.00001
  -7186087.91648  -5599538.22746         0.00041  21060851.10446  21060849.97348
 94 02 22 03 38 00.0000000  0  7 04 05 07 09 12 13 24
  -4127699.30249  -3216378.59048         0.00041  20607621.76748  20607622.48749
  -5950714.55048  -4636914.08546         0.00041  22385709.27946  22385708.90948
   5305087.06448   4133844.33046         0.00041  23230473.20246  23230474.21548
 -16713703.88349 -13023649.38648         0.00041  20971555.90948  20971555.56249
 -16879745.86109 -13153029.71508  20942267.05709  20942267.95308         0.00001
  -3996734.60908  -3114324.28508  20954411.91908  20954412.80308         0.00001
  -7247457.00748  -5647358.24146         0.00041  21049172.60846  21049171.78248
 94 02 22 03 38 30.0000000  0  7 04 05 07 09 12 13 24
  -4122169.69749  -3212069.78448         0.00041  20608673.86948  20608674.69149
  -6027796.45348  -4696977.89046         0.00041  22371040.59946  22371040.31848
   5379654.03748   4191948.46946         0.00041  23244663.84146  23244663.69448
 -16708480.52449 -13019579.22248         0.00041  20972549.93148  20972550.10149
 -16916027.67309 -13181301.25508  20935362.71909  20935363.67608         0.00001
  -3951032.24608  -3078712.03808  20963108.75308  20963109.61408         0.00001
  -7308382.00748  -5694832.22046         0.00041  21037579.34546  21037578.32548
 94 02 22 03 39 00.0000000  0  7 04 05 07 09 12 13 24
  -4116023.07649  -3207280.19248         0.00041  20609842.92748  20609844.11849
  -6104770.85948  -4756957.91146         0.00041  22356393.41246  22356392.42248
   5454250.25948   4250075.43446         0.00041  23258860.33446  23258859.59548
 -16702649.79649 -13015035.78848         0.00041  20973659.08848  20973659.55749
 -16951793.10608 -13209170.41708  20928556.65308  20928557.69208         0.00001
  -3905027.19208  -3042863.93208  20971863.39108  20971864.08708         0.00001
  -7368850.00148  -5741950.09246         0.00041  21026071.91746  21026071.55548
 94 02 22 03 39 30.0000000  0  8 02 04 05 07 09 12 13 24
        -0.61558        -0.21754         0.00051  23865887.16354  23865876.89758
  -4109256.70049  -3202007.69148         0.00041  20611130.48248  20611131.97349
  -6181619.36648  -4816839.82346         0.00041  22341769.70346  22341768.88548
   5528871.92348   4308222.19846         0.00041  23273058.93646  23273058.00348
 -16696214.97149 -13010021.62648         0.00041  20974883.92048  20974884.00449
 -16987028.59708 -13236626.62808  20921851.45308  20921852.53708         0.00001
  -3858710.43808  -3006772.94908  20980677.23508  20980677.96808         0.00001
  -7428846.67948  -5788700.70646         0.00041  21014655.24446  21014654.51848
 94 02 22 03 40 00.0000000  0  8 02 04 05 07 09 12 13 24
     83416.39848     65000.00844         0.00041  23881753.58044  23881752.88148
  -4101888.89049  -3196266.52848         0.00041  20612532.34848  20612533.87249
  -6258339.68848  -4876621.85546         0.00041  22327170.34046  22327168.49648
   5603515.52548   4366386.10745         0.00041  23287261.06145  23287260.21248
 -16689196.42149 -13004552.61248         0.00041  20976219.61948  20976219.65249
 -17021746.78808 -13263679.74708  20915244.92808  20915245.77708         0.00001
  -3812098.72508  -2970452.11908  20989547.12208  20989548.08408         0.00001
  -7488367.70948  -5835080.68746         0.00041  21003328.63046  21003328.16248
 94 02 22 03 40 30.0000000  0  8 02 04 05 07 09 12 13 24
    167063.68748    130179.69344         0.00041  23897675.72244  23897671.85248
  -4093928.46049  -3190063.58448         0.00041  20614047.57248  20614049.04849
  -6334934.27248  -4936305.90546         0.00041  22312594.56546  22312593.06448
   5678196.53348   4424579.12645         0.00041  23301472.06645  23301471.78748
 -16681596.34949 -12998630.47748         0.00041  20977665.46948  20977665.75049
 -17055937.03409 -13290321.47908  20908738.84609  20908739.55908         0.00001
  -3765185.33608  -2933896.21608  20998474.48508  20998475.51408         0.00001
  -7547381.96448  -5881065.78346         0.00041  20992098.14546  20992097.96648
 94 02 22 03 41 00.0000000  0  8 02 04 05 07 09 12 13 24
    250914.57148    195518.04344         0.00041  23913630.37244  23913627.36548
  -4085398.67049  -3183416.97548         0.00041  20615671.08148  20615672.09649
  -6411438.25848  -4995919.36246         0.00041  22298036.38946  22298035.35148
   5752903.11748   4482792.06945         0.00041  23315688.55345  23315689.44148
 -16673446.16349 -12992279.68448         0.00041  20979216.72948  20979216.90649
 -17089609.23309 -13316559.53408  20902331.32309  20902332.01208         0.00001
  -3717984.57808  -2897116.38708  21007456.45108  21007457.44108         0.00001
  -7605884.89548  -5926652.43246         0.00041  20980965.02746  20980965.19848
 94 02 22 03 41 30.0000000  0  8 02 04 05 07 09 12 13 24
    334953.93848    261003.22644         0.00041  23929623.69244  23929618.88648
  -4076328.48149  -3176349.26548         0.00041  20617397.06048  20617397.83749
  -6487856.64648  -5055466.13546         0.00041  22283494.55846  22283493.80948
   5827631.48748   4541021.92145         0.00041  23329908.55845  23329909.89748
 -16664758.55649 -12985510.11248         0.00041  20980870.06148  20980869.78249
 -17122771.11509 -13342399.94308  20896020.84809  20896021.61808         0.00001
  -3670508.55308  -2860122.07408  21016490.61208  21016491.76508         0.00001
  -7663893.91848  -5971854.22946         0.00041  20969926.60946  20969926.45648
 94 02 22 03 42 00.0000000  0  8 02 04 05 07 09 12 13 24
    419158.01248    326616.75144         0.00041  23945641.84444  23945643.22648
  -4066746.79749  -3168882.98148         0.00041  20619220.75448  20619221.15149
  -6564225.90249  -5114974.60846         0.00041  22268961.47146  22268961.44049
   5902355.86748   4599248.78945         0.00041  23344127.65445  23344129.40848
 -16655560.27449 -12978342.61548         0.00041  20982620.43948  20982619.93349
 -17155458.30709 -13367870.46508  20889800.69609  20889801.56008         0.00001
  -3622796.79908  -2822944.06608  21025569.82708  21025570.85408         0.00001
  -7721461.49548  -6016712.04646         0.00041  20958971.38046  20958971.80748
 94 02 22 03 42 30.0000000  0  8 02 04 05 07 09 12 13 24
    503584.03848    392403.37344         0.00041  23961705.79344  23961709.05948
  -4056590.53349  -3160968.96748         0.00041  20621153.51348  20621153.87449
  -6640510.35449  -5174417.00646         0.00041  22254444.80046  22254445.24949
   5977121.56748   4657507.79445         0.00041  23358357.67845  23358357.63948
 -16645787.90049 -12970727.77848         0.00041  20984479.99648  20984479.65849
 -17187613.48909 -13392926.43608  20883681.76209  20883682.63008         0.00001
  -3574796.10908  -2785540.93508  21034704.42708  21034705.16008         0.00001
  -7778538.27548  -6061187.42446         0.00041  20948110.52446  20948110.19448
 94 02 22 03 43 00.0000000  0  8 02 04 05 07 09 12 13 24
    588245.67148    458373.37044         0.00041  23977821.70444  23977818.51948
  -4045844.17549  -3152595.15848         0.00041  20623198.25748  20623198.89849
  -6716695.58549  -5233782.08546         0.00041  22239946.59346  22239947.61749
   6051944.45448   4715811.37645         0.00041  23372595.51345  23372596.34348
 -16635410.24749 -12962641.29248         0.00041  20986454.65248  20986454.42449
 -17219220.05509 -13417554.92308  20877667.35309  20877668.02708         0.00001
  -3526494.21908  -2747903.08108  21043896.00608  21043896.82608         0.00001
  -7835134.57448  -6105288.38346         0.00041  20937340.22346  20937340.11148
 94 02 22 03 43 30.0000000  0  8 02 04 05 07 09 12 13 24
    673135.18048    524521.13044         0.00041  23993965.02944  23993971.33548
  -4034512.20649  -3143765.03448         0.00041  20625354.30448  20625355.30649
  -6792785.89949  -5293073.20346         0.00041  22225466.91446  22225468.30149
   6126806.48248   4774145.43645         0.00041  23386842.91145  23386842.16648
 -16624426.39549 -12954082.43948         0.00041  20988544.42748  20988544.68749
 -17250291.96509 -13441766.78208  20871754.56809  20871755.17608         0.00001
  -3477909.16809  -2710044.59708  21053141.48309  21053142.25508         0.00001
  -7891274.32649  -6149033.60047         0.00041  20926657.35647  20926657.07249
 94 02 22 03 44 00.0000000  0  8 02 04 05 07 09 12 13 24
    758252.12648    590845.99044         0.00041  24010167.70744  24010169.87148
  -4022576.43249  -3134464.41248         0.00041  20627625.35248  20627626.57949
  -6868792.84949  -5352299.37746         0.00041  22211003.52846  22211004.38949
   6201696.40348   4832501.17745         0.00041  23401094.96545  23401092.98848
 -16612835.79849 -12945050.80848         0.00041  20990750.40148  20990750.38249
 -17280828.75709 -13465561.66108  20865943.53509  20865944.14408         0.00001
  -3429044.43909  -2671968.20708  21062440.48309  21062440.77408         0.00001
  -7946939.26348  -6192408.84447         0.00041  20916064.88347  20916064.30448
 94 02 22 03 44 30.0000000  0  8 02 04 05 07 09 12 13 24
    843581.13248    657335.99444         0.00041  24026408.07444  24026407.09548
  -4010035.42749  -3124692.18248         0.00041  20630012.19448  20630013.21149
  -6944706.61449  -5411452.91246         0.00041  22196557.46646  22196558.84849
   6276617.87148   4890881.59745         0.00041  23415351.43945  23415349.17748
 -16600629.56549 -12935539.45448         0.00041  20993072.91148  20993073.22349
 -17310821.15509 -13488932.33908  20860236.05409  20860236.58108         0.00001
  -3379894.95409  -2633669.89208  21071793.40309  21071793.48608         0.00001
  -8002116.13249  -6235403.75947         0.00041  20905565.08747  20905564.50249
 94 02 22 03 45 00.0000000  0  8 02 04 05 07 09 12 13 24
    929121.65448    723991.26144         0.00041  24042691.52144  24042683.17648
  -3996892.34949  -3114450.80848         0.00041  20632513.42748  20632514.04349
  -7020503.84549  -5470515.63846         0.00041  22182133.77846  22182135.02949
   6351578.18748   4949292.26545         0.00041  23429614.56745  23429610.69648
 -16587808.56749 -12925549.06248         0.00041  20995512.75348  20995513.16549
 -17340264.98008 -13511875.56408  20854632.93108  20854633.56608         0.00001
  -3330460.44509  -2595149.49808  21081200.48009  21081200.48708         0.00001
  -8056805.62649  -6278018.90347         0.00041  20895158.30847  20895157.70849
 94 02 22 03 45 30.0000000  0  8 02 04 05 07 09 12 13 24
   1014898.44847    790830.05144         0.00041  24059004.81044  24059005.06847
  -3983134.08149  -3103730.06748         0.00041  20635131.69748  20635131.80649
  -7096152.61949  -5529462.71446         0.00041  22167738.60446  22167739.34949
   6426586.12548   5007740.05245         0.00041  23443887.61845  23443882.14548
 -16574374.69249 -12915081.10148         0.00041  20998069.23548  20998069.63349
 -17369143.01408 -13534377.91708  20849137.48008  20849138.26208         0.00001
  -3280727.81509  -2556396.80508  21090663.97609  21090664.45308         0.00001
  -8110975.96649  -6320229.52547         0.00041  20884849.76847  20884849.45349
 94 02 22 03 46 00.0000000  0  8 02 04 05 07 09 12 13 24
   1100909.64748    857851.82344         0.00041  24075375.63244  24075374.52148
  -3968786.80249  -3092550.35648         0.00041  20637861.73748  20637861.73749
  -7171644.02349  -5588287.15747         0.00041  22153373.59347  22153373.61749
   6501638.33648   5066222.34044         0.00041  23458167.60844  23458166.00748
 -16560348.29649 -12904151.43648         0.00041  21000738.22548  21000738.52449
 -17397456.79408 -13556440.58608  20843749.52408  20843750.41608         0.00001
  -3230702.63708  -2517416.13008  21100183.22208  21100184.07808         0.00001
  -8164637.25049  -6362043.46747         0.00041  20874638.44347  20874638.09349
 94 02 22 03 46 30.0000000  0  8 02 04 05 07 09 12 13 24
   1187129.37448    925036.15344         0.00041  24091782.13244  24091781.97048
  -3953906.76949  -3080955.50848         0.00041  20640693.04148  20640693.56749
  -7246991.52449  -5646999.46447         0.00041  22139035.32547  22139035.43249
   6576703.24448   5124714.47445         0.00041  23472453.65645  23472452.69248
 -16545754.66549 -12892779.78148         0.00041  21003515.38648  21003515.67249
 -17425232.50508 -13578083.98708  20838464.04508  20838464.96408         0.00001
  -3180415.08008  -2478230.99708  21109752.48308  21109753.47108         0.00001
  -8217824.15349  -6403487.77847         0.00041  20864516.83247  20864517.05649
 94 02 22 03 47 00.0000000  0  8 02 04 05 07 09 12 13 24
   1273578.58647    992399.09944         0.00041  24108226.39444  24108229.39947
  -3938492.16849  -3068944.11848         0.00041  20643625.67648  20643627.05749
  -7322181.71248  -5705589.18047         0.00041  22124727.05847  22124726.97448
   6651787.86748   5183221.96445         0.00041  23486742.12445  23486742.40648
 -16530599.34249 -12880970.44348         0.00041  21006399.45048  21006399.81449
 -17452462.43209 -13599302.09908  20833282.38709  20833283.39408         0.00001
  -3129861.24308  -2438838.37308  21119372.63308  21119373.50308         0.00001
  -8270520.41049  -6444549.75847         0.00041  20854489.04947  20854489.14949
 94 02 22 03 47 30.0000000  0  7 04 05 07 09 12 13 24
  -3922560.04949  -3056529.46448         0.00041  20646656.90848  20646658.93749
  -7397235.34548  -5764072.50047         0.00041  22110445.02547  22110444.55648
   6726867.72348   5241725.74445         0.00041  23501025.60645  23501029.54148
 -16514904.62849 -12868740.80848         0.00041  21009385.89848  21009386.39549
 -17479162.84309 -13620107.60508  20828201.42309  20828202.61208         0.00001
  -3079061.64308  -2399254.26208  21129039.59708  21129040.23208         0.00001
  -8322729.96449  -6485232.48147         0.00041  20844554.06547  20844553.78149
 94 02 22 03 48 00.0000000  0  7 04 05 07 09 12 13 24
  -3906104.34549  -3043706.82148         0.00041  20649788.11548  20649790.09849
  -7472166.08348  -5822460.05447         0.00041  22096186.24747  22096185.81748
   6801937.12248   5300221.38145         0.00041  23515315.14445  23515314.71148
 -16498665.79049 -12856087.17148         0.00041  21012476.14948  21012476.65649
 -17505341.09909 -13640506.24308  20823219.80609  20823221.07408         0.00001
  -3028027.32109  -2359487.24308  21138751.25009  21138751.60508         0.00001
  -8374451.84949  -6525535.19847         0.00041  20834711.76947  20834711.25949
 94 02 22 03 48 30.0000000  0  7 04 05 07 09 12 13 24
  -3889098.93049  -3030455.83148         0.00041  20653024.52648  20653025.91749
  -7546980.07448  -5880756.64547         0.00041  22081949.80447  22081949.13548
   6877004.15248   5358715.20645         0.00041  23529595.18145  23529599.06448
 -16481877.50549 -12843005.38948         0.00041  21015670.78448  21015671.06649
 -17530995.07709 -13660496.34108  20818337.97709  20818339.22608         0.00001
  -2976759.95009  -2319538.63708  21148507.17109  21148507.30208         0.00001
  -8425677.43349  -6565451.18647         0.00041  20824963.83847  20824963.36849
 94 02 22 03 49 00.0000000  0  7 04 05 07 09 12 13 24
  -3871507.30549  -3016748.04948         0.00041  20656372.27248  20656373.44449
  -7621668.39448  -5938955.30447         0.00041  22067737.28647  22067736.35248
   6952085.10048   5417219.89945         0.00041  23543881.67945  23543884.93648
 -16464536.78249 -12829493.14348         0.00041  21018970.75348  21018970.48649
 -17556112.29808 -13680068.19108  20813558.32508  20813559.50208         0.00001
  -2925251.04108  -2279401.81508  21158308.94408  21158309.00108         0.00001
  -8476399.42049  -6604974.76747         0.00041  20815311.46947  20815311.39449
 94 02 22 03 49 30.0000000  0  7 04 05 07 09 12 13 24
  -3853336.13949  -3002588.67548         0.00041  20659830.05248  20659831.16649
  -7696255.79048  -5997075.31547         0.00041  22053543.49347  22053542.72748
   7027151.16648   5475712.94744         0.00041  23558167.45544  23558169.16648
 -16446645.06449 -12815551.55648         0.00041  21022374.99248  21022375.32349
 -17580710.79408 -13699235.83508  20808877.41408  20808878.49808         0.00001
  -2873522.60908  -2239093.93808  21168152.31008  21168152.34108         0.00001
  -8526643.06949  -6644125.61947         0.00041  20805750.65247  20805750.21249
 94 02 22 03 50 00.0000000  0  7 04 05 07 09 12 13 24
  -3834570.63649  -2987966.18248         0.00041  20663400.64648  20663402.38949
  -7770715.24648  -6055095.63446         0.00041  22039374.55246  22039372.96548
   7102230.40248   5534216.30144         0.00041  23572455.63544  23572456.26848
 -16428171.09649 -12801156.26648         0.00041  21025890.72548  21025890.69749
 -17604765.31608 -13717979.60108  20804299.89508  20804300.95708         0.00001
  -2821553.10208  -2198598.21608  21178041.66508  21178041.74808         0.00001
  -8576394.01849  -6682892.54947         0.00041  20796283.11047  20796282.92249
 94 02 22 03 50 30.0000000  0  7 04 05 07 09 12 13 24
  -3815228.90949  -2972894.68548         0.00041  20667081.13748  20667083.10349
  -7845046.33448  -6113015.94046         0.00041  22025229.85546  22025227.97648
   7177324.28748   5592731.04345         0.00041  23586745.16945  23586746.40448
 -16409127.01149 -12786316.72248         0.00041  21029514.81248  21029514.73349
 -17628271.72108 -13736296.25308  20799826.71808  20799827.66108         0.00001
  -2769342.03408  -2157914.26308  21187977.19208  21187977.39608         0.00001
  -8625660.77649  -6721282.19847         0.00041  20786907.61947  20786907.73649
 94 02 22 03 51 00.0000000  0  7 04 05 07 09 12 13 24
  -3795318.68449  -2957380.20648         0.00041  20670870.53848  20670871.82249
  -7919248.57248  -6170835.85146         0.00041  22011109.73046  22011107.39948
   7252434.18548   5651258.25145         0.00041  23601039.26045  23601039.07448
 -16389510.72249 -12771031.30648         0.00041  21033247.91148  21033247.51949
 -17651221.23108 -13754178.96208  20795459.60608  20795460.54608         0.00001
  -2716884.54208  -2117038.28808  21197959.51708  21197960.04508         0.00001
  -8674426.68249  -6759281.56147         0.00041  20777627.90647  20777627.85949
 94 02 22 03 51 30.0000000  0  7 04 05 07 09 12 13 24
  -3774861.50349  -2941439.52748         0.00041  20674763.83248  20674764.49149
  -7993321.54048  -6228555.03346         0.00041  21997013.96646  21997011.24848
   7327561.95748   5709799.38945         0.00041  23615332.75645  23615336.48048
 -16369321.26949 -12755299.26548         0.00041  21037090.17248  21037089.70049
 -17673610.62908 -13771625.22608  20791199.05208  20791200.00408         0.00001
  -2664181.19908  -2075970.73308  21207988.55608  21207989.31408         0.00001
  -8722679.52149  -6796881.12847         0.00041  20768445.13947  20768445.35649
 94 02 22 03 52 00.0000000  0  7 04 05 07 09 12 13 24
  -3753864.03449  -2925077.83848         0.00041  20678759.82148  20678760.02349
  -8067255.28048  -6286165.71547         0.00041  21982945.05547  21982942.41148
   7402721.75348   5768365.46744         0.00041  23629638.27944  23629640.03148
 -16348576.48649 -12739134.50248         0.00041  21041037.40548  21041036.83249
 -17695431.23908 -13788628.28208  20787046.70408  20787047.73608         0.00001
  -2611227.12008  -2034707.79108  21218065.14108  21218066.06008         0.00001
  -8770404.38249  -6834069.28547         0.00041  20759363.68547  20759363.50749
 94 02 22 03 52 30.0000000  0  7 04 05 07 09 12 13 24
  -3732325.67349  -2908294.66848         0.00041  20682858.75948  20682858.66449
  -8141064.48248  -6343679.35847         0.00041  21968899.68147  21968897.56248
   7477911.24748   5826954.69245         0.00041  23643949.28945  23643949.57048
 -16327290.19449 -12722547.78847         0.00041  21045087.85447  21045087.51649
 -17716689.65108 -13805193.27108  20783001.48208  20783002.32908         0.00001
  -2558032.40808  -1993257.34608  21228187.70908  21228188.63808         0.00001
  -8817599.90949  -6870844.98547         0.00041  20750382.43747  20750382.64649
 94 02 22 03 53 00.0000000  0  7 04 05 07 09 12 13 24
  -3710231.11949  -2891078.10048         0.00041  20687063.34548  20687063.46449
  -8214730.71948  -6401081.59847         0.00041  21954880.96647  21954879.77848
   7553142.73248   5885576.61545         0.00041  23658265.51345  23658265.21748
 -16305433.43149 -12705516.55247         0.00041  21049246.86347  21049246.67649
 -17737377.93809 -13821314.00608  20779064.81009  20779065.31608         0.00001
  -2504592.73108  -1951616.02508  21238356.83508  21238357.85108         0.00001
  -8864244.50549  -6907191.39247         0.00041  20741506.22947  20741506.59049
 94 02 22 03 53 30.0000000  0  7 04 05 07 09 12 13 24
  -3687594.38649  -2873439.06748         0.00041  20691371.01648  20691371.31049
  -8288257.67848  -6458375.30647         0.00041  21940889.44947  21940888.26048
   7628405.69148   5944223.03145         0.00041  23672587.54945  23672586.36748
 -16283007.93349 -12688042.13447         0.00041  21053514.28447  21053514.25549
 -17757508.69809 -13837000.28808  20775234.02809  20775234.54508         0.00001
  -2450924.70908  -1909796.76708  21248569.60608  21248570.55108         0.00001
  -8910358.61949  -6943124.43147         0.00041  20732730.97247  20732731.23449
 94 02 22 03 54 00.0000000  0  7 04 05 07 09 12 13 24
  -3664413.44549  -2855375.98148         0.00041  20695781.87848  20695782.69649
  -8361652.42449  -6515565.98447         0.00041  21926922.68147  21926921.52349
   7703694.92948   6002889.87745         0.00041  23686915.12145  23686911.87348
 -16260018.21449 -12670128.05547         0.00041  21057889.33847  21057889.27049
 -17777088.40109 -13852257.18108  20771508.05609  20771508.60908         0.00001
  -2397038.31808  -1867807.34908  21258823.93708  21258824.96208         0.00001
  -8955962.21349  -6978659.67247         0.00041  20724053.21847  20724052.82549
 94 02 22 03 54 30.0000000  0  7 04 05 07 09 12 13 24
  -3640711.02949  -2836906.55348         0.00041  20700291.87648  20700293.09249
  -8434935.65849  -6572669.77247         0.00041  21912976.95047  21912975.91849
   7778989.96248   6061561.32845         0.00041  23701239.41145  23701239.13048
 -16236472.52449 -12651780.75947         0.00041  21062369.74747  21062369.86449
 -17796138.50808 -13867101.40308  20767882.75208  20767883.46708         0.00001
  -2342958.33908  -1825667.08508  21269115.07808  21269116.04308         0.00001
  -9001086.45949  -7013821.38547         0.00041  20715466.12247  20715466.03649
 94 02 22 03 55 00.0000000  0  7 04 05 07 09 12 13 24
  -3616481.73149  -2818026.56448         0.00041  20704902.44648  20704903.47949
  -8508093.60249  -6629675.93247         0.00041  21899055.28247  21899054.36949
   7854274.05248   6120224.24444         0.00041  23715570.37244  23715564.29048
 -16212366.55449 -12632996.88947         0.00041  21066957.02347  21066956.78049
 -17814651.73208 -13881527.27908  20764359.53708  20764360.67408         0.00001
  -2288681.31408  -1783373.29208  21279443.61508  21279444.51908         0.00001
  -9045739.26849  -7048615.74147         0.00041  20706969.10447  20706968.89249
 94 02 22 03 55 30.0000000  0  7 04 05 07 09 12 13 24
  -3591736.99149  -2798744.93648         0.00041  20709611.54348  20709612.32949
  -8581138.36549  -6686593.89747         0.00041  21885155.23247  21885154.47049
   7929526.72147   6178862.80044         0.00041  23729886.84544  23729883.49047
 -16187729.76449 -12613799.39247         0.00041  21071645.41547  21071645.15449
 -17832631.35608 -13895537.36308  20760938.05408  20760939.36608         0.00001
  -2234214.10108  -1740931.30408  21289808.60408  21289809.15208         0.00001
  -9089950.04149  -7083065.65447         0.00041  20698555.96047  20698555.64249
 94 02 22 03 56 00.0000000  0  7 04 05 07 09 12 13 24
  -3566442.82249  -2779035.17848         0.00041  20714424.99148  20714425.57249
  -8654040.18348  -6743400.47347         0.00041  21871282.41047  21871281.75648
   8004766.77748   6237491.40245         0.00041  23744208.52445  23744203.93448
 -16162554.37749 -12594182.21047         0.00041  21076436.19647  21076436.00249
 -17850047.74908 -13909108.57608  20757623.86308  20757625.17008         0.00001
  -2179530.41008  -1698320.65408  21300214.79208  21300215.06908         0.00001
  -9133681.96048  -7117142.43347         0.00041  20690233.59947  20690233.46448
 94 02 22 03 56 30.0000000  0  7 04 05 07 09 12 13 24
  -3540615.28349  -2758909.80448         0.00041  20719339.74048  20719340.25449
  -8726801.67849  -6800097.71047         0.00041  21857436.35647  21857435.79349
   8079972.06748   6296092.96645         0.00041  23758519.48345  23758517.22248
 -16136854.94549 -12574156.69247         0.00041  21081326.36947  21081326.36849
 -17866910.57608 -13922248.43608  20754415.05908  20754416.28008         0.00001
  -2124643.61909  -1655551.73208  21310659.45209  21310659.59108         0.00001
  -9176933.66848  -7150845.02247         0.00041  20682003.03847  20682002.81848
 94 02 22 03 57 00.0000000  0  7 04 05 07 09 12 13 24
  -3514216.79649  -2738339.54548         0.00041  20724363.17048  20724363.52149
  -8799395.07749  -6856663.96647         0.00041  21843622.14747  21843621.75849
   8155164.35548   6354684.40045         0.00041  23772827.53345  23772825.00448
 -16110604.76549 -12553702.00347         0.00041  21086321.53947  21086321.97149
 -17883189.23308 -13934933.09408  20751317.50008  20751318.53208         0.00001
  -2069526.27909  -1612603.16808  21321148.02709  21321148.19208         0.00001
  -9219674.71448  -7184149.68847         0.00041  20673870.26047  20673869.70448
 94 02 22 03 57 30.0000000  0  7 04 05 07 09 12 13 24
  -3487248.67449  -2717325.41248         0.00041  20729494.81348  20729495.46749
  -8871812.68549  -6913093.25247         0.00041  21829841.76947  21829840.98349
   8230360.82448   6413279.08545         0.00041  23787128.99445  23787135.91648
 -16083801.77349 -12532816.54847         0.00041  21091421.86347  21091422.23449
 -17898879.69508 -13947159.41508  20748331.74308  20748332.77708         0.00001
  -2014178.17509  -1569474.77908  21331680.41109  21331680.66108         0.00001
  -9261882.57148  -7217038.88347         0.00041  20665838.42447  20665837.50848
 94 02 22 03 58 00.0000000  0  7 04 05 07 09 12 13 24
  -3459701.06349  -2695859.73248         0.00041  20734737.01748  20734737.45049
  -8944035.25249  -6969370.55547         0.00041  21816098.42147  21816097.47649
   8305575.02148   6471887.54945         0.00041  23801445.80245  23801449.25348
 -16056424.40749 -12511483.53047         0.00041  21096631.57747  21096631.94249
 -17913971.11108 -13958918.94608  20745459.87508  20745460.96208         0.00001
  -1958591.55209  -1526160.52208  21342257.97709  21342258.59308         0.00001
  -9303527.88349  -7249489.73447         0.00041  20657913.66447  20657912.86149
 94 02 22 03 58 30.0000000  0  7 04 05 07 09 12 13 24
  -3431576.24049  -2673944.28148         0.00041  20740089.10848  20740089.64449
  -9016068.23049  -7025500.12847         0.00041  21802390.84447  21802390.41749
   8380807.91948   6530510.64745         0.00041  23815765.29245  23815765.24648
 -16028457.24349 -12489690.92147         0.00041  21101953.71647  21101954.37049
 -17928465.60208 -13970213.34608  20742701.54108  20742702.75808         0.00001
  -1902771.97908  -1482664.74108  21352879.93208  21352880.59408         0.00001
  -9344631.75049  -7281518.68947         0.00041  20650091.91147  20650091.39149
 94 02 22 03 59 00.0000000  0  7 04 05 07 09 12 13 24
  -3402862.70249  -2651570.08648         0.00041  20745552.89248  20745553.36549
  -9087912.80549  -7081482.90447         0.00041  21788719.09347  21788719.03649
   8456068.11448   6589154.93445         0.00041  23830086.54245  23830086.65748
 -15999889.27849 -12467430.16647         0.00041  21107389.97747  21107390.31649
 -17942355.05908 -13981036.29708  20740058.33608  20740059.66208         0.00001
  -1846714.78909  -1438983.80708  21363547.46909  21363547.81908         0.00001
  -9385194.08349  -7313125.66347         0.00041  20642373.15347  20642373.06149
 94 02 22 03 59 30.0000000  0  7 04 05 07 09 12 13 24
  -3373578.38449  -2628751.13248         0.00041  20751125.27148  20751125.74949
  -9159564.02349  -7137315.01147         0.00041  21775084.30347  21775083.94349
   8531358.83948   6647823.11744         0.00041  23844410.60044  23844413.25548
 -15970722.70249 -12444702.96547         0.00041  21112940.32947  21112940.19749
 -17955638.45708 -13991387.00308  20737530.49608  20737531.90708         0.00001
  -1790422.27909  -1395119.52208  21374259.76509  21374259.76408         0.00001
  -9425204.26449  -7344302.40047         0.00041  20634759.41047  20634759.34149
 94 02 22 04 00 00.0000000  0  7 04 05 07 09 12 13 24
  -3343726.19349  -2605489.67848         0.00041  20756805.84848  20756806.20749
  -9231036.19349  -7193007.59447         0.00041  21761483.86847  21761483.32549
   8606678.79248   6706514.03744         0.00041  23858745.30944  23858744.91848
 -15940971.54349 -12421520.25647         0.00041  21118601.90247  21118601.96349
 -17968322.61708 -14001270.76208  20735116.78008  20735118.14308         0.00001
  -1733904.45109  -1351079.67108  21385014.74409  21385014.71108         0.00001
  -9464675.30849  -7375059.02647         0.00041  20627248.26247  20627248.01449
 94 02 22 04 00 30.0000000  0  7 04 05 07 09 12 13 24
  -3313311.89949  -2581790.21948         0.00041  20762593.47048  20762593.69549
  -9302336.70349  -7248566.41947         0.00041  21747915.17047  21747915.25649
   8682040.62148   6765237.65844         0.00041  23873087.26544  23873086.38748
 -15910636.75949 -12397882.77647         0.00041  21124374.63847  21124374.74049
 -17980406.17708 -14010686.52508  20732817.47908  20732818.76008         0.00001
  -1677163.12008  -1306865.66608  21395811.98808  21395812.43808         0.00001
  -9503603.24149  -7405392.45047         0.00041  20619840.35647  20619840.09749
 94 02 22 04 01 00.0000000  0  7 04 05 07 09 12 13 24
  -3282354.14949  -2557667.29348         0.00041  20768484.71248  20768484.56349
  -9373465.44349  -7303991.39047         0.00041  21734380.12447  21734380.13149
   8757444.98248   6823994.37444         0.00041  23887436.43644  23887436.32148
 -15879735.79049 -12373804.10347         0.00041  21130255.03347  21130255.10649
 -17991888.85708 -14019634.06308  20730632.54908  20730633.69108         0.00001
  -1620201.39508  -1262479.90608  21406651.18508  21406651.94608         0.00001
  -9541964.72249  -7435284.48247         0.00041  20612540.49347  20612540.32649
 94 02 22 04 01 30.0000000  0  7 04 05 07 09 12 13 24
  -3250880.20049  -2533142.12448         0.00041  20774473.75748  20774473.29749
  -9444424.20649  -7359283.92147         0.00041  21720876.88847  21720876.80649
   8832882.96548   6882777.27444         0.00041  23901791.52244  23901791.37248
 -15848298.43349 -12349307.46847         0.00041  21136237.19447  21136237.09249
 -18002789.13808 -14028127.77908  20728558.37108  20728559.35408         0.00001
  -1563040.91108  -1217939.26808  21417528.39808  21417529.33008         0.00001
  -9579769.93649  -7464743.07147         0.00041  20605346.23247  20605346.20349
 94 02 22 04 02 00.0000000  0  7 04 05 07 09 12 13 24
  -3218890.74349  -2508215.25048         0.00041  20780561.20348  20780561.12749
  -9515222.61749  -7414451.49647         0.00041  21707404.31047  21707404.23649
   8908351.60648   6941584.09444         0.00041  23916149.83744  23916150.02748
 -15816332.50949 -12324398.98648         0.00041  21142319.56348  21142319.84749
 -18013115.36308 -14036174.19408  20726593.42508  20726594.27708         0.00001
  -1505693.28308  -1173252.81208  21428441.26108  21428442.27908         0.00001
  -9617046.34749  -7493789.60247         0.00041  20598252.64247  20598252.69849
 94 02 22 04 02 30.0000000  0  7 04 05 07 09 12 13 24
  -3186404.71149  -2482901.46348         0.00041  20786743.04348  20786743.72349
  -9585857.07049  -7469491.31747         0.00041  21693962.37147  21693962.63949
   8983841.59448   7000407.45644         0.00041  23930517.26844  23930514.86648
 -15783833.55849 -12299075.10847         0.00041  21148504.32947  21148504.30549
 -18022866.21208 -14043772.25108  20724737.89208  20724738.73108         0.00001
  -1448160.30308  -1128421.91108  21439389.28708  21439390.38008         0.00001
  -9653803.01849  -7522431.14447         0.00041  20591257.45847  20591258.01549
 94 02 22 04 03 00.0000000  0  7 04 05 07 09 12 13 24
  -3153426.66449  -2457204.28848         0.00041  20793018.85748  20793019.70049
  -9656323.50849  -7524400.22447         0.00041  21680553.03447  21680553.78549
   9059329.19348   7059229.03444         0.00041  23944877.98344  23944880.76448
 -15750828.55249 -12273356.91847         0.00041  21154784.64247  21154784.92149
 -18032056.35409 -14050933.39508  20722989.10909  20722989.83008         0.00001
  -1390459.52708  -1083460.26508  21450369.46508  21450370.26108         0.00001
  -9690069.01549  -7550690.34147         0.00041  20584356.52347  20584356.64649
 94 02 22 04 03 30.0000000  0  7 04 05 07 09 12 13 24
  -3119932.48249  -2431104.92748         0.00041  20799393.15848  20799393.83349
  -9726605.04149  -7579165.05247         0.00041  21667178.77947  21667179.81649
   9134814.42248   7118048.64344         0.00041  23959240.18744  23959245.23748
 -15717306.62049 -12247235.93547         0.00041  21161164.28147  21161164.03849
 -18040681.03008 -14057653.92608  20721347.88608  20721348.50708         0.00001
  -1332589.34808  -1038366.63708  21461382.04508  21461382.46508         0.00001
  -9725855.95249  -7578576.23647         0.00041  20577546.63947  20577546.60149
 94 02 22 04 04 00.0000000  0  7 04 05 07 09 12 13 24
  -3085937.25449  -2404615.14648         0.00041  20805862.20448  20805862.93349
  -9796722.25149  -7633801.83047         0.00041  21653836.06347  21653836.73749
   9210268.63948   7176844.13744         0.00041  23973606.65144  23973605.01648
 -15683281.36149 -12220722.73347         0.00041  21167639.30347  21167638.90149
 -18048753.99008 -14063944.54308  20719811.64908  20719812.16608         0.00001
  -1274566.81408   -993154.29108  21472423.36408  21472423.62408         0.00001
  -9761178.09449  -7606099.95347         0.00041  20570825.19747  20570825.40949
 94 02 22 04 04 30.0000000  0  7 04 05 07 09 12 13 24
  -3051426.99649  -2377724.05648         0.00041  20812429.35948  20812430.04749
  -9866646.08449  -7688287.92947         0.00041  21640530.36847  21640530.34149
   9285690.79548   7235614.62244         0.00041  23987953.82044  23987957.11948
 -15648749.47349 -12193814.65247         0.00041  21174209.84347  21174209.99449
 -18056261.78508 -14069794.77208  20718382.92808  20718383.43908         0.00001
  -1216381.39108   -947815.00208  21483495.69108  21483495.94308         0.00001
  -9796001.05349  -7633234.69047         0.00041  20564198.94247  20564198.83249
 94 02 22 04 05 00.0000000  0  7 04 05 07 09 12 13 24
  -3016358.19949  -2350397.68148         0.00041  20819102.12048  20819103.12049
  -9936342.96349  -7742597.17247         0.00041  21627267.59347  21627267.66849
   9361105.65548   7294379.37844         0.00041  24002307.71644  24002307.77848
 -15613683.99149 -12166491.31647         0.00041  21180882.04547  21180883.11149
 -18063177.71709 -14075183.81008  20717066.92009  20717067.42408         0.00001
  -1158009.28108   -902330.25108  21494603.66408  21494603.84108         0.00001
  -9830289.73049  -7659953.11047         0.00041  20557673.88447  20557673.74949
 94 02 22 04 05 30.0000000  0  7 04 05 07 09 12 13 24
  -2980770.23249  -2322666.82148         0.00041  20825874.26648  20825875.15949
 -10005848.39949  -7796757.24247         0.00041  21614040.98047  21614041.51049
   9436489.70947   7353120.21144         0.00041  24016658.96044  24016651.76647
 -15578086.52348 -12138752.77747         0.00041  21187656.64747  21187656.79348
 -18069518.52009 -14080124.68808  20715860.34509  20715860.92308         0.00001
  -1099470.26908   -856715.46208  21505743.39908  21505743.36608         0.00001
  -9864051.56349  -7686260.99948         0.00041  20551249.19348  20551249.02849
 94 02 22 04 06 00.0000000  0  7 04 05 07 09 12 13 24
  -2944677.94349  -2294542.96448         0.00041  20832742.15748  20832743.03949
 -10075158.51049  -7850765.11147         0.00041  21600852.27247  21600852.24049
   9511861.04747   7411851.13444         0.00041  24030993.74944  24030992.50447
 -15541946.53548 -12110591.75647         0.00041  21194533.94447  21194534.17648
 -18075267.43909 -14084604.36308  20714766.47109  20714767.10308         0.00001
  -1040750.35308   -810959.69308  21516917.50108  21516917.33008         0.00001
  -9897261.59049  -7712138.91448         0.00041  20544929.73548  20544929.47249
 94 02 22 04 06 30.0000000  0  7 04 05 07 09 12 13 24
  -2908061.68249  -2266010.81648         0.00041  20839710.29348  20839710.96049
 -10144256.55949  -7904607.72747         0.00041  21587703.14647  21587703.32549
   9587249.15747   7470595.09344         0.00041  24045340.97044  24045339.99347
 -15505232.29848 -12081983.27247         0.00041  21201520.02247  21201520.55248
 -18080399.73609 -14088603.54808  20713789.76409  20713790.54108         0.00001
   -981827.83008   -765046.04408  21528130.06308  21528129.74708         0.00001
  -9929899.71849  -7737571.19548         0.00041  20538719.02448  20538718.55449
 94 02 22 04 07 00.0000000  0  7 04 05 07 09 12 13 24
  -2870958.01549  -2237098.86548         0.00041  20846771.03248  20846771.42649
 -10213192.09849  -7958323.71947         0.00041  21574584.86947  21574585.25349
   9662635.72447   7529337.88444         0.00041  24059685.07244  24059685.88147
 -15467956.79548 -12052937.43447         0.00041  21208612.81247  21208613.58048
 -18084939.76909 -14092141.24108  20712925.77209  20712926.66108         0.00001
   -922729.95808   -718995.76508  21539375.99408  21539375.67908         0.00001
  -9961998.12549  -7762582.91448         0.00041  20532610.90048  20532610.23449
 94 02 22 04 07 30.0000000  0  7 04 05 07 09 12 13 24
  -2833384.54249  -2207820.83548         0.00041  20853921.34748  20853921.25349
 -10281978.58849  -8011923.56647         0.00041  21561495.11847  21561495.47649
   9738024.16447   7588081.98244         0.00041  24074031.58744  24074031.50447
 -15430130.78249 -12023462.63447         0.00041  21215811.51047  21215812.03249
 -18088893.46108 -14095222.04408  20712173.31008  20712174.34108         0.00001
   -863465.49508   -672815.68508  21550653.53508  21550653.32408         0.00001
  -9993562.18849  -7787178.25148         0.00041  20526604.43848  20526603.81649
 94 02 22 04 08 00.0000000  0  7 04 05 07 09 12 13 24
  -2795320.77549  -2178160.75448         0.00041  20861164.66148  20861164.71149
 -10350609.78249  -8065402.40347         0.00041  21548434.82247  21548435.61349
   9813429.44548   7646839.40544         0.00041  24088383.97044  24088381.83448
 -15391779.88449 -11993578.82847         0.00041  21223109.43447  21223109.85249
 -18092264.41208 -14097848.76808  20711531.84008  20711532.88308         0.00001
   -804040.40008   -626510.43908  21561961.52108  21561961.66308         0.00001
 -10024590.05349  -7811355.78348         0.00041  20520699.84748  20520699.58349
 94 02 22 04 08 30.0000000  0  7 04 05 07 09 12 13 24
  -2756736.68749  -2148095.23048         0.00041  20868507.06548  20868506.91749
 -10419075.12949  -8118752.01347         0.00041  21535405.97847  21535407.06149
   9888847.40548   7705606.55344         0.00041  24102743.35644  24102736.05048
 -15352905.40849 -11963287.04247         0.00041  21230507.19847  21230507.11049
 -18095048.03108 -14100017.82608  20711002.25008  20711003.04208         0.00001
   -744453.32308   -580078.95108  21573300.36908  21573301.08808         0.00001
 -10055087.29649  -7835119.83948         0.00041  20514896.47548  20514896.25349
 94 02 22 04 09 00.0000000  0  7 04 05 07 09 12 13 24
  -2717640.42849  -2117630.61048         0.00041  20875946.68848  20875946.82949
 -10487375.95949  -8171973.42347         0.00041  21522408.08147  21522409.76649
   9964260.51648   7764369.99344         0.00041  24117086.78444  24117087.85648
 -15313537.07849 -11932610.42847         0.00041  21237999.36547  21237999.02749
 -18097256.38909 -14101738.62708  20710582.09909  20710582.73308         0.00001
   -684718.72708   -533532.49108  21584667.55008  21584668.48708         0.00001
 -10085066.59549  -7858480.30748         0.00041  20509191.41648  20509191.31249
 94 02 22 04 09 30.0000000  0  7 04 05 07 09 12 13 24
  -2678019.54649  -2086757.19348         0.00041  20883486.36848  20883486.71449
 -10555478.30849  -8225040.17147         0.00041  21509449.13447  21509450.51549
  10039666.79048   7823127.97444         0.00041  24131433.22344  24131435.76148
 -15273692.18449 -11901562.46147         0.00041  21245581.20947  21245581.38249
 -18098884.04409 -14103006.92108  20710272.33709  20710272.93808         0.00001
   -624834.11208   -486869.14408  21596063.32408  21596064.24708         0.00001
 -10114525.35349  -7881435.15348         0.00041  20503585.51948  20503585.66349
 94 02 22 04 10 00.0000000  0  7 04 05 07 09 12 13 24
  -2637872.41049  -2055473.70648         0.00041  20891126.16248  20891126.64449
 -10623361.83449  -8277936.40947         0.00041  21496531.54647  21496532.79049
  10115058.24547   7881874.57944         0.00041  24145776.33044  24145779.84547
 -15233367.75548 -11870140.82446         0.00041  21253254.19846  21253254.43548
 -18099921.16609 -14103815.05608  20710074.85009  20710075.59108         0.00001
   -564792.27508   -440083.29808  21607489.04608  21607489.61108         0.00001
 -10143466.47549  -7903986.64848         0.00041  20498077.78448  20498078.16149
 94 02 22 04 10 30.0000000  0  7 04 05 07 09 12 13 24
  -2597202.83549  -2023783.12148         0.00041  20898865.23848  20898865.65649
 -10691008.20249  -8330647.85247         0.00041  21483659.22647  21483659.88949
  10190436.35447   7940610.75844         0.00041  24160124.85244  24160123.28547
 -15192524.71048 -11838315.07446         0.00041  21261026.49246  21261026.66448
 -18100347.54308 -14104147.29108  20709993.58408  20709994.53808         0.00001
   -504575.98508   -393161.52908  21618947.85908  21618948.23708         0.00001
 -10171879.41849  -7926126.58148         0.00041  20492670.70048  20492671.06049
 94 02 22 04 11 00.0000000  0  7 04 05 07 09 12 13 24
  -2556013.55249  -1991687.57248         0.00041  20906703.03948  20906703.40149
 -10758390.51349  -8383153.54047         0.00041  21470837.60847  21470837.46449
  10265834.92047   7999362.66544         0.00041  24174471.18644  24174471.31347
 -15151138.20148 -11806065.84346         0.00041  21268901.78846  21268901.80448
 -18100145.49508 -14103989.84708  20710031.91508  20710032.99708         0.00001
   -444169.58608   -346091.61908  21630442.67408  21630443.13108         0.00001
 -10199735.78649  -7947832.80348         0.00041  20487369.75848  20487369.74249
 94 02 22 04 11 30.0000000  0  7 04 05 07 09 12 13 24
  -2514292.74149  -1959177.85148         0.00041  20914641.96948  20914642.44449
 -10825494.04749  -8435441.99947         0.00041  21458068.36247  21458067.93949
  10341290.04847   8058159.07644         0.00041  24188823.19844  24188828.90547
 -15109171.99948 -11773364.90146         0.00041  21276887.41746  21276887.62448
 -18099290.92408 -14103323.94708  20710194.54408  20710195.64008         0.00001
   -383551.68608   -298856.89308  21641977.57308  21641978.50108         0.00001
 -10227010.50349  -7969085.78448         0.00041  20482179.52848  20482179.58249
 94 02 22 04 12 00.0000000  0  7 04 05 07 09 12 13 24
  -2472097.47549  -1926298.41948         0.00041  20922671.42948  20922671.65349
 -10892385.94749  -8487565.54148         0.00041  21445339.38048  21445339.28649
  10416762.99147   8116968.85444         0.00041  24203190.63244  24203191.76347
 -15066655.80248 -11740235.40546         0.00041  21284978.14146  21284978.13948
 -18097832.57908 -14102187.57408  20710472.03608  20710473.09208         0.00001
   -322773.71408   -251497.42108  21653543.10308  21653544.29608         0.00001
 -10253748.92849  -7989920.88448         0.00041  20477091.63148  20477091.75849
 94 02 22 04 12 30.0000000  0  7 04 05 07 09 12 13 24
  -2429431.07249  -1893051.86348         0.00041  20930790.81648  20930791.04349
 -10959081.48649  -8539536.08948         0.00041  21432647.70348  21432647.84549
  10492240.08347   8175782.48144         0.00041  24217550.06144  24217553.06747
 -15023607.62548 -11706691.38746         0.00041  21293170.17946  21293170.23748
 -18095788.15908 -14100594.52108  20710861.09408  20710862.08108         0.00001
   -261855.61608   -204028.77108  21665135.68208  21665136.55208         0.00001
 -10279958.04249  -8010343.54248         0.00041  20472104.25648  20472104.51949
 94 02 22 04 13 00.0000000  0  7 04 05 07 09 12 13 24
  -2386276.36849  -1859424.81148         0.00041  20939002.56848  20939003.01749
 -11025574.11849  -8591348.51447         0.00041  21419994.37247  21419994.65849
  10567725.48347   8234602.90544         0.00041  24231925.68544  24231917.11147
 -14980034.45148 -11672738.27046         0.00041  21301462.07746  21301462.10248
 -18093150.85508 -14098539.48208  20711363.11408  20711364.00608         0.00001
   -200793.12008   -156447.60908  21676755.60808  21676756.12808         0.00001
 -10305636.95249  -8030353.05448         0.00041  20467217.71748  20467218.17249
 94 02 22 04 13 30.0000000  0  7 05 07 09 12 13 20 24
 -11091865.12349  -8643003.82547         0.00041  21407379.08847  21407379.80449
  10643206.19247   8293419.27744         0.00041  24246285.79244  24246284.38647
 -14935940.86448 -11638379.64446         0.00041  21309853.47246  21309853.02748
 -18089915.87008 -14096018.69908  20711978.76408  20711979.61108         0.00001
   -139583.98808   -108752.18308  21688403.25308  21688403.87908         0.00001
         0.00758         0.99554         0.00051  24282138.96354  24282140.09158
 -10330787.77349  -8049951.07848         0.00041  20462431.71848  20462431.99449
 94 02 22 04 14 00.0000000  0  7 05 07 09 12 13 20 24
 -11157957.87249  -8694504.65047         0.00041  21394801.33047  21394802.36949
  10718652.67347   8352208.78944         0.00041  24260635.11544  24260640.65847
 -14891357.96448 -11603639.72946         0.00041  21318337.50546  21318336.86748
 -18086101.76308 -14093046.65608  20712704.56308  20712705.49608         0.00001
    -78249.26308    -60958.89608  21700074.85108  21700075.63608         0.00001
    -97737.79448    -76158.86244         0.00041  24263541.11244  24263541.57048
 -10355429.02849  -8069152.03548         0.00041  20457742.63848  20457742.57049
 94 02 22 04 14 30.0000000  0  6 05 09 12 13 20 24
 -11223845.30349  -8745845.48347         0.00041  21382263.30047  21382264.32949
 -14846302.38448 -11568531.48146         0.00041  21326911.25646  21326910.58748
 -18081713.68808 -14089627.37608  20713539.49908  20713540.61008         0.00001
    -16796.08908    -13073.31408  21711769.09708  21711769.75208         0.00001
   -195502.02947   -152339.03644         0.00041  24244934.80644  24244936.71147
 -10379564.77849  -8087959.09048         0.00041  20453149.68648  20453149.52249
 94 02 22 04 15 00.0000000  0  7 04 05 09 12 13 20 24
        -0.34159        -0.12758         0.00051  20972803.07558  20972804.98459
 -11289530.21249  -8797028.51247         0.00041  21369763.59647  21369764.76349
 -14800777.38248 -11533057.46046         0.00041  21335574.55146  21335573.81848
 -18076752.18508 -14085761.26108  20714483.53508  20714484.74908         0.00001
     44772.38708     34902.11808  21723485.19308  21723485.55808         0.00001
   -293292.19747   -228539.12044         0.00041  24226333.86144  24226328.79547
 -10403187.69049  -8106366.53348         0.00041  20448654.06048  20448653.99749
 94 02 22 04 15 30.0000000  0  6 04 05 09 12 13 24
     45609.30749     35539.86548         0.00041  20981482.65448  20981484.22649
 -11354990.88149  -8848036.81247         0.00041  21357307.29147  21357307.62449
 -14754770.30448 -11497207.81446         0.00041  21344329.26546  21344328.86548
 -18071204.92808 -14081438.72808  20715539.06908  20715540.41908         0.00001
    106466.35808     82975.32208  21735225.07908  21735225.26608         0.00001
 -10426269.32049  -8124352.20248         0.00041  20444261.72848  20444262.01649
 94 02 22 04 16 00.0000000  0  6 04 05 09 12 13 24
     91649.14849     71415.07248         0.00041  20990244.06148  20990245.36849
 -11420251.55149  -8898889.26647         0.00041  21344888.81347  21344888.69949
 -14708290.55448 -11460989.82746         0.00041  21353172.91346  21353172.90248
 -18065091.52208 -14076675.03508  20716702.46408  20716703.84708         0.00001
    168263.97608    131129.30508  21746984.83008  21746984.98308         0.00001
 -10448829.41749  -8141931.48848         0.00041  20439968.37248  20439968.88149
 94 02 22 04 16 30.0000000  0  6 04 05 09 12 13 24
    138136.96049    107639.34848         0.00041  20999090.22448  20999091.21449
 -11485292.47749  -8949570.49947         0.00041  21332512.13547  21332511.58449
 -14661307.67048 -11424379.80246         0.00041  21362114.19346  21362113.86848
 -18058385.81408 -14071449.81508  20717978.65308  20717979.90308         0.00001
    230189.12208    179382.66708  21758769.00208  21758768.96808         0.00001
 -10470845.74049  -8159087.04748         0.00041  20435778.70348  20435779.34349
 94 02 22 04 17 00.0000000  0  6 04 05 09 12 13 24
    185085.64449    144222.74448         0.00041  21008024.07348  21008024.95349
 -11550108.27449  -9000076.28747         0.00041  21320178.01747  21320177.83049
 -14613808.94248 -11387367.80346         0.00041  21371152.13946  21371152.74848
 -18051074.19809 -14065752.45708  20719370.13009  20719371.20808         0.00001
    292253.26108    227744.32008  21770579.68908  21770579.46108         0.00001
 -10492311.90949  -8175813.91548         0.00041  20431693.95448  20431694.59849
 94 02 22 04 17 30.0000000  0  6 04 05 09 12 13 24
    232495.02149    181165.12748         0.00041  21017045.42648  21017046.21749
 -11614698.53749  -9050406.34548         0.00041  21307886.99348  21307886.87149
 -14565802.82948 -11349960.41746         0.00041  21380287.51146  21380287.70548
 -18043163.42809 -14059588.22108  20720875.63509  20720876.42408         0.00001
    354447.25908    276207.15908  21782414.76108  21782414.68708         0.00001
 -10513248.93549  -8192128.46048         0.00041  20427710.00248  20427710.52849
 94 02 22 04 18 00.0000000  0  6 04 05 09 12 13 24
    280377.48249    218476.14148         0.00041  21026157.62248  21026158.23449
 -11679060.43949  -9100558.45848         0.00041  21295639.51248  21295639.45549
 -14517306.63348 -11312171.13446         0.00041  21389516.65146  21389516.51948
 -18034655.54009 -14052958.70108  20722494.70409  20722495.30408         0.00001
    416767.31908    324768.23808  21794273.61908  21794274.04708         0.00001
 -10533672.26749  -8208042.71948         0.00041  20423823.77948  20423824.04449
 94 02 22 04 18 30.0000000  0  6 04 05 09 12 13 24
    328731.03649    256154.24248         0.00041  21035359.51848  21035359.68849
 -11743180.84049  -9150522.38048         0.00041  21283438.03048  21283437.60049
 -14468355.16748 -11274027.09746         0.00041  21398831.52846  21398832.29648
 -18025561.10209 -14045872.12808  20724225.33609  20724225.86808         0.00001
    479200.69908    373417.63208  21806154.14008  21806154.88308         0.00001
 -10553588.95249  -8223562.19148         0.00041  20420033.32548  20420033.87649
